[[{"header":{"parameterUnit":"m.s-1","parameterCategory":1,"la1":30.6,"la2":29.2853,"lo1":-89.7004,"lo2":-87.6739,"dx":0.0162,"dy":0.0183,"nx":112,"ny":82,"refTime":"2022-11-21T18:00:00:Z","depth":0,"parameterNumber":2,"parameterNumberName":"U-component_of_WINDS"},"data":[0.0,0.0,0.0,0.0,0.0,0.0,0.0,0.0,0.0,0.0,0.0,0.0,0.0,0.0,0.0,0.0,0.0,0.0,0.0,0.0,0.0,0.0,0.0,0.0,0.0,0.0,0.0,0.0,0.0,0.0,0.0,0.0,0.0,0.0,0.0,0.0,0.0,0.0,0.0,0.0,0.0,0.0,0.0,0.0,0.0,0.0,0.0,0.0,0.0,0.0,0.0,0.0,0.0,0.0,0.0,0.0,0.0,0.0,0.0,0.0,0.0,0.0,0.0,0.0,0.0,0.0,0.0,0.0,0.0,0.0,0.0,0.0,0.0,0.0,0.0,0.0,0.0,0.0,0.0,0.0,0.0,0.0,0.0,0.0,0.0,0.0,0.0,0.0,0.0,0.0,3.9632,4.2876,4.636,4.7638,4.5635,4.3744,3.9997,3.3795,0.0,0.0,0.0,0.0,0.0,0.0,0.0,0.0,0.0,0.0,0.0,0.0,0.0,0.0,0.0,0.0,0.0,0.0,0.0,0.0,0.0,0.0,0.0,0.0,0.0,0.0,0.0,0.0,0.0,0.0,0.0,0.0,0.0,0.0,0.0,0.0,0.0,0.0,0.0,0.0,0.0,0.0,0.0,0.0,0.0,0.0,0.0,0.0,0.0,0.0,0.0,0.0,0.0,0.0,0.0,0.0,0.0,0.0,0.0,0.0,0.0,0.0,0.0,0.0,0.0,0.0,0.0,0.0,0.0,0.0,0.0,0.0,0.0,0.0,0.0,0.0,0.0,0.0,0.0,0.0,0.0,0.0,0.0,0.0,0.0,0.0,0.0,0.0,0.0,0.0,0.0,0.0,0.0,0.0,0.0,0.0,0.0,0.0,0.0,0.0,0.0,0.0,0.0,0.0,3.9555,4.7537,4.899,4.855,4.6483,4.4456,4.0432,3.3824,0.0,0.0,0.0,0.0,0.0,0.0,0.0,0.0,0.0,0.0,0.0,0.0,0.0,0.0,0.0,0.0,0.0,0.0,0.0,0.0,0.0,0.0,0.0,0.0,0.0,0.0,0.0,0.0,0.0,0.0,0.0,0.0,0.0,0.0,0.0,0.0,0.0,0.0,0.0,0.0,0.0,0.0,0.0,0.0,0.0,0.0,0.0,0.0,0.0,0.0,0.0,0.0,0.0,0.0,0.0,0.0,0.0,0.0,0.0,0.0,0.0,0.0,0.0,0.0,0.0,0.0,0.0,0.0,0.0,0.0,0.0,0.0,0.0,0.0,0.0,0.0,0.0,0.0,0.0,0.0,0.0,0.0,0.0,0.0,0.0,0.0,0.0,0.0,0.0,0.0,0.0,0.0,0.0,0.0,0.0,0.0,0.0,0.0,0.0,0.0,0.0,0.0,0.0,3.719,4.1966,4.8394,4.9438,4.8992,4.7394,4.5771,4.1936,3.5047,3.0621,0.0,0.0,0.0,0.0,0.0,0.0,0.0,0.0,0.0,0.0,0.0,0.0,0.0,0.0,0.0,0.0,0.0,0.0,0.0,0.0,0.0,0.0,0.0,0.0,0.0,0.0,0.0,0.0,0.0,0.0,0.0,0.0,0.0,0.0,0.0,0.0,0.0,0.0,0.0,0.0,0.0,0.0,0.0,0.0,0.0,0.0,0.0,0.0,0.0,0.0,0.0,0.0,0.0,0.0,0.0,0.0,0.0,0.0,0.0,0.0,0.0,0.0,0.0,0.0,0.0,0.0,0.0,0.0,0.0,0.0,0.0,0.0,0.0,0.0,0.0,0.0,0.0,0.0,0.0,0.0,0.0,0.0,0.0,0.0,0.0,0.0,0.0,0.0,0.0,0.0,0.0,0.0,0.0,0.0,0.0,0.0,0.0,0.0,0.0,0.0,0.0,0.0,4.2143,4.5259,4.8425,4.9352,4.9245,4.8,4.6745,4.296,3.5791,3.155,0.0,0.0,0.0,0.0,0.0,0.0,0.0,0.0,0.0,0.0,0.0,0.0,0.0,0.0,0.0,0.0,0.0,0.0,0.0,0.0,0.0,0.0,0.0,0.0,0.0,0.0,0.0,0.0,0.0,0.0,0.0,0.0,0.0,0.0,0.0,0.0,0.0,0.0,0.0,0.0,0.0,0.0,0.0,0.0,0.0,0.0,0.0,0.0,0.0,0.0,0.0,0.0,0.0,0.0,0.0,0.0,0.0,0.0,0.0,0.0,0.0,0.0,0.0,0.0,0.0,0.0,0.0,0.0,0.0,0.0,0.0,0.0,0.0,0.0,0.0,0.0,0.0,0.0,0.0,0.0,0.0,0.0,0.0,0.0,0.0,0.0,0.0,0.0,0.0,0.0,0.0,0.0,0.0,0.0,0.0,0.0,0.0,0.0,0.0,0.0,0.0,0.0,4.4048,4.8862,4.8984,4.9514,4.9343,4.8007,4.6556,4.2543,3.5052,3.108,0.0,0.0,0.0,0.0,0.0,0.0,0.0,0.0,0.0,0.0,0.0,0.0,0.0,0.0,0.0,0.0,0.0,0.0,0.0,0.0,0.0,0.0,0.0,0.0,0.0,0.0,0.0,0.0,0.0,0.0,0.0,0.0,0.0,0.0,0.0,0.0,0.0,0.0,0.0,0.0,0.0,0.0,0.0,0.0,0.0,0.0,0.0,0.0,0.0,0.0,0.0,0.0,0.0,0.0,0.0,0.0,0.0,0.0,0.0,0.0,0.0,0.0,0.0,0.0,0.0,0.0,0.0,0.0,0.0,0.0,0.0,0.0,0.0,0.0,0.0,0.0,0.0,0.0,0.0,0.0,0.0,0.0,0.0,0.0,0.0,0.0,0.0,0.0,0.0,0.0,0.0,0.0,0.0,0.0,0.0,0.0,0.0,0.0,0.0,0.0,0.0,0.0,4.21,4.6873,4.879,4.9396,4.9413,4.8772,4.7542,4.3576,3.5906,0.0,0.0,0.0,0.0,0.0,0.0,0.0,0.0,0.0,0.0,0.0,0.0,0.0,0.0,0.0,0.0,0.0,0.0,0.0,0.0,0.0,0.0,0.0,0.0,0.0,0.0,0.0,0.0,0.0,0.0,0.0,0.0,0.0,0.0,0.0,0.0,0.0,0.0,0.0,0.0,0.0,0.0,0.0,0.0,0.0,0.0,0.0,0.0,0.0,0.0,0.0,0.0,0.0,0.0,0.0,0.0,0.0,0.0,0.0,0.0,0.0,0.0,0.0,0.0,0.0,0.0,0.0,0.0,0.0,0.0,0.0,0.0,0.0,0.0,0.0,0.0,0.0,0.0,0.0,0.0,0.0,0.0,0.0,0.0,0.0,0.0,0.0,0.0,0.0,0.0,0.0,0.0,0.0,0.0,0.0,0.0,0.0,0.0,0.0,0.0,0.0,0.0,3.5574,4.1802,4.6585,4.8813,4.9313,4.9433,4.9305,4.8126,4.4144,3.6465,0.0,0.0,0.0,0.0,0.0,0.0,0.0,0.0,0.0,0.0,0.0,0.0,0.0,0.0,0.0,0.0,0.0,0.0,0.0,0.0,0.0,0.0,0.0,0.0,0.0,0.0,0.0,0.0,0.0,0.0,0.0,0.0,0.0,0.0,0.0,0.0,0.0,0.0,0.0,0.0,0.0,0.0,0.0,0.0,0.0,0.0,0.0,0.0,0.0,0.0,0.0,0.0,0.0,0.0,0.0,0.0,0.0,0.0,0.0,0.0,0.0,0.0,0.0,0.0,0.0,0.0,0.0,0.0,0.0,0.0,0.0,0.0,0.0,0.0,0.0,0.0,0.0,0.0,0.0,0.0,0.0,0.0,0.0,0.0,0.0,0.0,0.0,0.0,0.0,0.0,0.0,0.0,0.0,0.0,0.0,0.0,0.0,0.0,0.0,0.0,0.0,0.0,3.6299,4.3958,4.908,4.9218,4.9407,4.9527,4.9527,4.8104,4.4025,0.0,0.0,0.0,0.0,0.0,0.0,0.0,0.0,0.0,0.0,0.0,0.0,0.0,0.0,0.0,0.0,0.0,0.0,0.0,0.0,0.0,0.0,0.0,0.0,0.0,0.0,0.0,0.0,0.0,0.0,0.0,0.0,0.0,0.0,0.0,0.0,0.0,0.0,0.0,0.0,0.0,0.0,0.0,0.0,0.0,0.0,0.0,0.0,0.0,0.0,0.0,0.0,0.0,0.0,0.0,0.0,0.0,0.0,0.0,0.0,0.0,0.0,0.0,0.0,0.0,0.0,0.0,0.0,0.0,0.0,0.0,0.0,0.0,0.0,0.0,0.0,0.0,0.0,0.0,0.0,0.0,0.0,0.0,0.0,0.0,0.0,0.0,0.0,0.0,0.0,0.0,0.0,0.0,0.0,0.0,0.0,0.0,0.0,0.0,0.0,0.0,0.0,0.0,3.7228,4.5111,5.0511,5.0969,5.1261,5.1134,5.0556,4.8986,4.4679,3.6717,0.0,0.0,0.0,0.0,0.0,0.0,0.0,0.0,0.0,0.0,0.0,0.0,0.0,0.0,0.0,0.0,0.0,0.0,0.0,0.0,0.0,0.0,0.0,0.0,0.0,0.0,0.0,0.0,0.0,0.0,0.0,0.0,0.0,0.0,0.0,0.0,0.0,0.0,0.0,0.0,0.0,0.0,0.0,0.0,0.0,0.0,0.0,0.0,0.0,0.0,0.0,0.0,0.0,0.0,0.0,0.0,0.0,0.0,0.0,0.0,0.0,0.0,0.0,0.0,0.0,0.0,0.0,0.0,0.0,0.0,0.0,0.0,0.0,0.0,0.0,0.0,0.0,0.0,0.0,0.0,0.0,0.0,0.0,0.0,0.0,0.0,0.0,0.0,0.0,0.0,0.0,0.0,0.0,0.0,0.0,0.0,0.0,0.0,0.0,0.0,0.0,0.0,3.8167,4.6076,5.1478,5.1831,5.2066,5.1855,5.1049,4.949,4.5691,3.9003,0.0,0.0,0.0,0.0,0.0,0.0,0.0,0.0,0.0,0.0,0.0,0.0,0.0,0.0,0.0,0.0,0.0,0.0,0.0,0.0,0.0,0.0,0.0,0.0,0.0,0.0,0.0,0.0,0.0,0.0,0.0,0.0,0.0,0.0,0.0,0.0,0.0,0.0,0.0,0.0,0.0,0.0,0.0,0.0,0.0,0.0,0.0,0.0,0.0,0.0,0.0,0.0,0.0,0.0,0.0,0.0,0.0,0.0,0.0,0.0,0.0,0.0,0.0,0.0,0.0,0.0,0.0,0.0,0.0,0.0,0.0,0.0,0.0,0.0,0.0,0.0,0.0,0.0,0.0,0.0,0.0,0.0,0.0,0.0,0.0,0.0,0.0,0.0,0.0,0.0,0.0,0.0,0.0,0.0,0.0,0.0,0.0,0.0,0.0,0.0,0.0,0.0,3.9222,4.6954,5.215,5.2218,5.2326,5.2099,5.1375,4.9773,4.69,4.2358,0.0,0.0,0.0,0.0,0.0,0.0,0.0,0.0,0.0,0.0,0.0,0.0,0.0,0.0,0.0,0.0,0.0,0.0,0.0,0.0,0.0,0.0,0.0,0.0,0.0,0.0,0.0,0.0,0.0,0.0,0.0,0.0,0.0,0.0,0.0,0.0,0.0,0.0,0.0,0.0,0.0,0.0,0.0,0.0,0.0,0.0,0.0,0.0,0.0,0.0,0.0,0.0,0.0,0.0,0.0,0.0,0.0,0.0,0.0,0.0,2.377,1.9858,0.0,0.0,0.0,0.0,0.0,0.0,0.0,0.0,0.0,0.0,0.0,0.0,0.0,0.0,0.0,0.0,0.0,0.0,0.0,0.0,0.0,0.0,0.0,0.0,0.0,0.0,0.0,0.0,0.0,0.0,0.0,0.0,0.0,0.0,0.0,0.0,0.0,0.0,0.0,0.0,4.0904,4.8215,5.3336,5.3888,5.398,5.3728,5.2969,5.053,4.7196,4.2845,3.8648,0.0,0.0,0.0,0.0,0.0,0.0,0.0,0.0,0.0,0.0,0.0,0.0,0.0,0.0,0.0,0.0,0.0,0.0,0.0,0.0,0.0,0.0,0.0,0.0,0.0,0.0,0.0,0.0,0.0,0.0,0.0,0.0,0.0,0.0,0.0,0.0,0.0,0.0,0.0,0.0,0.0,0.0,0.0,0.0,0.0,0.0,0.0,0.0,0.0,0.0,0.0,0.0,0.0,0.0,0.0,0.0,0.0,0.0,0.0,2.9005,2.593,0.0,0.0,0.0,0.0,0.0,0.0,0.0,0.0,0.0,0.0,0.0,0.0,0.0,0.0,0.0,0.0,0.0,0.0,0.0,0.0,0.0,0.0,0.0,0.0,0.0,0.0,0.0,0.0,0.0,0.0,0.0,0.0,0.0,0.0,0.0,0.0,0.0,0.0,0.0,0.0,4.2515,4.9697,5.4699,5.5243,5.4995,5.4415,5.3484,5.1381,4.9001,4.6357,4.1735,0.0,0.0,0.0,0.0,0.0,0.0,0.0,0.0,0.0,0.0,0.0,0.0,0.0,0.0,0.0,0.0,0.0,0.0,0.0,0.0,0.0,0.0,0.0,0.0,0.0,0.0,0.0,0.0,0.0,0.0,0.0,0.0,0.0,0.0,0.0,0.0,0.0,0.0,0.0,0.0,0.0,0.0,0.0,0.0,0.0,0.0,0.0,0.0,0.0,0.0,0.0,0.0,0.0,3.6801,3.6164,3.6596,3.6761,3.7721,3.9032,3.5477,3.3668,3.293,2.8835,0.0,0.0,0.0,0.0,0.0,0.0,0.0,0.0,0.0,0.0,0.0,0.0,0.0,0.0,0.0,0.0,0.0,0.0,0.0,0.0,0.0,0.0,0.0,0.0,4.2742,4.3794,0.0,0.0,0.0,0.0,0.0,0.0,0.0,0.0,0.0,0.0,0.0,0.0,4.4731,5.1302,5.5726,5.6048,5.5553,5.4754,5.3687,5.2192,5.0969,5.0169,4.5146,4.1339,0.0,0.0,0.0,0.0,0.0,0.0,0.0,0.0,0.0,0.0,0.0,0.0,0.0,0.0,0.0,0.0,0.0,0.0,0.0,0.0,0.0,0.0,0.0,0.0,0.0,0.0,0.0,0.0,0.0,0.0,0.0,0.0,2.784,2.6253,0.0,0.0,0.0,0.0,0.0,0.0,0.0,0.0,0.0,0.0,0.0,0.0,0.0,2.9309,3.4429,3.7828,3.8183,3.5583,4.2115,4.4981,4.4514,4.5396,4.5944,4.6117,4.5153,0.0,3.3319,3.2741,0.0,0.0,0.0,0.0,0.0,0.0,0.0,0.0,0.0,0.0,0.0,0.0,0.0,0.0,0.0,0.0,0.0,0.0,0.0,0.0,0.0,0.0,4.0786,4.4313,4.5555,4.5938,0.0,4.1405,3.6457,3.2965,3.2303,0.0,0.0,0.0,0.0,0.0,0.0,0.0,4.8838,5.3157,5.5635,5.5659,5.5582,5.5193,5.4414,5.2724,5.1405,5.0642,4.8385,4.5263,4.1216,3.9491,0.0,0.0,0.0,0.0,0.0,0.0,0.0,0.0,0.0,0.0,0.0,0.0,0.0,0.0,0.0,0.0,0.0,0.0,0.0,0.0,0.0,0.0,0.0,0.0,0.0,0.0,0.0,0.0,0.0,2.621,2.8542,2.719,2.7178,2.5947,0.0,0.0,0.0,0.0,0.0,0.0,0.0,0.0,0.0,3.5988,3.5735,3.7426,4.1372,4.4104,4.4994,4.4119,4.7674,4.9351,4.9364,4.9514,4.9458,4.918,4.9247,4.715,4.3537,4.0845,3.538,2.8181,0.0,0.0,0.0,0.0,2.7486,2.8507,2.9829,3.3713,3.8073,3.8073,0.0,0.0,0.0,0.0,0.0,0.0,0.0,0.0,0.0,0.0,4.2484,4.6039,4.6934,4.6947,4.6826,4.4961,4.2324,0.0,3.7462,3.5135,3.0026,0.0,0.0,0.0,0.0,4.6131,5.076,5.4219,5.6311,5.6517,5.6196,5.5702,5.5156,5.3992,5.3003,5.2247,5.0712,4.8794,4.6446,4.2599,3.8583,0.0,0.0,0.0,0.0,0.0,0.0,0.0,0.0,0.0,0.0,0.0,0.0,0.0,0.0,0.0,0.0,0.0,0.0,0.0,0.0,0.0,0.0,0.0,0.0,0.0,0.0,0.0,0.0,2.7848,2.9957,2.8281,2.972,2.8973,0.0,0.0,0.0,0.0,0.0,0.0,3.2929,3.5241,3.8193,4.1811,4.3347,4.5217,4.7514,4.9289,5.0605,5.1446,5.1522,5.1802,5.2217,5.1865,5.1698,5.1641,5.2148,5.2515,5.2426,4.7779,4.3167,3.8419,3.1674,2.8452,2.8507,3.5882,3.9647,4.106,4.0637,4.0479,4.0401,4.0401,4.0224,3.995,3.995,0.0,0.0,0.0,0.0,3.5246,3.9041,4.1528,4.3894,4.7073,4.7843,4.7695,4.7229,4.7405,4.6673,0.0,4.2226,4.0028,3.4399,0.0,0.0,0.0,4.4161,4.9473,5.3419,5.5866,5.7238,5.7143,5.6814,5.6258,5.5397,5.5005,5.4382,5.3418,5.2218,5.1116,5.0121,4.5521,4.2045,4.0022,0.0,0.0,0.0,0.0,0.0,0.0,0.0,0.0,0.0,0.0,0.0,0.0,0.0,0.0,0.0,0.0,0.0,0.0,0.0,0.0,0.0,0.0,0.0,0.0,0.0,0.0,0.0,0.0,0.0,3.0917,3.3617,0.0,0.0,0.0,0.0,3.1838,3.4059,3.6103,3.7928,4.1444,4.4279,4.6202,4.8927,5.0506,5.0857,5.2536,5.2976,5.2139,5.2463,5.2701,5.2845,5.3016,5.3672,5.4702,5.5225,5.5471,5.5176,5.0989,4.9081,4.8764,4.8279,4.6223,4.4094,4.9338,5.2257,5.3394,5.1909,5.1245,5.1013,5.1013,5.0241,4.9332,4.9332,4.5932,0.0,0.0,4.1559,4.0237,4.3306,4.4518,4.5588,4.8133,4.8444,4.8336,4.9014,4.8278,4.7037,0.0,4.6303,4.5943,4.1621,0.0,4.4269,4.7556,4.8623,5.1465,5.827,5.8932,5.8263,5.6894,5.7315,5.6865,5.474,5.517,5.4862,5.3308,5.253,5.1459,4.9889,4.8203,4.566,4.2222,3.9115,0.0,0.0,0.0,0.0,0.0,0.0,0.0,0.0,0.0,0.0,0.0,0.0,0.0,0.0,0.0,0.0,0.0,0.0,0.0,0.0,0.0,0.0,0.0,0.0,0.0,0.0,0.0,0.0,3.498,3.6514,0.0,3.2132,3.3678,3.4995,3.5154,3.879,4.143,4.2418,4.4929,4.7079,4.8666,5.0256,5.1496,5.237,5.3452,5.3341,5.2072,5.2498,5.2563,5.2314,5.2043,5.245,5.3337,5.309,5.3194,5.3396,5.1999,5.195,5.2704,5.2704,5.1997,5.1112,5.2272,5.3479,5.4348,5.3134,5.3072,5.3537,5.3537,5.2566,5.0842,4.7718,4.6002,4.5035,4.4803,4.4705,4.4902,4.5987,4.7015,4.803,4.8918,4.8774,4.8395,4.8092,4.8121,4.7877,4.6746,4.6693,4.5895,4.2872,4.5359,4.7649,4.7393,5.0492,5.3888,5.6798,5.7618,5.7508,5.6316,5.6614,5.6141,5.432,5.4408,5.3922,5.2455,5.3105,5.308,5.2037,4.9683,4.783,4.6582,4.2749,3.8204,0.0,0.0,0.0,0.0,0.0,0.0,0.0,0.0,0.0,0.0,0.0,0.0,0.0,0.0,0.0,0.0,0.0,0.0,0.0,0.0,0.0,0.0,0.0,0.0,0.0,3.3973,3.6811,3.6329,3.8496,3.8693,3.5161,3.7581,3.9491,3.9702,4.3047,4.543,4.6141,4.7826,4.9236,5.0265,5.119,5.214,5.312,5.3665,5.3693,5.3219,5.3059,5.2881,5.2615,5.2208,5.2475,5.3273,5.2698,5.2822,5.3386,5.2961,5.3356,5.4209,5.3991,5.4373,5.4836,5.3448,5.4047,5.5383,5.4555,5.4338,5.4388,5.4324,5.3549,5.193,4.8243,4.7466,4.7654,4.6561,4.6998,4.7693,4.745,4.823,4.9132,4.9356,4.9216,4.8891,4.829,4.8528,4.8663,4.8022,4.7676,4.7001,4.5507,4.8301,5.0316,4.9174,5.2519,5.5447,5.6192,5.7068,5.7179,5.6027,5.6335,5.5986,5.443,5.3703,5.2986,5.2176,5.2108,5.2051,5.196,4.8985,4.7374,4.7463,4.4143,3.9438,3.3384,0.0,0.0,0.0,0.0,0.0,0.0,0.0,0.0,0.0,0.0,0.0,0.0,0.0,0.0,0.0,0.0,0.0,0.0,0.0,0.0,0.0,0.0,0.0,3.1259,3.5629,3.7879,3.5084,3.9724,4.212,3.9425,4.1501,4.3741,4.5498,4.6696,4.7851,4.906,5.026,5.0971,5.1077,5.2097,5.2804,5.3205,5.3337,5.4103,5.5504,5.4199,5.37,5.3855,5.3688,5.4052,5.4819,5.4431,5.4724,5.541,5.3921,5.345,5.3608,5.3014,5.407,5.564,5.3551,5.4736,5.7283,5.6844,5.5587,5.411,5.3921,5.3612,5.3063,5.1733,5.1071,5.0491,4.9084,4.8672,4.8537,4.7873,4.8163,4.8798,4.9444,4.9765,4.9871,4.9871,4.9579,4.9318,4.9318,4.9516,4.9717,4.9885,5.1042,5.2352,5.3503,5.4845,0.0,5.6935,5.7628,5.7499,5.5976,5.6465,5.6287,5.4884,5.3028,5.2083,5.2525,4.9591,4.8337,4.9506,4.6252,4.4488,4.4629,4.3202,4.0024,3.5077,0.0,0.0,0.0,0.0,0.0,0.0,0.0,0.0,0.0,0.0,0.0,0.0,0.0,0.0,0.0,0.0,0.0,0.0,0.0,0.0,0.0,3.2711,3.5974,3.667,3.9419,4.1641,4.2478,4.3661,4.4001,4.3014,4.4722,4.5926,4.6113,4.7753,4.888,4.9169,5.0288,5.0914,5.0954,5.231,5.3083,5.3196,5.3231,5.3449,5.3879,5.3489,5.3332,5.3393,5.332,5.3441,5.3651,5.335,5.3475,5.3826,5.3356,5.293,5.2607,5.2586,5.3062,5.3682,5.3095,5.3402,5.418,5.4198,5.3766,5.3169,5.2626,5.1978,5.1526,5.191,5.1393,5.0583,5.0286,5.0475,5.0624,4.9949,4.967,4.9594,4.9787,4.9629,4.9456,4.9456,4.9367,4.9426,4.9871,5.0397,5.063,5.0178,5.1615,5.296,5.3308,5.4467,0.0,5.5694,5.6467,5.6222,5.4167,5.3899,5.343,5.2306,5.0866,5.0473,5.1528,5.0908,5.0688,5.0994,4.8745,4.6732,4.5132,4.3155,4.0908,0.0,0.0,0.0,0.0,0.0,0.0,0.0,0.0,0.0,0.0,0.0,0.0,0.0,0.0,0.0,0.0,0.0,0.0,0.0,0.0,0.0,0.0,3.6234,3.9512,4.1279,4.239,4.3498,4.4797,4.5333,4.5542,4.5352,4.6761,4.7604,4.7413,4.8615,4.9595,5.0002,5.0845,5.1446,5.1846,5.2725,5.3336,5.3635,5.3635,5.3755,5.4024,5.4024,5.4024,5.4024,5.4024,5.4024,5.4012,5.3582,5.3475,5.36,5.3158,5.2839,0.0,0.0,0.0,0.0,0.0,5.3701,5.3612,5.39,5.3814,5.3518,5.3124,5.2314,5.1667,5.2584,5.2284,5.1581,5.1103,5.1183,5.1208,5.031,5.0028,5.0016,5.0016,5.0076,5.0103,5.0103,5.0103,5.0212,5.0548,5.1397,0.0,5.1517,5.2665,5.3635,5.3635,5.4533,5.5102,5.482,5.5507,5.5504,5.4176,5.3851,5.3395,5.2522,5.075,0.0,0.0,0.0,4.9533,4.8995,4.7352,0.0,0.0,0.0,0.0,0.0,0.0,0.0,0.0,3.8756,3.8308,0.0,0.0,0.0,0.0,0.0,0.0,0.0,0.0,0.0,0.0,0.0,0.0,0.0,0.0,0.0,0.0,3.9523,4.2554,4.4857,4.4693,4.4337,4.4246,4.575,4.6816,4.6904,4.8031,4.8903,4.9157,4.9554,5.0295,5.1373,5.1828,0.0,0.0,0.0,5.3725,5.4311,5.4299,5.461,5.5192,5.5192,5.5192,5.5192,5.5192,5.5192,5.5162,5.4581,5.4299,5.4256,5.3394,5.3205,5.3397,5.3183,5.3154,5.3341,5.4486,5.4686,5.4401,5.4811,0.0,0.0,5.4282,5.3465,5.2658,5.3272,5.3338,5.2947,5.1756,5.1427,5.1169,4.9935,4.9972,5.0327,5.0327,5.0757,5.1206,5.1206,5.1206,5.1206,5.1206,5.2276,5.3198,5.3198,5.3803,5.4299,5.4299,5.482,5.497,5.4401,5.482,5.5132,5.4982,0.0,0.0,5.4132,5.1774,5.0656,5.1487,4.9153,4.713,4.5823,4.4655,4.4346,4.4954,4.4466,4.5373,4.7747,4.8338,4.8736,4.8725,4.2043,4.0487,0.0,0.0,0.0,0.0,0.0,0.0,0.0,0.0,0.0,0.0,0.0,0.0,0.0,0.0,0.0,3.8169,4.1489,4.4331,4.6052,4.6377,4.6407,4.6397,4.7341,4.8175,4.8734,4.9447,5.0133,5.0699,5.1321,5.2001,5.2755,5.3394,5.3831,5.4012,5.4521,5.4892,5.5012,5.4999,5.5059,5.5192,0.0,0.0,5.5192,5.5192,5.5192,5.5192,5.5059,5.4999,5.4999,5.48,5.4782,5.4695,5.3602,5.3188,5.3259,5.3732,5.369,5.3478,5.3772,5.3687,5.3349,5.2806,5.2484,5.2288,5.2438,5.2803,0.0,5.2887,5.2797,5.2618,5.1828,5.1307,5.0996,5.0996,5.1128,5.1206,5.1206,5.1206,5.1206,5.1206,5.2276,5.3198,5.3198,5.4204,5.4999,5.4999,5.5132,5.5162,5.5029,5.5119,5.4803,5.3695,5.3097,5.2935,5.3366,5.1935,5.1744,5.3521,5.1636,4.9883,4.8588,4.8734,4.8921,4.9071,4.946,4.9931,5.044,5.0589,5.0652,5.0655,4.817,4.7429,0.0,0.0,0.0,0.0,0.0,0.0,0.0,0.0,0.0,0.0,0.0,3.109,3.3383,0.0,3.923,4.1664,4.3968,4.6002,4.7544,4.7856,4.7934,4.7934,4.8719,4.9512,5.0193,5.0828,5.1487,5.2157,5.2516,5.3007,5.3653,5.4012,5.4359,5.47,5.5042,5.5192,5.5192,5.5192,5.5192,5.5192,5.5192,5.5192,5.5192,5.5192,5.5192,5.5192,5.5192,5.5192,5.5192,5.5192,5.5192,5.5132,5.4473,5.3994,5.3677,5.347,5.3536,5.3677,5.3482,5.3745,5.4084,5.3414,5.3414,5.3683,5.3683,5.3935,5.4114,5.3773,5.3456,5.3037,5.2366,5.1696,5.1206,5.1206,5.1206,5.1206,5.1206,5.1206,5.1307,5.1636,5.2516,5.3306,5.3623,5.4251,5.482,5.5162,5.5192,5.5192,5.5192,5.5192,5.4952,5.4264,5.3905,5.3683,5.3683,5.2785,5.2636,5.3623,5.2456,5.1409,5.0774,5.0709,5.0877,5.1176,5.1517,5.1887,5.2187,5.2187,5.2037,5.1696,5.139,5.0945,0.0,0.0,0.0,0.0,0.0,0.0,0.0,2.7833,2.9,3.2744,3.4472,3.5916,3.78,4.0178,4.2614,4.4885,4.6277,4.7544,4.8949,4.9161,4.925,4.95,5.0055,5.0656,5.1337,5.2007,5.2677,5.3336,5.3396,5.3695,5.4371,5.4389,5.464,5.5179,5.5192,5.5192,5.5192,5.5192,5.5119,5.4999,5.5132,5.5119,5.4999,5.5132,5.5192,5.5192,5.5192,5.5192,5.5192,5.5192,5.5192,5.5192,5.5192,5.488,5.4341,5.3785,5.3935,5.4311,5.3785,5.4294,5.5089,5.4581,5.476,5.5192,5.5192,5.5192,5.5102,5.4551,5.3803,5.3079,5.2516,5.1786,5.1206,5.1206,5.1206,5.1206,5.1206,5.1206,5.1397,5.2067,5.2737,5.3396,5.4089,5.4299,5.4538,5.494,5.5012,5.5012,5.5012,5.5119,5.5192,5.5192,5.5192,5.497,5.4431,5.3905,5.3516,5.3396,5.2875,5.2546,5.2396,5.1995,5.2025,5.2576,5.2725,5.2965,5.3396,5.3396,5.3126,5.2606,5.3156,5.2677,2.6979,2.7091,2.8116,2.7833,2.9018,3.1358,0.0,3.5095,3.4864,3.8447,3.9311,3.9929,4.1516,4.3309,4.4925,4.5998,4.7546,4.8978,4.9929,5.0053,5.0513,5.1702,5.1385,5.1367,5.2037,5.2695,5.3366,5.4042,5.4089,5.4371,5.5029,5.5102,5.5119,5.5192,5.5192,5.5192,5.5192,5.5192,5.491,5.4329,5.4922,5.488,5.4329,5.491,5.5192,5.5192,5.5192,5.5192,5.5192,5.5192,5.5192,5.5192,5.5192,5.5162,5.5072,5.5012,5.5012,5.5072,5.5012,5.5072,5.5192,5.5089,5.5132,5.5192,5.5192,5.5192,5.5179,5.5089,5.4174,5.3186,5.3097,5.2157,5.1206,5.1206,5.1206,5.1206,5.1206,5.1206,5.1397,5.2067,5.2737,5.3396,5.4089,5.47,5.491,5.4401,5.4299,5.4299,5.4299,5.482,5.5192,5.5192,5.5192,5.5162,5.5089,5.5012,5.473,5.4132,5.4012,5.3713,5.3097,5.3593,5.391,5.397,5.4551,5.461,5.4089,5.4089,5.4059,5.397,5.4059,5.3384,3.4088,3.3386,3.2773,3.3456,3.4451,3.5818,3.791,3.7987,3.8642,4.205,4.3483,4.4319,4.4958,4.6422,4.7749,4.8462,4.9182,5.0055,5.1206,5.1367,5.1738,5.2677,5.2875,5.3042,5.3341,5.3623,5.4072,5.473,5.479,5.491,5.5192,5.5192,5.5192,5.5192,5.5192,5.4999,5.461,5.461,5.4281,5.3635,5.3905,5.3875,5.3623,5.4311,5.482,5.5192,5.5192,5.5192,5.5192,5.5192,5.5192,5.5192,5.5192,5.5192,5.5192,5.5192,5.5192,5.5192,5.5192,5.5192,5.5192,5.5192,5.5078,5.5006,5.5141,5.5108,5.5006,5.5141,5.4234,5.3198,5.3198,5.2217,5.1206,5.1206,5.1487,5.1786,5.1786,5.1977,5.2395,5.3197,5.347,5.3821,5.4645,5.47,5.4521,5.4239,5.4209,5.4209,5.4209,5.4448,5.476,5.5162,5.5192,5.5192,5.5192,5.5192,5.5072,5.479,5.479,5.4653,5.4384,5.461,5.479,5.479,5.5059,5.5059,5.479,5.479,5.4581,5.4209,5.4209,5.3683,3.679,3.6643,3.6358,3.7472,3.8857,4.0003,4.0275,4.0646,4.1783,4.4729,4.6221,4.7124,4.7546,4.8686,4.9673,5.0117,5.0506,5.1086,5.2067,5.2366,5.2725,5.3396,5.3892,5.4269,5.4461,5.4491,5.467,5.5162,5.5192,5.5192,5.5192,5.5192,5.5192,5.5192,5.5192,5.488,5.4209,5.4209,5.3773,5.2917,5.3097,5.3097,5.2947,5.3803,5.4461,5.491,5.491,5.4832,5.4653,5.4653,5.4653,5.4653,5.4653,5.4653,5.4653,5.4653,5.4892,5.5192,5.5192,5.5192,5.5192,5.5192,5.5053,5.4955,5.5128,5.5053,5.4955,5.5158,5.4384,5.3426,5.3258,5.2498,5.1696,5.1517,5.2007,5.2498,5.2498,5.2849,5.3389,5.4052,5.4341,5.4678,5.5376,5.5209,5.4999,5.4999,5.47,5.4418,5.4209,5.4209,5.4461,5.5132,5.4862,5.4803,5.5162,5.5042,5.4999,5.5192,5.5192,5.5192,5.5192,5.5192,5.5192,5.5192,5.5192,5.5089,5.491,5.491,5.467,5.4209,5.403,5.3737,3.1656,3.4037,3.7025,3.8115,4.1119,4.3869,4.4105,4.4147,4.4696,4.6558,4.6983,4.7476,4.8962,4.9751,5.0177,5.0207,5.1307,5.2157,5.2187,5.2767,5.3426,5.4089,5.4179,5.4461,5.5089,5.5162,5.5192,5.5192,5.5192,5.5192,5.5192,5.5192,5.5192,5.5192,5.5192,5.488,5.4209,5.4209,5.3521,5.2247,5.2887,5.2857,5.2276,5.3581,5.4209,5.4239,5.4239,5.3862,5.3258,5.3258,5.3258,5.3258,5.3258,5.3258,5.3258,5.3258,5.4084,5.5192,5.5192,5.5192,5.5192,5.5192,5.5179,5.5179,5.5192,5.5179,5.5179,5.5192,5.47,5.4012,5.3366,5.3156,5.2977,5.2306,5.2677,5.3156,5.3156,5.3683,5.4179,5.4179,5.5239,5.6149,5.6162,5.6628,5.7004,5.7004,5.597,5.494,5.4269,5.4209,5.4461,5.5132,5.4024,5.3785,5.5102,5.461,5.4521,5.5162,5.5192,5.5192,5.5192,5.5192,5.5192,5.5192,5.5192,5.488,5.4239,5.4239,5.4209,5.4197,5.36,5.3482,3.5693,3.7758,3.9852,4.1807,4.341,4.4632,4.528,4.5777,4.6415,4.7623,4.7221,4.6825,4.7354,4.8325,4.908,4.908,5.1226,5.3037,5.3473,5.3713,5.4102,5.479,5.485,5.479,5.4551,5.4551,5.4551,5.4551,5.4102,5.4084,5.4521,5.4551,5.473,5.5192,5.5641,5.5551,5.488,5.485,5.4401,5.3533,5.2845,5.2438,5.2217,5.2665,5.3354,5.4209,5.467,5.473,5.4563,5.5025,5.4935,5.4533,5.4533,5.4533,5.4533,5.4533,5.4803,5.5072,5.4174,5.4174,5.4551,5.4551,5.4724,5.4981,5.5158,5.5095,5.5019,5.5355,5.5305,5.4975,5.4313,5.4267,5.4183,5.3327,5.3639,5.4133,5.4133,5.4868,5.5452,5.5178,5.5859,5.6374,5.6116,5.6455,5.6698,5.6547,5.576,5.497,5.4299,5.4209,5.4461,5.5132,5.4401,5.4221,5.5119,5.4581,5.4491,5.5162,5.5192,5.5192,5.5192,5.5192,5.5192,5.5192,5.5192,5.5102,5.485,5.485,5.464,5.4197,5.3801,5.3367,3.8729,4.0357,4.1755,4.417,4.5245,4.5911,4.6523,4.7191,4.7941,4.879,4.7333,4.606,4.6472,4.6545,4.6659,4.7045,4.9357,5.1574,5.2909,5.3309,5.39,5.5051,5.5192,5.494,5.4281,5.3982,5.3832,5.3832,5.3456,5.3396,5.3832,5.4072,5.4521,5.5192,5.5863,5.5983,5.5551,5.5311,5.461,5.3461,5.2845,5.2558,5.2558,5.2815,5.3533,5.4581,5.4999,5.5192,5.5222,5.5671,5.5581,5.5192,5.5192,5.5192,5.5192,5.5192,5.5192,5.5072,5.4204,5.4204,5.4551,5.4551,5.4737,5.5006,5.5255,5.5397,5.5538,5.598,5.6257,5.6257,5.535,5.5413,5.5438,5.4346,5.4612,5.5096,5.5096,5.5804,5.6314,5.5827,5.6456,5.69,5.6409,5.6675,5.6796,5.6402,5.6064,5.5568,5.467,5.4551,5.482,5.5491,5.497,5.491,5.5807,5.5281,5.5102,5.5521,5.5551,5.5461,5.5222,5.5192,5.5192,5.5192,5.5192,5.5089,5.485,5.4732,5.4423,5.388,5.3398,5.2851,4.0384,4.1734,4.2851,4.5151,4.6694,4.7747,4.7919,4.848,4.9161,4.9816,4.7179,4.5056,4.5968,4.4447,4.338,4.4379,4.633,4.8543,5.0976,5.186,5.2988,5.4933,5.5192,5.491,5.4179,5.3545,5.3156,5.3097,5.3097,5.3097,5.3169,5.3743,5.4431,5.5132,5.5803,5.6162,5.6192,5.5581,5.4294,5.2366,5.2977,5.3246,5.3288,5.3862,5.4521,5.5192,5.5251,5.5281,5.5311,5.5329,5.5341,5.5311,5.5311,5.5311,5.5311,5.5311,5.5311,5.5311,5.5311,5.5281,5.5251,5.5264,5.5294,5.5387,5.5621,5.6174,5.6738,5.6986,5.7547,5.776,5.6453,5.6568,5.6707,5.5469,5.5554,5.5954,5.6046,5.652,5.6763,5.6168,5.7054,5.7696,5.7072,5.7267,5.7299,5.6692,5.6882,5.6611,5.5371,5.5251,5.5521,5.6102,5.5581,5.57,5.6958,5.6479,5.6162,5.6252,5.6222,5.5923,5.5281,5.5222,5.5192,5.5192,5.5209,5.4855,5.4214,5.3995,5.3676,5.3314,5.25,5.2074,4.204,4.4415,4.6553,4.7162,4.8097,4.888,4.8936,4.9433,4.9191,4.6748,4.4458,4.2053,3.9242,4.1529,4.3778,4.3661,4.9016,5.3407,5.4065,5.4281,5.4408,5.4441,5.491,5.4551,5.2875,5.3007,5.2797,5.1786,5.1696,5.1947,5.2438,5.2606,5.3264,5.4431,5.5102,5.57,5.6192,5.6042,5.5444,5.4431,5.4102,5.3952,5.3922,5.3605,5.4084,5.5222,5.5743,5.6209,5.6645,5.7141,5.7064,5.6628,5.6628,5.6628,5.6628,5.6628,5.6628,5.6628,5.6628,5.6329,5.5991,5.6195,5.659,5.7032,5.7314,5.7511,5.7696,5.7963,5.8527,5.8863,5.8008,5.7443,5.7148,5.7473,5.6237,5.542,5.6735,5.7154,5.7233,5.7062,5.7456,5.7855,5.8003,5.7663,5.7188,5.6682,5.6658,5.6363,5.5337,5.603,5.6329,5.5551,5.5311,5.5521,5.6372,5.582,5.585,5.6808,5.6462,5.6132,5.5953,5.5461,5.5192,5.5192,5.5006,5.4815,5.4637,5.4569,5.4267,5.3737,5.3007,5.2338,4.4809,4.6667,4.8138,4.8436,4.9104,4.9283,4.7711,4.7847,4.7157,4.3052,4.0347,3.7954,3.5386,3.8423,4.14,4.1569,4.7547,5.2561,5.3684,5.3849,5.3934,5.4177,5.4538,5.4072,5.2366,5.2558,5.2336,5.1277,5.1206,5.1367,5.1726,5.2306,5.3114,5.4179,5.5132,5.582,5.6192,5.6462,5.6119,5.5192,5.5132,5.491,5.464,5.4264,5.4803,5.6047,5.6419,5.7137,5.8022,5.8367,5.8308,5.7992,5.7992,5.7992,5.7992,5.7992,5.7992,5.7975,5.8094,5.7497,5.6683,5.6959,5.7277,5.7687,5.8072,5.7902,5.7802,5.8736,5.8515,5.7994,5.8017,5.7133,5.6324,5.6525,5.5479,5.4848,5.6264,5.6803,5.7205,5.7897,5.8134,5.8306,5.8556,5.7884,5.736,5.74,5.7278,5.6992,5.635,5.6766,5.6838,5.6107,5.6555,5.7064,5.7436,5.7137,5.7094,5.75,5.6977,5.6519,5.6221,5.5574,5.5224,5.5224,5.5096,5.5004,5.5018,5.4323,5.3819,5.3464,5.2388,5.1479,4.7597,4.8368,4.8577,4.9247,4.9811,4.9292,4.5836,4.5309,4.4117,3.9143,3.5959,3.3787,3.2859,3.5352,3.803,3.9473,4.4615,4.9411,5.2133,5.2417,5.2811,5.3935,5.4072,5.3521,5.2187,5.2157,5.1905,5.1236,5.1265,5.1325,5.1325,5.2438,5.3426,5.4179,5.5401,5.6072,5.6072,5.6598,5.6359,5.5341,5.582,5.5803,5.5341,5.5251,5.591,5.7094,5.7094,5.7872,5.9099,5.9099,5.9099,5.9099,5.9099,5.9099,5.9099,5.9099,5.9099,5.914,5.9409,5.8632,5.753,5.763,5.7521,5.7455,5.7976,5.756,5.7252,5.8818,5.7728,5.6222,5.6999,5.6022,5.4757,5.4415,5.4132,5.4153,5.5113,5.5932,5.6914,5.852,5.8671,5.8646,5.8891,5.8044,5.7586,5.828,5.8121,5.7818,5.7548,5.7462,5.7356,5.7137,5.8231,5.8979,5.8979,5.8979,5.8729,5.8157,5.7606,5.7,5.6233,5.5537,5.5111,5.5029,5.488,5.4798,5.4796,5.3458,5.2789,5.2718,5.1281,5.0278,4.7779,4.8708,4.9277,4.989,5.0117,4.9411,4.6414,4.4658,4.1922,3.5709,3.3609,3.1966,2.8935,3.2771,3.7464,4.0679,4.5814,5.0618,5.4145,5.4195,5.3734,5.3401,5.3366,5.2857,5.1487,5.1876,5.1905,5.1236,5.1696,5.2037,5.2037,5.2247,5.2935,5.4149,5.497,5.5371,5.5371,5.5491,5.57,5.6013,5.5581,5.5611,5.6013,5.5461,5.591,5.7094,5.7094,0.0,5.9099,5.9099,5.9099,5.9099,5.9099,5.9099,5.9099,5.9099,5.9099,5.914,5.9409,5.9312,5.8969,5.8253,5.7146,5.615,5.6488,5.6263,5.6008,5.6321,5.5923,5.5404,5.5551,5.429,5.3325,5.4692,5.3673,5.276,5.4121,5.5343,5.6722,5.8529,5.8067,5.7869,5.9364,5.819,5.7385,5.8283,5.7888,5.7396,5.7132,5.8265,5.8574,5.724,5.7799,5.8264,5.8264,5.8264,5.8256,5.8197,5.8035,5.745,5.6338,5.5054,5.4172,5.3655,5.2664,5.216,5.216,5.221,5.1959,5.1412,5.0858,5.0389,4.8239,4.8857,4.9109,4.997,5.0207,4.8725,4.303,4.081,3.7884,3.0493,2.8751,2.8006,2.6316,3.0803,3.5572,3.794,4.4436,4.9907,5.1984,5.3689,5.4341,5.3318,5.3198,5.2677,5.1337,5.1487,5.1696,5.1738,5.2007,5.2187,5.2187,5.2875,5.3713,5.47,5.5029,5.5192,5.5192,5.5551,5.588,5.6192,5.5863,5.5893,5.6162,5.5491,5.573,5.6658,5.6958,5.7663,5.8607,5.8949,5.9099,5.9099,5.9099,5.9099,5.9113,5.9261,5.8811,5.8136,5.8409,5.7467,5.605,5.5561,5.6108,5.682,5.5936,5.5126,5.4614,5.5244,5.417,5.2981,5.3783,5.2763,5.1722,5.262,5.2377,5.2233,5.3295,5.4368,5.5477,5.6715,5.651,5.6482,5.7712,5.6896,5.6329,5.7129,5.7259,5.7042,5.6446,5.7909,5.8546,5.7423,5.7511,5.7913,5.855,5.8026,5.7789,5.8179,5.7564,5.66,5.5366,5.4524,5.3632,5.2647,5.2051,5.175,5.175,5.1246,5.0938,5.0826,5.0316,5.0095,4.8241,4.862,4.8586,4.9715,4.989,4.7696,3.9733,3.7124,3.4242,2.6404,2.4608,2.4558,2.4917,2.895,3.2959,3.512,4.1651,4.7191,4.9296,5.2114,5.3806,5.3252,5.3067,5.2528,5.1307,5.1337,5.1636,5.2157,5.2486,5.2636,5.2636,5.3773,5.467,5.5179,5.5192,5.5192,5.5192,5.573,5.5983,5.5983,5.5983,5.5983,5.5983,5.5431,5.5564,5.6222,5.6688,5.7274,5.7949,5.8607,5.8741,5.851,5.8463,5.8358,5.8221,5.8274,5.7551,5.6622,5.6918,5.5402,5.332,5.2929,5.4464,5.6237,5.4811,5.367,5.3086,5.4156,5.2662,5.1027,5.2233,5.1658,5.0755,5.0691,5.1216,5.194,5.2555,5.3283,5.4052,5.4839,5.4791,5.4952,5.6022,5.5552,5.531,5.6066,5.6495,5.635,5.5402,5.6437,5.7056,5.6417,5.6667,5.719,5.8023,5.7106,5.6594,5.6887,5.6246,5.5309,5.4072,5.3676,5.2872,5.1596,5.1476,5.1366,5.1278,5.0394,5.0148,5.0487,4.996,4.9928,4.6819,4.7709,4.7976,4.9104,4.8906,4.662,3.9524,3.6193,3.2775,2.6164,2.3981,2.373,2.5259,2.6821,2.9676,3.5141,3.758,4.1343,4.8598,4.9858,5.0816,5.2957,5.2677,5.2007,5.1265,5.1756,5.2127,5.2187,5.3324,5.4012,5.4012,5.47,5.5132,5.5192,5.5192,5.5192,5.5192,5.5251,5.5281,5.5281,5.5281,5.5281,5.5281,5.5222,5.5564,5.6192,5.6252,5.6628,0.0,5.7919,5.7541,5.6543,5.6491,5.5979,5.5196,5.4568,5.4477,5.4697,5.4979,5.4863,5.4377,5.2921,5.19,5.135,5.1648,5.1444,5.1266,5.1939,5.1708,5.1271,5.1395,5.1354,5.1178,5.0927,5.1122,5.1483,5.1988,5.2338,5.2933,5.4161,5.3507,5.3462,5.5807,5.5228,5.4863,5.6022,5.5722,5.4953,5.3754,5.3444,5.315,5.2658,5.4496,5.5497,5.4884,5.4396,5.3702,5.2731,5.385,5.4017,5.2834,5.2103,5.1252,5.0203,4.9765,4.9339,4.8918,4.9578,5.0003,5.0145,5.0072,5.0391,4.6893,4.7811,4.7769,4.8496,4.7166,4.4009,3.7708,3.3683,2.9763,2.4392,2.2691,2.2648,2.433,2.5285,2.7117,3.1126,3.4055,3.7246,4.1363,4.4699,4.7379,4.9146,5.0015,5.0593,5.0935,5.1703,5.2546,5.3341,5.4281,5.479,5.479,5.5029,5.5192,5.5192,5.5192,5.5192,5.5192,5.5192,5.5027,5.4667,5.4667,5.4667,5.4667,5.4667,5.4815,5.5095,5.5467,5.5171,0.0,5.5101,5.4854,5.4041,5.4207,5.4264,5.4242,5.4348,5.3927,5.329,5.3329,5.275,5.1834,5.1001,5.0618,5.0523,5.0735,5.1088,5.145,5.1479,5.1137,5.077,5.077,5.077,5.0728,5.0616,5.0676,5.0725,5.0583,5.063,5.0851,5.1372,5.1079,5.1199,5.2593,5.2757,5.2845,5.3259,5.3802,5.3708,5.2365,5.2724,5.2825,5.2117,5.3065,5.3646,5.3402,5.2833,5.2323,5.193,5.2114,5.1811,5.0897,5.0799,5.0371,4.9475,4.9271,4.9182,4.9211,4.9565,4.9848,5.0113,5.0503,5.0836,4.5727,4.7063,4.7433,4.7887,4.5787,4.2139,3.6486,3.2095,2.7899,2.325,2.187,2.1952,2.3469,2.4315,2.5645,2.8254,3.1173,3.4162,3.7203,4.1034,4.4307,4.6437,4.7725,4.8861,4.9945,5.1548,5.3054,5.4401,5.494,5.5192,5.5192,5.504,5.4938,5.4938,5.4938,5.4875,5.4709,5.4329,5.4094,5.4045,5.3306,5.3174,5.3518,5.3518,5.3306,5.3016,5.3838,5.3289,0.0,5.2477,5.228,5.161,5.199,5.2287,5.2524,5.2946,5.249,5.1627,5.1574,5.0869,4.9895,4.967,5.0092,5.067,5.067,5.1128,5.1647,5.1557,5.1122,5.0703,5.0854,5.0904,5.0854,5.0703,5.0779,5.0653,4.9791,4.9715,4.9791,4.9615,4.959,4.9815,5.0477,5.0984,5.1271,5.1174,5.2019,5.2174,5.0804,5.1544,5.1915,5.1144,5.1402,5.1605,5.1593,5.1133,5.0767,5.0527,5.0489,5.0216,4.9696,4.9936,4.9777,4.9096,4.9263,4.9425,4.959,4.9766,5.0015,5.0407,5.0883,5.1104,4.2623,4.4989,4.6719,4.719,4.5097,4.1561,3.6372,3.2095,2.7899,2.325,2.187,2.182,2.292,2.4031,2.5519,2.7745,2.9095,3.2066,3.8485,3.9874,4.1785,4.5911,4.6424,4.6923,4.8216,5.1263,5.3767,5.5102,5.5192,5.5192,5.5192,5.4641,5.4316,5.4316,5.4316,5.4045,5.3514,5.2268,5.2268,5.3461,5.1016,5.0464,5.1631,5.1631,5.0975,4.9906,5.1112,5.0947,0.0,5.0488,5.0226,4.9464,4.9961,4.9806,4.9337,4.9212,4.9364,4.9622,4.9622,4.9622,4.959,4.959,5.0385,5.1289,5.1289,5.1289,5.1414,5.195,5.1699,5.1414,5.195,5.2076,5.195,5.1414,5.1699,5.1624,4.9967,5.0017,5.0226,4.969,4.959,4.9815,5.0477,5.0604,5.0604,5.0614,5.0604,5.0177,4.8964,4.9286,4.9428,4.8875,4.9328,4.9431,4.8986,4.9048,4.8656,4.7617,4.8851,4.9597,4.9606,4.9606,4.9461,4.9121,4.9627,4.9791,4.959,5.0126,5.062,5.1088,5.1104,5.1104,3.9001,4.0363,4.0915,4.0334,3.7961,3.5048,3.228,2.8543,2.4915,2.229,2.1338,2.1281,2.2357,2.2859,2.4448,2.8599,2.9217,3.0817,3.5515,3.8452,4.111,4.3776,4.7651,5.0501,5.1555,5.2837,5.4047,5.5119,5.5192,5.5192,5.5192,5.4641,5.3938,5.3093,5.2653,5.1984,5.0975,5.0574,5.0352,5.0337,4.9552,4.9396,4.975,4.975,4.9552,4.9212,4.9594,4.884,4.7339,4.7549,4.7166,4.6511,4.7128,4.748,4.7764,4.8598,4.8974,4.9053,4.9053,4.9305,4.9556,4.9179,4.9807,5.077,5.1163,5.1565,5.1724,5.1105,5.082,5.0703,5.0879,5.1247,5.1414,5.082,5.1122,5.1172,4.9866,4.9741,4.9791,4.9615,4.959,4.967,4.9879,5.0286,5.0583,5.0482,5.0541,5.0426,4.9947,4.9715,4.9515,4.9364,4.9506,4.9389,4.8894,4.8869,4.8569,4.7817,4.8196,4.8611,4.9028,4.9053,4.9181,4.9445,4.9814,5.0105,5.027,5.0682,5.1054,5.1424,5.1424,5.1424,3.5253,3.7046,3.781,3.7063,3.453,3.1744,3.007,2.658,2.3193,2.1532,2.0943,2.0968,2.1852,2.2332,2.3838,2.7595,2.8263,2.9988,3.482,3.7606,4.0341,4.357,4.8038,5.1182,5.2039,5.3228,5.4196,5.4777,5.484,5.4756,5.4518,5.3519,5.2402,5.1194,5.125,5.0602,4.9169,4.867,4.8481,4.8592,4.7633,4.7427,4.7896,4.7896,4.7633,4.7191,4.7677,4.698,0.0,4.5495,4.5365,4.5242,4.5864,4.647,4.7099,4.8077,4.8451,4.8451,4.8451,4.8827,4.9229,4.8919,4.9531,5.0477,5.0845,5.1348,5.1548,5.0419,5.0117,5.0218,5.0645,5.1021,5.1264,5.1096,5.1172,5.1038,5.0092,4.9741,4.959,4.959,4.959,4.959,4.959,4.996,5.0189,5.0107,5.0187,5.0199,5.0116,4.9816,4.9665,4.9891,4.9715,4.9556,4.9414,4.9229,4.8853,4.8275,4.8435,4.8711,4.9079,4.9104,4.9318,4.9783,5.0001,5.0327,5.0804,5.1136,5.1393,5.1612,5.1387,5.1429,0.0,3.4269,3.621,3.5984,3.3503,3.069,2.9079,2.5741,0.0,2.1025,2.0673,2.0842,2.1475,2.2408,2.368,2.5636,2.6875,2.9806,3.6136,3.7803,4.028,4.5501,4.817,4.9848,5.0523,5.2773,5.4167,5.407,5.4171,5.3954,5.3284,5.1687,5.0211,4.8953,4.993,4.9633,4.7846,4.6649,4.6649,4.7802,4.5434,4.4924,4.606,4.606,4.5419,4.4378,4.5555,4.5388,4.43,4.4331,4.4702,4.5319,4.5862,4.6446,4.7068,4.7641,4.7842,4.7842,4.7842,4.825,4.8727,4.8793,4.9531,5.0402,5.0352,5.077,5.1013,4.9907,4.959,4.9841,5.0912,5.1214,5.1364,5.1825,5.1574,5.1071,5.0452,4.9967,4.959,4.959,4.959,4.959,4.959,4.959,4.959,4.959,4.959,4.959,4.959,4.959,4.9791,5.0277,4.9891,4.9791,5.0302,4.9891,4.938,4.8894,4.933,4.9606,4.9622,4.9606,4.9767,5.0145,5.0161,5.0487,5.1136,5.144,5.157,5.1518,5.1021,5.1037,2.5208,0.0,2.7775,2.68,2.6038,2.5242,0.0,2.3018,2.1812,2.1028,2.0386,2.0564,2.2383,2.2601,2.4014,2.8665,2.998,3.2516,3.8485,4.3056,4.7382,5.1667,5.2213,5.2533,5.3216,5.3839,5.3809,5.2889,5.3276,5.3317,5.2803,5.1514,5.0211,4.8953,4.7852,4.6619,4.5205,4.4908,4.4908,4.5175,4.4585,4.447,4.4755,4.4755,4.457,4.4316,4.4616,4.457,4.4316,4.4579,4.4779,4.4963,4.5606,4.5986,4.6213,4.7007,4.7274,4.7274,4.7274,4.7641,4.8184,4.8667,4.9531,5.0327,4.9916,5.0167,5.0469,4.9791,4.959,4.9665,4.9916,5.0293,5.0528,5.0268,5.0419,5.0469,4.9916,4.969,4.959,4.959,4.959,4.959,4.959,4.959,4.959,4.959,4.959,4.959,4.959,4.959,4.964,4.9766,4.9665,4.964,4.9766,4.9665,4.9556,4.943,4.9531,4.9703,4.996,4.9735,4.9879,5.0487,5.0725,5.1073,5.1471,5.1565,5.1387,5.0969,5.088,5.0618,2.2095,2.382,2.5566,2.4826,2.4499,2.4205,2.3575,2.2331,2.117,2.0599,2.033,2.0722,2.2425,2.3544,2.5293,2.8549,3.1564,3.553,4.134,4.5381,4.8991,5.2323,5.2692,5.2942,5.3651,5.3801,5.3421,5.2471,5.2497,5.2216,5.1349,5.0202,4.8965,4.7706,4.614,4.5,4.4316,4.43,4.43,4.43,4.43,4.43,4.43,4.43,4.43,4.43,4.43,4.4393,4.4532,4.4733,4.4979,4.53,4.5666,4.5893,4.6094,4.6561,4.6722,4.6722,4.6722,4.7239,4.8008,4.8601,4.9355,4.9992,4.969,4.9791,4.995,4.9665,4.9766,5.0042,5.0309,5.0594,5.0795,5.077,5.0569,5.0327,5.0026,4.9766,4.959,4.959,4.959,4.959,4.959,4.959,4.959,4.959,4.959,4.959,4.959,4.959,4.959,4.959,4.959,4.959,4.959,4.959,4.959,4.959,4.9735,4.9895,5.0097,5.0072,5.0311,5.082,5.1167,5.1408,5.1596,5.1596,5.1309,5.0801,5.0514,5.0211,2.1265,2.4102,2.6805,2.5672,2.5231,2.4962,2.4294,2.2539,2.0917,2.0397,2.0652,2.1407,2.2924,2.515,2.7119,2.8241,3.3283,3.9005,4.4562,4.6715,4.8741,5.1462,5.1937,5.2355,5.3146,5.3159,5.2792,5.205,5.1712,5.0999,4.9734,4.8658,4.7534,4.6366,4.5092,4.4468,4.4541,4.4372,4.4348,4.442,4.442,4.4468,4.4541,4.4541,4.4541,4.4541,0.0,0.0,4.4931,4.4977,4.5313,4.5802,4.5863,4.6044,4.6286,4.6286,4.6286,4.6286,4.6286,4.6988,4.7983,4.8501,4.9079,4.959,4.959,4.959,4.959,4.959,4.9941,5.0419,5.0912,5.1038,5.1163,5.1624,5.0996,5.0277,5.0277,4.9916,4.959,4.959,4.959,4.9631,4.9715,4.964,4.9631,4.9715,4.964,4.959,4.959,4.959,4.959,4.959,4.959,4.959,4.959,4.959,4.959,4.959,4.9895,5.0129,5.0152,5.0566,5.0842,5.1104,5.1424,5.1596,5.1596,5.1518,5.1204,5.0644,5.0069,4.9729,2.3193,2.6827,2.8899,2.3408,2.3157,2.3982,2.2806,2.2129,2.1723,2.164,2.1858,2.3118,2.6557,2.757,2.9101,3.2946,3.8258,4.3528,4.8107,4.9794,5.1758,5.5011,5.3506,5.2486,5.3296,5.2361,5.1311,5.0286,5.0618,5.0362,4.9185,4.8485,4.7715,4.6903,4.5628,4.5205,4.5638,4.4757,4.4517,4.4989,4.4989,4.5229,4.5638,4.5638,4.5638,4.5638,0.0,4.5587,4.5506,4.5786,4.5872,4.5833,4.6105,4.624,4.6286,4.6286,4.6286,4.6286,4.6286,4.6988,4.7933,4.8008,4.8736,4.959,4.959,4.959,4.959,4.959,4.9665,4.9741,4.9857,4.9866,4.9866,4.9967,4.9841,4.9715,4.9715,4.9665,4.959,4.959,4.959,4.9741,5.0201,4.9916,4.9741,5.0201,4.9891,4.959,4.959,4.959,4.959,4.959,4.959,4.959,4.959,4.959,4.959,4.959,4.9895,5.0216,5.0518,5.111,5.133,5.1104,5.1424,5.1596,5.1596,5.1126,5.0618,5.0002,4.9468,4.8945,2.2042,2.4923,2.7374,2.5924,2.8753,3.173,3.1139,3.0436,2.9254,2.6956,2.7061,2.7735,2.8419,3.0888,3.4977,4.1521,4.3042,4.4914,4.917,4.9614,5.0637,5.3574,5.2834,5.2281,5.2813,5.2033,5.1158,5.035,5.0247,4.983,4.8988,4.831,4.7475,4.6432,4.5835,4.5638,4.5902,4.5421,4.5301,4.5517,4.5708,4.5853,4.5918,4.6384,4.6344,4.5918,0.0,4.6503,4.6324,4.6685,4.688,4.6924,4.6802,4.6722,4.6712,4.6411,4.6486,4.6672,4.6411,4.6813,4.7516,4.7807,4.8476,4.9229,4.9515,4.959,4.959,4.959,4.9816,5.0026,5.0026,5.0026,5.0026,5.0026,4.9816,4.959,4.959,4.959,4.959,4.959,4.9841,5.0101,5.0352,5.0469,5.0594,5.0845,5.0393,5.0026,5.0026,4.9766,4.959,4.959,4.959,4.959,4.959,4.959,4.9751,5.0136,5.028,5.0588,5.1126,5.144,5.1534,5.1361,5.1518,5.1465,5.1167,5.0917,5.0357,4.9468,4.9206,4.8788,2.1701,2.391,2.6673,2.9494,3.3085,3.6391,3.8119,3.6949,3.4885,3.271,3.2992,3.3083,3.1277,3.4816,4.0305,4.7287,4.6417,4.6178,4.9985,4.9681,4.9851,5.2014,5.2274,5.2253,5.2218,5.1821,5.1376,5.0784,5.0161,4.9546,4.8919,4.8202,4.726,4.6118,4.6086,4.6158,4.6279,4.6279,4.6206,4.6086,4.6343,4.64,4.6303,4.7109,4.715,4.6641,4.7433,4.7719,4.7622,4.78,4.7967,4.8058,4.7516,4.7274,4.7224,4.6813,4.6938,4.7224,4.6813,4.7039,4.7566,4.7983,4.8526,4.9053,4.948,4.959,4.959,4.959,4.9891,5.0201,5.0201,5.0201,5.0201,5.0201,4.9891,4.959,4.959,4.959,4.964,4.9766,5.0017,5.0327,5.0728,5.0971,5.1138,5.1289,5.0896,5.0503,5.0252,4.9967,4.9741,4.9615,4.959,4.959,4.959,4.959,4.9863,5.0503,5.0556,5.0857,5.1455,5.1565,5.1596,5.1596,5.1596,5.135,5.0801,5.067,5.0069,4.9102,4.8945,4.8631,2.4711,2.7127,2.9579,3.2476,3.0714,3.0099,3.7025,3.5114,3.3004,3.7015,3.8195,3.8173,3.715,3.9361,4.2308,4.5284,4.7012,4.8938,5.1667,5.1971,5.2227,5.301,5.3112,5.2726,5.1762,5.1606,5.1395,5.0907,5.0202,4.9546,4.8919,4.8202,4.7433,4.6664,4.6639,4.688,4.7377,4.7377,4.7136,4.6639,4.6672,4.6936,4.7401,4.7964,4.8389,4.8731,4.9276,4.9589,4.9652,4.9188,4.8891,4.8693,4.8083,4.7842,4.7842,4.7807,4.7807,4.7842,4.7807,4.8174,4.8677,4.8718,4.9104,4.954,4.959,4.959,4.959,4.959,4.9631,4.9665,4.9665,4.9665,4.9665,4.9665,4.9615,4.959,4.959,4.959,4.9741,5.0252,4.9967,5.0142,5.1724,5.1147,5.0653,5.1214,5.1264,5.0862,4.9791,5.0067,5.0151,4.964,4.959,4.959,4.959,4.959,4.9799,5.0295,5.0518,5.0747,5.112,5.1424,5.1596,5.1596,5.1596,5.135,5.0801,5.0252,4.9677,4.9102,4.8527,4.8239,2.3275,2.6376,2.9628,3.1423,3.1955,3.3929,4.1118,4.2137,4.1863,4.2864,4.3827,4.3995,4.2436,4.4506,4.6734,4.7722,4.9119,5.0579,5.2007,5.1911,5.2152,5.3407,5.276,5.2147,5.1982,5.2128,5.2025,5.1503,5.0723,5.0187,4.9971,4.8459,4.7491,4.7225,4.7209,4.7305,4.7497,4.7497,4.75,4.7521,4.775,4.7872,4.7852,4.9194,4.9581,4.9261,5.0347,5.0477,4.99,4.9915,4.9677,4.9254,4.8677,4.8451,4.8426,4.8033,4.8134,4.84,4.8033,4.8058,4.8284,4.8693,4.8944,4.9154,4.9506,4.959,4.959,4.959,4.959,4.959,4.959,4.959,4.959,4.959,4.959,4.959,4.959,4.959,4.9766,5.0302,5.0544,5.0862,5.1473,5.1523,5.1423,5.1314,5.0971,5.0594,5.0151,4.9992,4.9816,4.9615,4.959,4.959,4.959,4.959,4.967,4.9847,5.0216,5.0725,5.1377,5.1534,5.1596,5.1596,5.1256,5.0827,5.0252,4.9766,4.9191,4.8527,4.8317,4.8187,2.3217,2.5707,2.8901,3.1401,3.3366,3.6689,4.4226,4.5864,4.6298,4.7867,4.7928,4.7472,4.674,4.7594,4.8545,4.8938,5.0241,5.1308,5.1613,5.1515,5.1751,5.269,5.2435,5.224,5.2308,5.2846,5.2803,5.1836,5.105,5.0425,4.9992,4.8401,4.7497,4.7497,4.7497,4.7497,4.7497,4.7597,4.7762,4.8009,4.8698,4.8731,4.8239,4.9674,5.0154,4.9874,5.1008,5.1152,5.0589,5.0671,5.0268,4.9565,4.9204,4.9053,4.9003,4.8586,4.8702,4.8978,4.8586,4.8435,4.851,4.8928,4.9053,4.9129,4.9506,4.959,4.959,4.959,4.959,4.959,4.959,4.959,4.959,4.959,4.959,4.959,4.959,4.959,4.9766,5.0302,5.0844,5.127,5.143,5.1841,5.1934,5.1279,5.0985,5.0659,5.0218,5.0017,4.9866,4.9615,4.959,4.959,4.959,4.959,4.959,4.959,5.0311,5.0873,5.1267,5.1487,5.1596,5.1596,5.1246,5.0734,5.008,4.9804,4.9165,4.8187,4.8187,4.8187,2.528,2.5715,2.7764,3.3065,3.4558,3.6932,4.5374,4.4465,4.4008,5.1637,5.0181,4.8121,4.9965,4.8247,4.6951,4.8093,4.9923,5.1029,5.0572,5.1019,5.1194,5.0664,5.2314,5.3237,5.2653,5.374,5.3726,5.1836,5.1024,5.0023,4.8686,4.7906,4.7497,4.7497,4.7497,4.7497,4.7497,4.7845,4.8009,4.8034,4.9315,4.9438,4.8649,4.9296,5.0021,5.0754,5.1284,5.1736,5.2051,5.1498,5.0611,4.959,4.959,4.959,4.959,4.959,4.959,4.9615,4.9615,4.9615,4.9615,4.9615,4.9615,4.9615,4.9615,4.9615,4.9615,4.9615,4.9615,4.9615,4.9615,4.9615,4.9615,4.959,4.959,4.959,4.959,4.959,4.9766,5.0302,5.0729,5.1167,5.171,5.2075,5.1978,5.1017,5.1407,5.1257,4.9789,5.0234,5.0393,4.9665,4.959,4.959,4.959,4.959,4.959,4.959,5.0857,5.1299,5.0636,5.1251,5.1596,5.1596,5.1596,5.123,5.0524,5.0498,4.9688,4.8187,4.8187,4.8213,2.3942,2.8371,3.3122,3.2628,3.8559,4.5005,4.6836,4.619,4.6754,5.209,5.2317,5.1257,5.0444,5.0405,5.0005,4.8555,4.9666,5.0816,5.1073,5.0647,5.0648,5.1619,5.1691,5.1833,5.2274,5.3314,5.333,5.182,5.1649,5.0992,4.9647,4.8477,4.7845,4.7845,4.7845,4.7845,4.7845,4.8231,4.8739,4.9331,4.9866,4.9891,4.9562,5.0787,5.1271,5.1147,5.1681,5.1531,5.0854,5.0318,4.9907,4.959,4.959,4.959,4.959,4.959,4.9841,5.0151,5.0151,5.0444,5.0812,5.0812,5.0812,5.0812,5.0812,5.0812,5.0812,5.0812,5.0812,5.0711,5.0252,5.0151,5.0067,4.969,4.959,4.959,4.959,4.959,4.9766,5.0302,5.05,5.0698,5.1104,5.1393,5.1309,5.0461,5.0729,5.0675,4.9732,4.9791,4.9841,4.9615,4.959,4.959,4.959,4.959,4.959,4.959,5.0857,5.1518,5.1314,5.1487,5.1596,5.1596,5.1596,5.1492,5.1256,4.9662,4.8657,4.8187,4.8187,4.9049,2.7269,3.2,3.6832,3.7894,4.3131,4.8296,4.9333,4.9634,5.043,5.3064,5.3186,5.243,5.1268,5.1075,5.0798,4.972,5.0101,5.0688,5.1079,5.0576,5.0528,5.1568,5.1433,5.1559,5.2328,5.2938,5.2743,5.154,5.1288,5.0632,4.9282,4.8362,4.7922,4.8009,4.793,4.7987,4.8248,4.8608,4.905,4.9586,5.0298,5.0439,5.0131,5.1322,5.1665,5.1314,5.1398,5.103,5.0352,4.9816,4.959,4.959,4.959,4.959,4.959,4.959,4.9941,5.0402,5.0402,5.0795,5.1264,5.1021,5.0946,5.0896,5.0686,5.077,5.0946,5.0946,5.1113,5.1214,5.0845,5.077,5.0569,4.9766,4.959,4.959,4.959,4.959,4.969,5.0017,5.0558,5.0882,5.0623,5.1189,5.1357,5.033,5.0226,5.0108,4.9665,4.959,4.959,4.959,4.959,4.959,4.959,4.959,4.959,4.959,5.0857,5.1596,5.1596,5.1596,5.1596,5.1596,5.1596,5.1596,5.1596,5.0211,4.9546,4.9546,4.9546,5.0304,3.2873,3.5897,3.9552,4.6187,4.7717,4.857,5.2358,5.3644,5.4055,5.4045,5.3011,5.2103,5.2055,5.0704,4.9987,5.1135,5.0916,5.0641,5.0693,5.072,5.0752,5.0883,5.1462,5.1998,5.2393,5.2525,5.2087,5.0939,5.0351,4.9491,4.8174,4.7873,4.7856,4.8084,4.7889,4.8026,4.8625,4.8975,4.9178,4.9228,5.0588,5.0946,5.0528,5.1221,5.1429,5.1188,5.0594,5.0327,5.0277,4.9791,4.959,4.959,4.959,4.959,4.9615,4.964,4.9992,5.0402,5.0452,5.0845,5.1214,5.067,5.0477,5.0377,4.9891,5.0142,5.0553,5.0553,5.0996,5.144,5.1389,5.1364,5.1113,5.0017,4.9715,4.9665,4.9615,4.959,4.959,4.959,5.0671,5.1289,5.0369,5.1289,5.1809,5.0696,4.999,4.959,4.959,4.9414,4.9364,4.9581,4.9414,4.9364,4.9565,4.959,4.959,4.959,5.0857,5.1596,5.1596,5.1596,5.1492,5.1282,5.1492,5.1596,5.1596,5.1596,5.1596,5.1596,5.1596,5.1596,3.0732,3.6902,4.3626,4.6116,4.9363,5.2207,5.3152,5.3145,5.2925,5.2811,5.2147,5.1463,5.1096,5.0653,5.0455,5.0717,5.0719,5.0672,5.0699,5.0789,5.0866,5.09,5.1624,5.1692,5.0611,5.1535,5.129,4.9071,4.9873,4.9998,4.8926,4.8415,4.8381,4.8853,4.8415,4.8438,4.8991,4.9315,4.9703,5.0128,5.0445,5.077,5.1138,5.1715,5.1465,5.0553,5.0017,4.9766,4.9766,4.964,4.959,4.959,4.959,4.959,4.964,5.0051,5.0302,5.0477,5.0946,5.1188,5.1289,5.1163,5.1113,5.1071,5.0962,5.1297,5.1732,5.1732,5.2134,5.246,5.2051,5.1925,5.1749,5.1088,5.0686,5.0293,4.9715,4.959,4.959,4.959,4.9872,5.0298,5.0936,5.1052,5.1337,5.2211,5.0786,4.959,4.959,4.8083,4.7682,4.9414,4.8058,4.7707,4.9439,4.959,4.959,4.959,5.0857,5.1596,5.1596,5.1596,5.076,4.8971,5.0697,5.1596,5.1596,5.1596,5.1596,5.1596,5.1596,5.1596,3.2721,3.8311,4.3794,4.8254,5.0939,5.2657,5.3314,5.2745,5.2029,5.1706,5.1325,5.0898,5.0319,5.0225,5.0351,5.0807,5.0952,5.1102,5.1373,5.1621,5.1686,5.1538,5.2078,5.1813,5.028,5.0642,5.0203,4.8294,4.8707,4.896,4.8748,4.8337,4.8428,4.908,4.8727,4.8807,4.9332,4.9509,4.9741,5.0001,5.0277,5.0553,5.087,5.1172,5.0954,5.0377,4.9841,4.959,4.959,4.959,4.959,4.959,4.959,4.959,4.9615,4.9916,5.0176,5.0452,5.077,5.1063,5.1264,5.0971,5.1046,5.1188,5.0661,5.1247,5.2051,5.1774,5.2285,5.2837,5.2561,5.2485,5.2335,5.18,5.1339,5.0837,5.0243,5.0134,5.0017,4.9665,4.959,4.9807,5.0385,5.0309,5.0419,5.1205,5.0343,4.9213,4.8159,4.7014,4.6737,4.7908,4.7933,4.836,4.949,4.959,4.959,4.959,5.0857,5.1596,5.1596,5.1596,5.1047,4.9845,5.0995,5.1596,5.1596,5.1596,5.1596,5.1596,5.1596,5.1596,3.4193,3.8877,4.3153,5.0583,5.2027,5.1876,5.2806,5.2146,5.1216,5.0753,5.0596,5.0341,4.9696,4.9717,5.0118,5.102,5.1323,5.1641,5.2137,5.2506,5.26,5.2302,5.2573,5.2086,5.0335,4.9984,4.9267,4.7769,4.7498,4.7625,4.8128,4.7921,4.8109,4.8862,4.8634,4.8802,4.9455,4.9464,4.9515,4.9615,5.0067,5.0252,5.0252,5.0252,5.0252,5.0226,4.9791,4.959,4.959,4.959,4.959,4.959,4.959,4.959,4.9615,4.969,4.9967,5.0277,5.0377,5.067,5.0912,5.0402,5.067,5.0962,4.9916,5.077,5.2,5.1465,5.2076,5.2895,5.2895,5.2895,5.2787,5.2335,5.19,5.1414,5.0837,5.0896,5.0795,4.9791,4.959,4.959,4.959,4.959,4.959,4.959,4.959,4.8812,4.6587,4.6286,4.6451,4.6828,4.851,4.959,4.959,4.959,4.9703,4.9944,5.0984,5.1596,5.1596,5.1596,5.1596,5.1596,5.1596,5.1596,5.1596,5.1596,5.1596,5.1596,5.1596,5.1596,2.8301,3.6259,4.5389,5.0461,5.1703,5.1598,5.1252,5.066,5.021,5.0131,5.0011,4.9744,4.919,4.9595,5.0202,5.0821,5.1591,5.2109,5.2194,5.2506,5.268,5.264,5.2881,5.203,4.9448,4.9758,4.9081,4.6532,4.7,4.7466,4.7604,4.7345,4.746,4.803,4.7585,4.7842,4.8894,4.8919,4.9129,4.959,4.9665,4.9715,4.9715,4.9715,4.9715,4.969,4.9615,4.959,4.959,4.959,4.959,4.959,4.959,4.959,4.9665,5.0101,5.0026,4.9766,5.0226,5.0167,4.9816,4.9715,5.0092,5.0419,4.9791,5.077,5.2,5.1465,5.2076,5.2895,5.2895,5.2895,5.287,5.2795,5.2737,5.231,5.0987,5.1699,5.2009,4.9992,4.959,4.959,4.959,4.959,4.959,4.959,4.959,4.8812,4.6587,4.6286,4.7014,4.8962,4.9414,4.959,4.959,4.959,5.0104,5.1251,5.1502,5.1596,5.1596,5.1596,5.1596,5.1596,5.1596,5.1596,5.1596,5.1596,5.1596,5.1596,5.1596,5.1596,3.0234,3.7917,4.5197,4.9598,5.099,5.1175,5.092,5.0678,5.0422,5.0056,4.9958,4.9877,4.9814,4.9881,5.0355,5.1439,5.212,5.2533,5.268,5.2397,5.2002,5.1676,5.1265,5.0127,4.7855,4.8133,4.7606,4.5527,4.5896,4.6368,4.6687,4.6793,4.7087,4.7658,4.7589,4.7792,4.83,4.83,4.856,4.9154,4.9455,4.959,4.959,4.959,4.959,4.959,4.959,4.959,4.959,4.959,4.959,4.959,4.959,4.959,4.9615,4.9866,4.9791,4.9615,4.9866,4.9992,5.0067,5.0067,5.0444,5.0795,5.0218,5.1021,5.2,5.1465,5.2076,5.2895,5.2895,5.2895,5.2895,5.2895,5.2895,5.2737,5.2059,5.2435,5.2611,5.1632,5.0444,4.959,4.959,4.959,4.959,4.959,4.959,4.9238,4.8284,4.8159,4.8058,4.7782,4.7757,4.8259,4.949,4.959,5.0184,5.1518,5.1596,5.1596,5.1596,5.1596,5.1596,5.1596,5.1596,5.1596,5.1596,5.1596,5.1596,5.1596,5.1596,5.1596,3.111,3.6842,4.1231,4.6777,4.8748,4.9573,5.0479,5.0768,5.075,5.0307,5.0165,5.0214,5.0552,5.0349,5.0464,5.1546,5.2099,5.2289,5.2085,5.1511,5.0934,5.0365,4.9705,4.8594,4.6896,4.6955,4.6445,4.4933,4.5117,4.5441,4.5748,4.6168,4.6597,4.7041,4.7336,4.7566,4.7691,4.7983,4.8335,4.8818,4.9355,4.959,4.959,4.959,4.959,4.959,4.959,4.959,4.959,4.959,4.959,4.959,4.959,4.959,4.959,4.959,4.959,4.959,4.959,4.9866,5.0201,5.0352,5.082,5.1214,5.077,5.1406,5.2176,5.159,5.2151,5.2895,5.2895,5.2895,5.2895,5.2895,5.2895,5.2895,5.2895,5.2895,5.2895,5.2895,5.1557,5.0268,4.969,4.959,4.959,4.959,4.959,4.959,4.959,4.959,4.8962,4.7315,4.6637,4.6979,4.8611,4.9583,5.0525,5.1534,5.1596,5.1596,5.1596,5.1596,5.1596,5.1596,5.1596,5.1596,5.1596,5.1596,5.1596,5.1596,5.1596,5.1596,2.6905,2.9325,3.169,4.0884,4.4157,4.598,4.9275,5.0449,5.0815,5.0852,5.0607,5.0578,5.1144,5.0763,5.0392,5.0492,5.0975,5.0865,4.9434,4.9379,4.9393,4.9039,4.8967,4.8435,4.7191,4.7088,4.6445,4.4933,4.5117,4.5162,4.4865,4.5502,4.5852,4.5902,4.622,4.6637,4.7149,4.8209,4.8768,4.8818,4.9355,4.959,4.959,4.959,4.959,4.959,4.959,4.959,4.959,4.959,4.959,4.959,4.959,4.959,4.959,4.959,4.959,4.959,4.959,4.9615,4.9715,5.0226,5.082,5.1289,5.1264,5.2,5.2711,5.1992,5.2327,5.2895,5.2895,5.2895,5.2895,5.2895,5.2895,5.2895,5.2895,5.2895,5.2895,5.2895,5.2795,5.2059,4.9967,4.959,4.959,4.959,4.959,4.959,4.959,4.959,4.9565,4.9439,4.7556,4.6336,4.6461,4.9569,5.1534,5.1596,5.1596,5.1596,5.1596,5.1596,5.1596,5.1596,5.1596,5.1596,5.1596,5.1596,5.1596,5.1596,5.1596,5.1596,2.5093,2.7896,3.0672,3.6722,4.1311,4.463,4.5671,4.8294,5.0488,5.0347,4.987,4.9588,4.9787,4.9993,5.0274,5.0602,5.0684,5.0308,4.9108,4.8361,4.7808,4.746,4.6743,4.6005,4.5363,4.5287,4.5068,4.4517,4.4594,4.4609,4.4486,4.5117,4.5483,4.5483,4.5999,4.6386,4.6572,4.7682,4.8209,4.8234,4.9179,4.959,4.959,4.959,4.959,4.959,4.959,4.959,4.959,4.959,4.959,4.959,4.959,4.959,4.959,4.959,4.959,4.964,4.9992,5.0368,5.0787,5.1322,5.1649,5.18,5.18,5.2,5.2126,5.1867,5.2327,5.2895,5.2895,5.2895,5.2895,5.2895,5.2895,5.2895,5.2895,5.2895,5.2895,5.2895,5.1758,5.0544,4.9741,4.959,4.959,4.959,4.959,4.959,4.959,4.959,4.959,4.959,4.7631,4.6286,4.6286,4.8215,4.9416,4.9416,4.9416,4.9416,4.9416,4.9416,4.9416,4.9416,5.0838,5.1596,5.1596,5.1596,5.1596,5.1596,5.1596,5.2406,2.2277,2.479,2.7764,3.2848,3.6716,4.0244,4.3784,4.6474,4.8478,4.9322,4.9152,4.8726,4.8215,4.8573,4.9185,4.9922,4.9619,4.9035,4.8274,4.7114,4.6215,4.5884,4.5114,4.4548,4.4316,4.43,4.43,4.43,4.43,4.4347,4.4455,4.5009,4.5407,4.562,4.6059,4.6386,4.6562,4.744,4.8008,4.8209,4.9138,4.959,4.959,4.959,4.959,4.959,4.959,4.959,4.959,4.959,4.959,4.959,4.959,4.959,4.959,4.959,4.9715,4.9916,5.0277,5.0795,5.1389,5.1925,5.2101,5.2126,5.231,5.2277,5.2176,5.2176,5.2511,5.2895,5.2895,5.2895,5.2895,5.2895,5.2895,5.2895,5.2895,5.2895,5.2895,5.2895,5.1707,5.072,5.072,5.072,5.0469,4.9715,4.959,4.959,4.959,4.959,4.933,4.856,4.7179,4.6286,4.6286,4.7479,4.8187,4.8187,4.8187,4.8187,4.8187,4.8945,4.9337,4.9337,5.0812,5.1596,5.1596,5.1596,5.1596,5.1622,5.2406,5.3609,0.0,0.0,0.0,2.8994,3.0191,3.2573,4.3496,4.4823,4.4623,4.7703,4.8366,4.7988,4.6667,4.6591,4.7156,4.833,4.7717,4.6966,4.6675,4.5555,4.4656,4.4331,4.43,4.43,4.43,4.43,4.43,4.43,4.43,4.4455,4.4779,4.5147,4.562,4.6271,4.6301,4.6577,4.7074,4.7616,4.8184,4.8793,4.933,4.959,4.959,4.959,4.959,4.959,4.959,4.959,4.959,4.959,4.959,4.959,4.959,4.959,4.959,4.959,4.9941,5.0402,5.0427,5.082,5.1414,5.195,5.2126,5.2226,5.2737,5.2895,5.2895,5.2895,5.2895,5.2895,5.2895,5.2895,5.2895,5.2895,5.2895,5.2895,5.2895,5.2895,5.2895,5.2895,5.2895,5.2887,5.2795,5.2845,5.2159,4.9916,4.959,4.959,4.959,4.959,4.8786,4.6612,4.6336,4.6286,4.6286,4.7479,4.8239,4.8291,4.8291,4.8291,4.8291,5.042,5.1596,5.1596,5.1596,5.1596,5.1596,5.1596,5.1596,5.1648,5.4079,5.5177,1.7808,0.0,0.0,0.0,0.0,0.0,3.3175,3.5964,3.898,4.3699,4.3984,4.4009,4.6042,4.6219,4.6206,4.6572,4.6544,4.6105,4.5107,4.4647,4.4393,4.4316,4.43,4.43,4.43,4.43,4.43,4.43,4.43,4.4455,4.4779,4.5574,4.6105,4.6286,4.6551,4.6627,4.6512,4.744,4.7983,4.8159,4.9138,4.959,4.959,4.959,4.959,4.959,4.959,4.959,4.959,4.959,4.959,4.959,4.959,4.959,4.959,4.959,4.9941,5.0452,5.0896,5.1398,5.1975,5.2511,5.2686,5.2711,5.2862,5.2895,5.2895,5.2895,5.2895,5.2895,5.2895,5.2895,5.2895,5.2895,5.2895,5.2895,5.2895,5.2895,5.2895,5.2895,5.2895,5.2385,5.0795,5.1833,5.2159,4.9916,4.959,4.959,4.959,4.959,4.938,4.8761,4.7255,4.6286,4.6286,4.7479,4.8893,5.0566,5.0655,5.0655,5.0655,5.1256,5.1596,5.1596,5.1596,5.1596,5.1596,5.1596,5.1596,5.1701,5.57,5.6693,0.0,0.0,0.0,0.0,0.0,0.0,3.1722,3.4063,3.6763,4.3,4.3846,4.3821,4.5066,4.5198,4.5095,4.5007,4.5066,4.5141,4.511,4.4631,4.4347,4.4486,4.4517,4.4563,4.4702,4.4717,4.4717,4.4717,4.4717,4.4856,4.5208,4.6125,4.6571,4.6301,4.6641,4.6843,4.6979,4.7606,4.8134,4.8611,4.9289,4.959,4.959,4.959,4.959,4.959,4.959,4.959,4.959,4.959,4.959,4.959,4.959,4.959,4.9631,4.9841,5.0293,5.087,5.1423,5.1975,5.2485,5.2812,5.2895,5.2895,5.2895,5.2895,5.2895,5.2895,5.2895,5.2895,5.2895,5.2895,5.2895,5.2895,5.2895,5.2895,5.2895,5.2895,5.2895,5.2895,5.2895,5.2485,5.1205,5.2059,5.2159,4.9916,5.0393,5.0645,4.9715,4.959,4.959,4.959,4.846,4.7682,4.7682,4.8869,5.02,5.1518,5.1596,5.1596,5.1596,5.1063,5.0763,5.0763,5.1314,5.1596,5.1596,5.1596,5.2093,5.3138,5.6798,5.7294,0.0,0.0,0.0,0.0,0.0,0.0,3.3947,3.4884,3.5564,4.2577,4.4262,4.4142,4.3073,4.316,4.3257,4.2895,4.3167,4.4023,4.5705,4.4991,4.442,4.4728,4.4807,4.4979,4.527,4.53,4.53,4.53,4.5426,4.5593,4.5833,4.6806,4.7044,4.6386,4.6737,4.7202,4.7807,4.7933,4.851,4.9515,4.9565,4.959,4.959,4.959,4.959,4.959,4.959,4.959,4.959,4.959,4.959,4.9615,4.9665,4.969,4.9741,5.0318,5.087,5.1465,5.1925,5.246,5.2895,5.2895,5.2895,5.2895,5.2895,5.2895,5.2895,5.2895,5.2895,5.2895,5.2895,5.2895,5.2895,5.2895,5.2895,5.2895,5.2895,5.2895,5.2895,5.2895,5.2895,5.2895,5.2895,5.2895,5.2234,5.0268,5.1632,5.2109,4.9891,4.959,4.959,4.959,4.959,4.959,4.959,5.0683,5.1377,5.1377,5.1377,5.1377,5.1377,5.0222,4.959,4.959,5.1179,5.1858,5.1596,5.1596,5.2798,5.5151,5.719,5.7033,0.0,0.0,0.0,0.0,2.3394,0.0,2.4637,2.5773,2.7907,3.2081,3.2963,3.3987,3.7227,3.8016,3.8002,3.7493,3.9831,4.2282,4.3954,4.4352,4.4496,4.4556,4.4939,4.5224,4.5285,4.53,4.53,4.53,4.619,4.6585,4.622,4.7532,4.7823,4.6731,4.7437,4.7648,4.7249,4.8174,4.8727,4.8953,4.9405,4.959,4.959,4.959,4.959,4.959,4.959,4.959,4.959,4.959,4.959,4.964,5.0092,5.0226,5.0302,5.0896,5.1473,5.195,5.2076,5.246,5.2895,5.2895,5.2895,5.2895,5.2895,5.2895,5.2895,5.2895,5.2895,5.2895,5.2895,5.2895,5.2895,5.2895,5.2895,5.2895,5.2895,5.2895,5.2895,5.2895,5.2895,5.2895,5.2895,5.2895,5.2744,5.2335,5.2636,5.2109,4.9891,4.959,4.959,4.959,4.959,4.959,4.959,4.9847,4.9992,4.9992,4.9992,4.9992,4.9992,4.9735,4.959,4.959,5.2768,5.3478,5.1596,5.1596,5.2798,5.5125,5.5569,5.5543,0.0,0.0,0.0,2.4464,2.4414,0.0,0.0,2.6063,2.7627,3.1792,3.2204,3.2692,3.5454,3.5602,3.5386,3.566,3.8364,4.0248,3.9676,4.2657,4.4968,4.5134,4.5618,4.6001,4.6169,4.6448,4.6498,4.6209,4.6657,4.6768,4.6326,4.7319,4.7494,4.6581,4.7404,4.7734,4.749,4.8375,4.8928,4.9204,4.9464,4.959,4.959,4.959,4.959,4.959,4.959,4.959,4.9615,4.9891,5.0017,5.0042,5.0302,5.0402,5.0503,5.1373,5.1875,5.2151,5.241,5.2686,5.2895,5.2895,5.2895,5.2895,5.2895,5.2895,5.2895,5.2895,5.2895,5.2895,5.2895,5.2895,5.2895,5.2895,5.2895,5.2895,5.2895,5.2895,5.2895,5.2895,5.2895,5.2895,5.2895,5.2895,5.2895,5.2895,5.2895,5.2511,5.1381,5.1247,5.0419,4.8184,4.8937,4.959,4.959,4.959,4.959,4.959,4.959,5.0092,5.1205,5.1247,5.1579,5.2322,5.415,5.5072,5.5046,5.3896,5.4524,5.6798,5.6798,5.6798,0.0,0.0,0.0,0.0,2.5879,2.5812,0.0,0.0,0.0,3.2348,3.252,3.2305,3.3387,3.2882,3.2591,3.3437,3.612,3.7274,3.4892,3.9664,4.3558,4.3933,4.5505,4.6433,4.618,4.6336,4.6687,4.7199,4.6359,4.6043,4.6532,4.7072,4.7066,4.6431,4.7192,4.7693,4.7908,4.8501,4.9079,4.959,4.959,4.959,4.959,4.959,4.954,4.9455,4.9455,4.938,4.9314,4.9992,5.0252,5.0277,5.0603,5.0728,5.0854,5.1883,5.2234,5.231,5.2762,5.2895,5.2895,5.2895,5.2895,5.2895,5.2895,5.2895,5.2895,5.2895,5.2895,5.2895,5.2895,5.2895,5.2895,5.2895,5.2895,5.2895,5.2895,5.2895,5.2895,5.2895,5.2895,5.2895,5.2895,5.2895,5.2895,5.2895,5.2895,5.2895,5.2895,5.2895,5.1381,4.7365,4.8535,4.959,4.959,4.959,4.9766,5.0218,5.0243,5.1046,5.2837,5.2895,5.3461,5.4647,5.5391,5.6667,5.8505,5.6667,5.6702,5.8505,5.8505,5.8505,3.1058,2.9619,3.0075,2.7203,2.8181,2.8656,2.4172,0.0,2.5611,2.47,0.0,2.546,2.654,0.0,0.0,2.6707,2.9889,3.2064,3.1265,3.431,3.6815,3.7401,4.2719,4.5378,4.2989,4.1895,4.3148,4.7465,4.4417,4.3854,4.7283,4.7793,4.7619,4.6761,4.7298,4.7693,4.7908,4.8501,4.9079,4.959,4.959,4.959,4.959,4.959,4.9355,4.8894,4.8894,4.8601,4.8184,4.9238,4.969,4.9841,5.1322,5.1925,5.1975,5.2586,5.2795,5.2837,5.2887,5.2895,5.2895,5.2895,5.2895,5.2895,5.2895,5.2895,5.2895,5.2895,5.2895,5.2895,5.2895,5.2895,5.2895,5.2895,5.2895,5.2895,5.2895,5.2895,5.2895,5.2895,5.2895,5.2895,5.2895,5.2895,5.2895,5.2895,5.2895,5.2895,5.2895,5.2895,5.1958,4.949,4.9439,4.959,4.959,4.959,5.0444,5.2393,5.2536,5.2636,5.2895,5.2895,5.2981,5.3153,5.6425,5.8244,5.8505,5.8244,5.8244,5.8505,5.8505,5.8505,3.0814,3.1533,0.0,0.0,0.0,0.0,2.5067,0.0,2.4131,2.4106,0.0,0.0,0.0,0.0,0.0,0.0,2.7636,2.9217,2.7059,3.1265,3.5027,3.6267,3.8856,4.1103,4.2537,4.1617,4.2883,4.7541,4.3929,4.3333,4.7555,4.7602,4.7364,4.6985,4.7187,4.7352,4.744,4.835,4.8919,4.9129,4.9129,4.9129,4.9129,4.8761,4.8485,4.8275,4.8275,4.8325,4.8476,4.9264,4.9791,5.0218,5.1574,5.2101,5.2159,5.2711,5.2895,5.2895,5.2895,5.2895,5.2895,5.2895,5.2895,5.2895,5.2895,5.2895,5.2895,5.2895,5.2895,5.2895,5.2895,5.2895,5.2895,5.2895,5.2895,5.2895,5.2895,5.2895,5.2895,5.2895,5.2895,5.2895,5.2895,5.2895,5.2895,5.2895,5.2895,5.2895,5.2895,5.2895,5.2544,5.1607,5.0368,4.959,4.959,4.959,5.0544,5.2744,5.2895,5.2895,5.2895,5.2895,5.3307,5.4175,5.2245,5.364,5.8505,5.8505,5.8505,5.8487,5.7569,5.6466,3.2852,0.0,0.0,0.0,0.0,0.0,0.0,0.0,0.0,0.0,0.0,0.0,0.0,0.0,0.0,0.0,0.0,2.6765,2.3921,2.7686,3.1396,3.3215,3.45,3.6885,0.0,3.9433,4.0487,4.6125,4.2306,4.2064,4.7476,4.7479,4.7218,4.6961,4.7053,4.7099,4.7099,4.7933,4.84,4.8551,4.8718,4.8793,4.8793,4.835,4.8058,4.7908,4.7908,4.8058,4.84,4.9238,4.9841,5.0277,5.1448,5.1875,5.1975,5.2661,5.2812,5.2711,5.2845,5.2895,5.2895,5.2895,5.2895,5.2895,5.2895,5.2895,5.2895,5.2895,5.2895,5.2895,5.2895,5.2895,5.2895,5.2895,5.2895,5.2895,5.2895,5.2895,5.2895,5.2895,5.2895,5.2895,5.2895,5.2895,5.2895,5.2895,5.2895,5.2686,5.2084,5.2009,5.2009,5.2009,5.1105,5.0519,5.0519,5.0519,5.118,5.2795,5.2895,5.2895,5.2895,5.1275,5.1652,5.4445,5.0151,5.089,5.6986,5.6986,5.6986,5.6951,5.5834,5.4443,0.0,0.0,0.0,2.8585,0.0,0.0,0.0,0.0,2.6088,0.0,0.0,0.0,0.0,0.0,0.0,0.0,0.0,0.0,0.0,2.254,2.3502,2.5695,2.9729,3.3671,0.0,3.3004,3.3782,0.0,3.853,3.9103,4.6994,4.7705,4.7502,4.6647,4.693,4.7099,4.7099,4.7149,4.7415,4.7933,4.8526,4.8793,4.8793,4.8793,4.8451,4.7908,4.7908,4.7616,4.7274,4.8921,4.9615,4.9741,5.0887,5.1314,5.1465,5.2511,5.2561,5.2201,5.2711,5.2895,5.2895,5.2895,5.2895,5.2895,5.2895,5.2895,5.2895,5.2895,5.2895,5.2895,5.2895,5.2895,5.2895,5.2895,5.2895,5.2895,5.2895,5.2895,5.2895,5.2895,5.2895,5.2895,5.2895,5.2895,5.2895,5.2895,5.2895,5.2134,4.9967,4.9715,4.9715,4.9715,5.1557,5.2795,5.2795,5.2795,5.282,5.2912,5.2895,5.2895,5.2895,4.7096,4.6769,5.2836,5.2792,5.2817,5.3082,5.3082,5.3082,5.3082,5.303,5.297,0.0,0.0,4.4342,3.431,0.0,0.0,0.0,0.0,0.0,0.0,0.0,0.0,0.0,0.0,0.0,0.0,0.0,0.0,0.0,0.0,2.1336,2.3193,2.7661,3.0909,0.0,0.0,0.0,0.0,3.9771,0.0,4.7672,4.7921,4.7961,4.8052,4.777,4.7465,4.7099,4.7857,4.7933,4.7375,4.835,4.84,4.7691,4.8033,4.7908,4.7375,4.7741,4.8033,4.8275,4.8827,4.928,4.9665,5.0419,5.0703,5.0845,5.1975,5.2277,5.2176,5.2694,5.2895,5.2895,5.2895,5.2895,5.2895,5.2895,5.2895,5.2895,5.2895,5.2895,5.2895,5.2895,5.2895,5.2895,5.2895,5.2895,5.2895,5.2895,5.2895,5.2895,5.2895,5.2895,5.2895,5.2895,5.2895,5.2895,5.2895,5.2895,5.2636,5.1883,5.0519,5.0167,5.1632,5.2443,5.2895,5.2895,4.911,4.8498,5.2629,4.9044,4.8588,5.2715,4.6894,4.6529,5.2792,5.2895,5.2895,5.2895,5.2895,5.2895,5.2895,5.2895,5.2895,4.5693,4.7713,0.0,3.9037,3.8551,0.0,2.9583,0.0,2.9316,0.0,0.0,0.0,0.0,0.0,0.0,0.0,0.0,0.0,0.0,1.9685,0.0,2.1285,2.4808,0.0,0.0,0.0,0.0,0.0,0.0,0.0,0.0,4.7802,4.8212,4.8603,4.8363,4.7958,4.7375,4.8109,4.8109,4.7375,4.8134,4.8209,4.7716,4.8058,4.8134,4.8018,4.8344,4.8711,4.9079,4.9079,4.928,4.964,5.0176,5.0402,5.0528,5.1682,5.2226,5.2435,5.2787,5.2895,5.2895,5.2895,5.2895,5.2895,5.2895,5.2895,5.2895,5.2895,5.2895,5.2895,5.2895,5.2895,5.2895,5.2895,5.2895,5.2895,5.2895,5.2895,5.2895,5.2895,5.2895,5.2895,5.2895,5.2895,5.2895,5.2895,5.2895,5.2895,5.2895,5.0971,5.0444,5.2644,5.2895,5.2895,5.2895,4.9223,4.8606,5.2646,4.7063,4.54,4.9438,4.5714,4.5493,4.951,5.1789,5.2895,5.2895,5.2895,5.2895,5.2895,5.2895,5.1719]},{"header":{"parameterUnit":"m.s-1","parameterCategory":1,"la1":30.6,"la2":29.2853,"lo1":-89.7004,"lo2":-87.6739,"dx":0.0162,"dy":0.0183,"nx":112,"ny":82,"refTime":"2022-11-21T18:00:00:Z","depth":0,"parameterNumber":3,"parameterNumberName":"V-component_of_WINDS"},"data":[0.0,0.0,0.0,0.0,0.0,0.0,0.0,0.0,0.0,0.0,0.0,0.0,0.0,0.0,0.0,0.0,0.0,0.0,0.0,0.0,0.0,0.0,0.0,0.0,0.0,0.0,0.0,0.0,0.0,0.0,0.0,0.0,0.0,0.0,0.0,0.0,0.0,0.0,0.0,0.0,0.0,0.0,0.0,0.0,0.0,0.0,0.0,0.0,0.0,0.0,0.0,0.0,0.0,0.0,0.0,0.0,0.0,0.0,0.0,0.0,0.0,0.0,0.0,0.0,0.0,0.0,0.0,0.0,0.0,0.0,0.0,0.0,0.0,0.0,0.0,0.0,0.0,0.0,0.0,0.0,0.0,0.0,0.0,0.0,0.0,0.0,0.0,0.0,0.0,0.0,1.7684,1.9611,2.2392,2.4125,2.4169,2.4217,2.2831,1.9512,0.0,0.0,0.0,0.0,0.0,0.0,0.0,0.0,0.0,0.0,0.0,0.0,0.0,0.0,0.0,0.0,0.0,0.0,0.0,0.0,0.0,0.0,0.0,0.0,0.0,0.0,0.0,0.0,0.0,0.0,0.0,0.0,0.0,0.0,0.0,0.0,0.0,0.0,0.0,0.0,0.0,0.0,0.0,0.0,0.0,0.0,0.0,0.0,0.0,0.0,0.0,0.0,0.0,0.0,0.0,0.0,0.0,0.0,0.0,0.0,0.0,0.0,0.0,0.0,0.0,0.0,0.0,0.0,0.0,0.0,0.0,0.0,0.0,0.0,0.0,0.0,0.0,0.0,0.0,0.0,0.0,0.0,0.0,0.0,0.0,0.0,0.0,0.0,0.0,0.0,0.0,0.0,0.0,0.0,0.0,0.0,0.0,0.0,0.0,0.0,0.0,0.0,0.0,0.0,1.8418,2.3009,2.3861,2.4223,2.4488,2.4785,2.3329,1.954,0.0,0.0,0.0,0.0,0.0,0.0,0.0,0.0,0.0,0.0,0.0,0.0,0.0,0.0,0.0,0.0,0.0,0.0,0.0,0.0,0.0,0.0,0.0,0.0,0.0,0.0,0.0,0.0,0.0,0.0,0.0,0.0,0.0,0.0,0.0,0.0,0.0,0.0,0.0,0.0,0.0,0.0,0.0,0.0,0.0,0.0,0.0,0.0,0.0,0.0,0.0,0.0,0.0,0.0,0.0,0.0,0.0,0.0,0.0,0.0,0.0,0.0,0.0,0.0,0.0,0.0,0.0,0.0,0.0,0.0,0.0,0.0,0.0,0.0,0.0,0.0,0.0,0.0,0.0,0.0,0.0,0.0,0.0,0.0,0.0,0.0,0.0,0.0,0.0,0.0,0.0,0.0,0.0,0.0,0.0,0.0,0.0,0.0,0.0,0.0,0.0,0.0,0.0,1.7664,2.0795,2.4791,2.5496,2.5844,2.6254,2.5715,2.3847,2.0234,1.7192,0.0,0.0,0.0,0.0,0.0,0.0,0.0,0.0,0.0,0.0,0.0,0.0,0.0,0.0,0.0,0.0,0.0,0.0,0.0,0.0,0.0,0.0,0.0,0.0,0.0,0.0,0.0,0.0,0.0,0.0,0.0,0.0,0.0,0.0,0.0,0.0,0.0,0.0,0.0,0.0,0.0,0.0,0.0,0.0,0.0,0.0,0.0,0.0,0.0,0.0,0.0,0.0,0.0,0.0,0.0,0.0,0.0,0.0,0.0,0.0,0.0,0.0,0.0,0.0,0.0,0.0,0.0,0.0,0.0,0.0,0.0,0.0,0.0,0.0,0.0,0.0,0.0,0.0,0.0,0.0,0.0,0.0,0.0,0.0,0.0,0.0,0.0,0.0,0.0,0.0,0.0,0.0,0.0,0.0,0.0,0.0,0.0,0.0,0.0,0.0,0.0,0.0,2.1401,2.3372,2.6241,2.6744,2.7104,2.7643,2.6531,2.4259,2.0664,1.7692,0.0,0.0,0.0,0.0,0.0,0.0,0.0,0.0,0.0,0.0,0.0,0.0,0.0,0.0,0.0,0.0,0.0,0.0,0.0,0.0,0.0,0.0,0.0,0.0,0.0,0.0,0.0,0.0,0.0,0.0,0.0,0.0,0.0,0.0,0.0,0.0,0.0,0.0,0.0,0.0,0.0,0.0,0.0,0.0,0.0,0.0,0.0,0.0,0.0,0.0,0.0,0.0,0.0,0.0,0.0,0.0,0.0,0.0,0.0,0.0,0.0,0.0,0.0,0.0,0.0,0.0,0.0,0.0,0.0,0.0,0.0,0.0,0.0,0.0,0.0,0.0,0.0,0.0,0.0,0.0,0.0,0.0,0.0,0.0,0.0,0.0,0.0,0.0,0.0,0.0,0.0,0.0,0.0,0.0,0.0,0.0,0.0,0.0,0.0,0.0,0.0,0.0,2.2823,2.5419,2.789,2.7182,2.6843,2.763,2.6862,2.4516,2.0225,1.7809,0.0,0.0,0.0,0.0,0.0,0.0,0.0,0.0,0.0,0.0,0.0,0.0,0.0,0.0,0.0,0.0,0.0,0.0,0.0,0.0,0.0,0.0,0.0,0.0,0.0,0.0,0.0,0.0,0.0,0.0,0.0,0.0,0.0,0.0,0.0,0.0,0.0,0.0,0.0,0.0,0.0,0.0,0.0,0.0,0.0,0.0,0.0,0.0,0.0,0.0,0.0,0.0,0.0,0.0,0.0,0.0,0.0,0.0,0.0,0.0,0.0,0.0,0.0,0.0,0.0,0.0,0.0,0.0,0.0,0.0,0.0,0.0,0.0,0.0,0.0,0.0,0.0,0.0,0.0,0.0,0.0,0.0,0.0,0.0,0.0,0.0,0.0,0.0,0.0,0.0,0.0,0.0,0.0,0.0,0.0,0.0,0.0,0.0,0.0,0.0,0.0,0.0,2.2415,2.5169,2.7992,2.7557,2.7284,2.7787,2.671,2.4279,2.0147,0.0,0.0,0.0,0.0,0.0,0.0,0.0,0.0,0.0,0.0,0.0,0.0,0.0,0.0,0.0,0.0,0.0,0.0,0.0,0.0,0.0,0.0,0.0,0.0,0.0,0.0,0.0,0.0,0.0,0.0,0.0,0.0,0.0,0.0,0.0,0.0,0.0,0.0,0.0,0.0,0.0,0.0,0.0,0.0,0.0,0.0,0.0,0.0,0.0,0.0,0.0,0.0,0.0,0.0,0.0,0.0,0.0,0.0,0.0,0.0,0.0,0.0,0.0,0.0,0.0,0.0,0.0,0.0,0.0,0.0,0.0,0.0,0.0,0.0,0.0,0.0,0.0,0.0,0.0,0.0,0.0,0.0,0.0,0.0,0.0,0.0,0.0,0.0,0.0,0.0,0.0,0.0,0.0,0.0,0.0,0.0,0.0,0.0,0.0,0.0,0.0,0.0,1.9859,2.3127,2.5939,2.7952,2.7705,2.7489,2.7718,2.6625,2.4218,2.0187,0.0,0.0,0.0,0.0,0.0,0.0,0.0,0.0,0.0,0.0,0.0,0.0,0.0,0.0,0.0,0.0,0.0,0.0,0.0,0.0,0.0,0.0,0.0,0.0,0.0,0.0,0.0,0.0,0.0,0.0,0.0,0.0,0.0,0.0,0.0,0.0,0.0,0.0,0.0,0.0,0.0,0.0,0.0,0.0,0.0,0.0,0.0,0.0,0.0,0.0,0.0,0.0,0.0,0.0,0.0,0.0,0.0,0.0,0.0,0.0,0.0,0.0,0.0,0.0,0.0,0.0,0.0,0.0,0.0,0.0,0.0,0.0,0.0,0.0,0.0,0.0,0.0,0.0,0.0,0.0,0.0,0.0,0.0,0.0,0.0,0.0,0.0,0.0,0.0,0.0,0.0,0.0,0.0,0.0,0.0,0.0,0.0,0.0,0.0,0.0,0.0,0.0,2.0957,2.5347,2.8194,2.7952,2.7616,2.74,2.74,2.6664,2.4435,0.0,0.0,0.0,0.0,0.0,0.0,0.0,0.0,0.0,0.0,0.0,0.0,0.0,0.0,0.0,0.0,0.0,0.0,0.0,0.0,0.0,0.0,0.0,0.0,0.0,0.0,0.0,0.0,0.0,0.0,0.0,0.0,0.0,0.0,0.0,0.0,0.0,0.0,0.0,0.0,0.0,0.0,0.0,0.0,0.0,0.0,0.0,0.0,0.0,0.0,0.0,0.0,0.0,0.0,0.0,0.0,0.0,0.0,0.0,0.0,0.0,0.0,0.0,0.0,0.0,0.0,0.0,0.0,0.0,0.0,0.0,0.0,0.0,0.0,0.0,0.0,0.0,0.0,0.0,0.0,0.0,0.0,0.0,0.0,0.0,0.0,0.0,0.0,0.0,0.0,0.0,0.0,0.0,0.0,0.0,0.0,0.0,0.0,0.0,0.0,0.0,0.0,0.0,2.1063,2.5134,2.7963,2.8344,2.7977,2.7637,2.7557,2.6927,2.4543,1.9806,0.0,0.0,0.0,0.0,0.0,0.0,0.0,0.0,0.0,0.0,0.0,0.0,0.0,0.0,0.0,0.0,0.0,0.0,0.0,0.0,0.0,0.0,0.0,0.0,0.0,0.0,0.0,0.0,0.0,0.0,0.0,0.0,0.0,0.0,0.0,0.0,0.0,0.0,0.0,0.0,0.0,0.0,0.0,0.0,0.0,0.0,0.0,0.0,0.0,0.0,0.0,0.0,0.0,0.0,0.0,0.0,0.0,0.0,0.0,0.0,0.0,0.0,0.0,0.0,0.0,0.0,0.0,0.0,0.0,0.0,0.0,0.0,0.0,0.0,0.0,0.0,0.0,0.0,0.0,0.0,0.0,0.0,0.0,0.0,0.0,0.0,0.0,0.0,0.0,0.0,0.0,0.0,0.0,0.0,0.0,0.0,0.0,0.0,0.0,0.0,0.0,0.0,2.1306,2.5246,2.7987,2.8399,2.8049,2.7699,2.7466,2.6818,2.4728,2.0752,0.0,0.0,0.0,0.0,0.0,0.0,0.0,0.0,0.0,0.0,0.0,0.0,0.0,0.0,0.0,0.0,0.0,0.0,0.0,0.0,0.0,0.0,0.0,0.0,0.0,0.0,0.0,0.0,0.0,0.0,0.0,0.0,0.0,0.0,0.0,0.0,0.0,0.0,0.0,0.0,0.0,0.0,0.0,0.0,0.0,0.0,0.0,0.0,0.0,0.0,0.0,0.0,0.0,0.0,0.0,0.0,0.0,0.0,0.0,0.0,0.0,0.0,0.0,0.0,0.0,0.0,0.0,0.0,0.0,0.0,0.0,0.0,0.0,0.0,0.0,0.0,0.0,0.0,0.0,0.0,0.0,0.0,0.0,0.0,0.0,0.0,0.0,0.0,0.0,0.0,0.0,0.0,0.0,0.0,0.0,0.0,0.0,0.0,0.0,0.0,0.0,0.0,2.1658,2.5594,2.8223,2.826,2.806,2.7738,2.7353,2.6622,2.5118,2.2596,0.0,0.0,0.0,0.0,0.0,0.0,0.0,0.0,0.0,0.0,0.0,0.0,0.0,0.0,0.0,0.0,0.0,0.0,0.0,0.0,0.0,0.0,0.0,0.0,0.0,0.0,0.0,0.0,0.0,0.0,0.0,0.0,0.0,0.0,0.0,0.0,0.0,0.0,0.0,0.0,0.0,0.0,0.0,0.0,0.0,0.0,0.0,0.0,0.0,0.0,0.0,0.0,0.0,0.0,0.0,0.0,0.0,0.0,0.0,0.0,1.6857,1.5506,0.0,0.0,0.0,0.0,0.0,0.0,0.0,0.0,0.0,0.0,0.0,0.0,0.0,0.0,0.0,0.0,0.0,0.0,0.0,0.0,0.0,0.0,0.0,0.0,0.0,0.0,0.0,0.0,0.0,0.0,0.0,0.0,0.0,0.0,0.0,0.0,0.0,0.0,0.0,0.0,2.2166,2.589,2.849,2.8785,2.8777,2.8586,2.8183,2.7847,2.6448,2.3582,2.2356,0.0,0.0,0.0,0.0,0.0,0.0,0.0,0.0,0.0,0.0,0.0,0.0,0.0,0.0,0.0,0.0,0.0,0.0,0.0,0.0,0.0,0.0,0.0,0.0,0.0,0.0,0.0,0.0,0.0,0.0,0.0,0.0,0.0,0.0,0.0,0.0,0.0,0.0,0.0,0.0,0.0,0.0,0.0,0.0,0.0,0.0,0.0,0.0,0.0,0.0,0.0,0.0,0.0,0.0,0.0,0.0,0.0,0.0,0.0,1.9096,1.8336,0.0,0.0,0.0,0.0,0.0,0.0,0.0,0.0,0.0,0.0,0.0,0.0,0.0,0.0,0.0,0.0,0.0,0.0,0.0,0.0,0.0,0.0,0.0,0.0,0.0,0.0,0.0,0.0,0.0,0.0,0.0,0.0,0.0,0.0,0.0,0.0,0.0,0.0,0.0,0.0,2.2964,2.6598,2.9256,2.9975,2.986,2.9699,2.9609,2.9126,2.8095,2.6345,2.4507,0.0,0.0,0.0,0.0,0.0,0.0,0.0,0.0,0.0,0.0,0.0,0.0,0.0,0.0,0.0,0.0,0.0,0.0,0.0,0.0,0.0,0.0,0.0,0.0,0.0,0.0,0.0,0.0,0.0,0.0,0.0,0.0,0.0,0.0,0.0,0.0,0.0,0.0,0.0,0.0,0.0,0.0,0.0,0.0,0.0,0.0,0.0,0.0,0.0,0.0,0.0,0.0,0.0,2.315,2.2914,2.3399,2.3139,2.3814,2.4956,2.1198,2.1307,2.3857,2.0249,0.0,0.0,0.0,0.0,0.0,0.0,0.0,0.0,0.0,0.0,0.0,0.0,0.0,0.0,0.0,0.0,0.0,0.0,0.0,0.0,0.0,0.0,0.0,0.0,2.3768,2.4369,0.0,0.0,0.0,0.0,0.0,0.0,0.0,0.0,0.0,0.0,0.0,0.0,2.4366,2.7819,3.0395,3.1268,3.1032,3.086,3.0996,3.0304,2.9687,2.9276,2.6643,2.4716,0.0,0.0,0.0,0.0,0.0,0.0,0.0,0.0,0.0,0.0,0.0,0.0,0.0,0.0,0.0,0.0,0.0,0.0,0.0,0.0,0.0,0.0,0.0,0.0,0.0,0.0,0.0,0.0,0.0,0.0,0.0,0.0,1.6769,1.6806,0.0,0.0,0.0,0.0,0.0,0.0,0.0,0.0,0.0,0.0,0.0,0.0,0.0,1.8259,2.0969,2.3124,2.4325,2.457,2.6878,2.8193,2.8564,2.7293,2.6827,2.6996,2.6168,0.0,2.3986,2.5855,0.0,0.0,0.0,0.0,0.0,0.0,0.0,0.0,0.0,0.0,0.0,0.0,0.0,0.0,0.0,0.0,0.0,0.0,0.0,0.0,0.0,0.0,2.5983,2.5199,2.5219,2.5415,0.0,2.2715,1.9795,1.8039,1.7539,0.0,0.0,0.0,0.0,0.0,0.0,0.0,2.7193,3.0113,3.1919,3.2033,3.201,3.1825,3.1455,3.1096,3.0716,3.0241,2.9596,2.8697,2.754,2.4962,0.0,0.0,0.0,0.0,0.0,0.0,0.0,0.0,0.0,0.0,0.0,0.0,0.0,0.0,0.0,0.0,0.0,0.0,0.0,0.0,0.0,0.0,0.0,0.0,0.0,0.0,0.0,0.0,0.0,1.6728,1.7792,1.8437,1.7893,1.7133,0.0,0.0,0.0,0.0,0.0,0.0,0.0,0.0,0.0,2.319,2.2276,2.3033,2.5711,2.6484,2.7052,2.7435,2.8734,2.9507,2.9789,2.9002,2.8555,2.8412,2.8451,2.7705,2.6516,2.6684,2.5602,2.3295,0.0,0.0,0.0,0.0,1.7269,2.0641,2.1412,2.3634,2.6121,2.6121,0.0,0.0,0.0,0.0,0.0,0.0,0.0,0.0,0.0,0.0,2.5464,2.5635,2.5549,2.5689,2.6628,2.4922,2.2741,0.0,2.0886,1.9765,1.6165,0.0,0.0,0.0,0.0,2.6583,2.9269,3.1323,3.2778,3.3353,3.3205,3.3119,3.3346,3.3005,3.26,3.2115,3.1477,3.0787,3.0037,2.7714,2.5644,0.0,0.0,0.0,0.0,0.0,0.0,0.0,0.0,0.0,0.0,0.0,0.0,0.0,0.0,0.0,0.0,0.0,0.0,0.0,0.0,0.0,0.0,0.0,0.0,0.0,0.0,0.0,0.0,1.8367,1.928,2.0219,2.0343,1.9635,0.0,0.0,0.0,0.0,0.0,0.0,2.1589,2.2034,2.3649,2.6701,2.6303,2.7287,2.9888,2.9762,2.992,3.0417,3.1053,3.157,3.194,3.1164,3.0452,2.9852,3.0146,2.9977,2.9341,2.7084,2.7335,2.8591,2.2593,1.8799,1.7023,1.9788,2.4118,2.86,2.8388,2.8409,2.852,2.852,2.8296,2.8006,2.8006,0.0,0.0,0.0,0.0,2.4508,2.6225,2.6345,2.6228,2.6904,2.7051,2.7311,2.8413,2.7889,2.6659,0.0,2.4441,2.3402,1.9873,0.0,0.0,0.0,2.6617,2.9836,3.1761,3.3072,3.4053,3.459,3.4454,3.4391,3.4595,3.4413,3.423,3.4072,3.3266,3.2741,3.2627,3.0867,2.9304,2.804,0.0,0.0,0.0,0.0,0.0,0.0,0.0,0.0,0.0,0.0,0.0,0.0,0.0,0.0,0.0,0.0,0.0,0.0,0.0,0.0,0.0,0.0,0.0,0.0,0.0,0.0,0.0,0.0,0.0,2.3034,2.3635,0.0,0.0,0.0,0.0,2.0688,2.2,2.3515,2.5148,2.6039,2.7988,3.1255,2.938,2.9473,3.1837,3.2908,3.3163,3.2659,3.5034,3.656,3.7239,3.5049,3.3153,3.1582,3.1925,3.2046,3.1776,2.8628,2.7399,2.7484,2.7072,2.6185,2.5266,2.6771,2.8024,2.8878,2.8093,2.8168,2.8587,2.8587,2.7724,2.6698,2.6698,2.731,0.0,0.0,2.8496,2.8141,2.9885,3.0811,3.1186,3.0664,3.0974,3.1502,3.1963,3.2087,3.1485,0.0,2.8132,2.752,2.7353,0.0,2.944,3.026,3.1633,3.3282,3.5294,3.6158,3.6274,3.5444,3.5728,3.549,3.4247,3.4516,3.5077,3.5809,3.5286,3.5264,3.5936,3.5001,3.3384,3.1136,2.9292,0.0,0.0,0.0,0.0,0.0,0.0,0.0,0.0,0.0,0.0,0.0,0.0,0.0,0.0,0.0,0.0,0.0,0.0,0.0,0.0,0.0,0.0,0.0,0.0,0.0,0.0,0.0,0.0,2.5884,2.6301,0.0,2.5302,2.5148,2.5601,2.6823,2.7685,2.9026,3.1067,3.1588,3.2603,3.4354,3.3838,3.3522,3.3464,3.4526,3.6318,3.8773,3.9247,3.9095,3.8512,3.9462,3.8458,3.5976,3.6616,3.6602,3.5889,3.3028,3.0486,2.843,2.843,2.8177,2.7842,2.7995,2.8472,2.8917,2.8289,2.8405,2.886,2.886,2.957,3.021,2.8813,3.043,3.2383,3.081,3.0815,3.1422,3.2051,3.2143,3.2036,3.1825,3.2187,3.2893,3.3949,3.3499,3.3233,3.4413,3.3152,3.1359,2.962,3.2467,3.45,3.3108,3.5561,3.793,3.8945,3.8499,3.8312,3.8886,3.7963,3.7335,3.7377,3.7525,3.7472,3.7115,3.6455,3.6077,3.6078,3.5418,3.4651,3.3843,3.3286,3.0219,0.0,0.0,0.0,0.0,0.0,0.0,0.0,0.0,0.0,0.0,0.0,0.0,0.0,0.0,0.0,0.0,0.0,0.0,0.0,0.0,0.0,0.0,0.0,0.0,0.0,2.534,2.7676,2.7923,2.914,2.959,2.852,2.905,2.9961,3.1158,3.1926,3.2969,3.4377,3.4987,3.5772,3.6814,3.6535,3.634,3.6295,3.6883,3.8742,4.1837,4.204,4.1572,4.0579,4.2538,4.2021,3.9645,3.9891,3.9466,3.8366,3.6251,3.3951,3.1653,3.0937,3.01,2.933,2.9913,2.9882,2.9467,2.9027,2.935,2.9993,3.0268,3.1543,3.2845,3.214,3.3818,3.5484,3.3135,3.3196,3.4038,3.4376,3.4362,3.4303,3.4459,3.5065,3.5848,3.6783,3.6403,3.6483,3.852,3.6749,3.466,3.3789,3.6833,3.8762,3.6908,3.9285,4.1239,4.1084,4.0402,4.0177,4.0846,3.9883,3.9293,3.9523,3.8995,3.8718,3.8829,3.7534,3.6807,3.6935,3.6247,3.5598,3.502,3.48,3.1865,2.6112,0.0,0.0,0.0,0.0,0.0,0.0,0.0,0.0,0.0,0.0,0.0,0.0,0.0,0.0,0.0,0.0,0.0,0.0,0.0,0.0,0.0,0.0,0.0,2.5455,2.7743,2.9495,2.9228,3.2258,3.3579,3.1571,3.329,3.4174,3.3341,3.4415,3.5086,3.5014,3.6223,3.7502,3.8796,3.7483,3.7904,4.0321,4.0147,4.0493,4.1423,4.3305,4.4046,4.3732,4.406,4.3551,4.2326,4.1484,4.0378,3.9092,3.8086,3.7535,3.7103,3.484,3.2348,3.0308,3.2977,3.2605,3.0719,3.0463,3.1051,3.2052,3.2821,3.3399,3.4192,3.6308,3.7233,3.7298,3.6113,3.5749,3.5998,3.7005,3.7714,3.8297,3.8739,3.9718,4.052,4.052,4.0938,4.1314,4.1314,3.8773,3.7486,4.0193,4.1495,4.2111,4.1919,4.2802,0.0,4.1723,4.1965,4.1944,4.1114,4.1307,4.1153,4.0358,3.8727,3.8693,4.1014,3.8614,3.7617,3.8787,3.7789,3.6429,3.475,3.3658,3.157,2.8437,0.0,0.0,0.0,0.0,0.0,0.0,0.0,0.0,0.0,0.0,0.0,0.0,0.0,0.0,0.0,0.0,0.0,0.0,0.0,0.0,0.0,2.7922,3.0052,2.8313,3.139,3.3739,3.3505,3.4905,3.579,3.5576,3.5454,3.5881,3.7154,3.7603,3.8318,3.9462,4.0813,4.1714,4.2096,4.2289,4.2699,4.3366,4.3323,4.3427,4.3703,4.424,4.443,4.4357,4.4444,4.4299,4.3982,4.3979,4.3642,4.2959,4.1663,4.1446,4.1542,3.7336,3.5121,3.4385,3.5143,3.5032,3.4475,3.4155,3.4397,3.4818,3.4647,3.5266,3.6331,3.7542,3.8442,3.9055,3.931,3.9259,3.9131,3.8981,3.9399,3.987,4.0003,4.0571,4.1087,4.1087,4.1195,4.1428,4.187,4.1544,4.1321,4.1686,4.2951,4.39,4.3846,4.4774,0.0,4.4999,4.4216,4.3704,4.3595,4.211,4.144,4.2168,4.103,4.0895,4.2382,4.054,3.9557,3.9863,3.8427,3.7444,3.706,3.4849,3.2906,0.0,0.0,0.0,0.0,0.0,0.0,0.0,0.0,0.0,0.0,0.0,0.0,0.0,0.0,0.0,0.0,0.0,0.0,0.0,0.0,0.0,0.0,3.1255,3.3672,3.313,3.4983,3.6338,3.6235,3.737,3.8278,3.8564,3.8461,3.8851,3.9938,4.0388,4.1042,4.1957,4.3139,4.3818,4.3891,4.4364,4.4729,4.498,4.498,4.5081,4.5307,4.5307,4.5307,4.5307,4.5307,4.5307,4.5321,4.5286,4.517,4.4901,4.3966,4.38,0.0,0.0,0.0,0.0,0.0,3.6692,3.689,3.6399,3.6942,3.7845,3.7522,3.8446,3.9825,4.0555,4.1194,4.1699,4.173,4.1632,4.1352,4.0537,4.0761,4.1207,4.1207,4.1625,4.2019,4.2019,4.2019,4.2133,4.2462,4.3151,0.0,4.3251,4.4192,4.498,4.498,4.5733,4.621,4.5999,4.5477,4.5172,4.5308,4.4047,4.3431,4.3998,4.2585,0.0,0.0,0.0,3.9821,3.9367,3.7983,0.0,0.0,0.0,0.0,0.0,0.0,0.0,0.0,2.899,2.8217,0.0,0.0,0.0,0.0,0.0,0.0,0.0,0.0,0.0,0.0,0.0,0.0,0.0,0.0,0.0,0.0,3.4319,3.7381,3.8481,3.8193,3.7888,3.7873,3.942,4.0517,4.0594,4.15,4.2044,4.1868,4.2605,4.3122,4.3179,4.3973,0.0,0.0,0.0,4.5056,4.5573,4.5587,4.5824,4.6286,4.6286,4.6286,4.6286,4.6286,4.6286,4.6261,4.5799,4.5587,4.5577,4.5327,4.5066,4.4657,4.3259,4.1856,4.0401,3.8641,3.8425,3.8894,3.8246,0.0,0.0,4.0905,4.203,4.3529,4.4012,4.4361,4.4403,4.3452,4.3176,4.2936,4.1854,4.1932,4.2299,4.2299,4.2637,4.3014,4.3014,4.3014,4.3014,4.3014,4.3865,4.4589,4.4589,4.5146,4.5587,4.5587,4.5999,4.6125,4.5648,4.5999,4.6235,4.611,0.0,0.0,4.5422,4.3492,4.2576,4.3226,4.1267,3.9546,3.8429,3.7512,3.7273,3.7763,3.7373,3.8115,4.0087,4.0538,3.9996,3.8326,3.2921,3.0909,0.0,0.0,0.0,0.0,0.0,0.0,0.0,0.0,0.0,0.0,0.0,0.0,0.0,0.0,0.0,3.2599,3.6165,3.9027,3.9966,3.9829,3.9614,3.9626,4.0144,4.067,4.1097,4.1767,4.2347,4.2707,4.3302,4.3828,4.4267,4.4903,4.5294,4.5321,4.5748,4.6035,4.6135,4.615,4.62,4.6286,0.0,0.0,4.6286,4.6286,4.6286,4.6286,4.62,4.615,4.615,4.6084,4.6044,4.5844,4.4655,4.3991,4.366,4.3076,4.3066,4.3329,4.2964,4.3257,4.3734,4.3288,4.3433,4.3729,4.3855,4.4209,0.0,4.4353,4.4278,4.4127,4.3489,4.3076,4.2838,4.2838,4.2925,4.3014,4.3014,4.3014,4.3014,4.3014,4.3865,4.4589,4.4589,4.5457,4.615,4.615,4.6235,4.6261,4.6175,4.625,4.5959,4.5031,4.4529,4.4418,4.4754,4.3603,4.3467,4.4934,4.3352,4.1856,4.0725,4.0916,4.1118,4.1244,4.157,4.192,4.2347,4.2473,4.2337,4.1966,3.9885,3.8322,0.0,0.0,0.0,0.0,0.0,0.0,0.0,0.0,0.0,0.0,0.0,2.6392,2.8339,0.0,3.3822,3.5604,3.8137,4.0143,4.0989,4.0985,4.0894,4.0894,4.1176,4.1569,4.2094,4.2674,4.3226,4.3765,4.4066,4.4453,4.502,4.5321,4.5638,4.5899,4.616,4.6286,4.6286,4.6286,4.6286,4.6286,4.6286,4.6286,4.6286,4.6286,4.6286,4.6286,4.6286,4.6286,4.6286,4.6286,4.6286,4.6235,4.5683,4.5282,4.4991,4.4569,4.4673,4.4991,4.4555,4.4849,4.5357,4.4819,4.4819,4.5045,4.5045,4.5231,4.5382,4.5121,4.483,4.4478,4.394,4.3402,4.3014,4.3014,4.3014,4.3014,4.3014,4.3014,4.3076,4.3352,4.4066,4.4704,4.4995,4.5522,4.5999,4.6261,4.6286,4.6286,4.6286,4.6286,4.6085,4.5508,4.5206,4.5045,4.5045,4.4292,4.4166,4.4995,4.4016,4.3137,4.2557,4.2573,4.2738,4.2989,4.3251,4.3539,4.379,4.379,4.3664,4.3402,4.3098,4.2229,0.0,0.0,0.0,0.0,0.0,0.0,0.0,2.4129,2.5168,2.8542,2.9769,3.0726,3.2249,3.4277,3.6356,3.8208,3.9765,4.0989,4.1691,4.1802,4.1878,4.2067,4.2258,4.2576,4.3101,4.3639,4.4177,4.4729,4.478,4.5031,4.5623,4.5663,4.5849,4.6301,4.6286,4.6286,4.6286,4.6286,4.625,4.615,4.6235,4.625,4.615,4.6235,4.6286,4.6286,4.6286,4.6286,4.6286,4.6286,4.6286,4.6286,4.6286,4.605,4.5598,4.5106,4.5231,4.5573,4.5106,4.5533,4.6225,4.5799,4.5949,4.6286,4.6286,4.6286,4.621,4.5773,4.5146,4.4489,4.4066,4.3478,4.3014,4.3014,4.3014,4.3014,4.3014,4.3014,4.3151,4.3689,4.4227,4.478,4.5412,4.5587,4.5788,4.61,4.6135,4.6135,4.6135,4.625,4.6286,4.6286,4.6286,4.6125,4.5673,4.5206,4.488,4.478,4.4367,4.4091,4.3966,4.3653,4.3678,4.4116,4.4242,4.4443,4.478,4.478,4.4554,4.4141,4.4579,4.4177,2.2663,2.3074,2.428,2.4009,2.5267,2.7516,0.0,3.066,3.039,3.3055,3.3668,3.4027,3.4933,3.6684,3.8222,3.8768,4.0385,4.1716,4.2105,4.2139,4.2503,4.3455,4.3165,4.3126,4.3664,4.4217,4.4754,4.5347,4.5412,4.5623,4.6175,4.621,4.625,4.6286,4.6286,4.6286,4.6286,4.6286,4.6075,4.5612,4.606,4.605,4.5612,4.6075,4.6286,4.6286,4.6286,4.6286,4.6286,4.6286,4.6286,4.6286,4.6286,4.6261,4.6185,4.6135,4.6135,4.6185,4.6135,4.6185,4.6286,4.6225,4.6235,4.6286,4.6286,4.6286,4.6301,4.6225,4.5432,4.4604,4.4529,4.3765,4.3014,4.3014,4.3014,4.3014,4.3014,4.3014,4.3151,4.3689,4.4227,4.478,4.5412,4.5899,4.6075,4.5648,4.5587,4.5587,4.5587,4.5999,4.6286,4.6286,4.6286,4.6261,4.6225,4.6135,4.5924,4.5422,4.5321,4.507,4.4529,4.497,4.5261,4.5311,4.5773,4.5824,4.5412,4.5412,4.5386,4.5311,4.5386,4.4794,2.9616,2.9054,2.8568,2.9389,3.0446,3.1672,3.3137,3.3168,3.3665,3.6353,3.7323,3.7789,3.8123,3.9234,4.0266,4.0754,4.1475,4.2258,4.3014,4.3126,4.3413,4.4177,4.4367,4.4532,4.4784,4.4995,4.5372,4.5924,4.5974,4.6075,4.6286,4.6286,4.6286,4.6286,4.6286,4.615,4.5824,4.5824,4.5547,4.498,4.5206,4.5181,4.4995,4.5573,4.5999,4.6286,4.6286,4.6286,4.6286,4.6286,4.6286,4.6286,4.6286,4.6286,4.6286,4.6286,4.6286,4.6286,4.6286,4.6286,4.6286,4.6286,4.6421,4.6566,4.6346,4.6446,4.6566,4.6346,4.5482,4.4589,4.4589,4.3815,4.3014,4.3014,4.3226,4.3478,4.3478,4.3856,4.4331,4.4712,4.5116,4.5487,4.5904,4.5899,4.5748,4.5537,4.5512,4.5512,4.5512,4.5713,4.5949,4.6261,4.6286,4.6286,4.6286,4.6286,4.6185,4.5974,4.5974,4.5834,4.5608,4.5824,4.5974,4.5974,4.62,4.62,4.5974,4.5974,4.5799,4.5512,4.5512,4.5045,3.2282,3.2153,3.1885,3.328,3.4662,3.5606,3.5359,3.5587,3.6482,3.869,3.9651,4.0158,4.0385,4.1034,4.1681,4.2123,4.245,4.2914,4.3689,4.394,4.4242,4.478,4.5221,4.5562,4.5698,4.5723,4.5874,4.6261,4.6286,4.6286,4.6286,4.6286,4.6286,4.6286,4.6286,4.605,4.5512,4.5512,4.5121,4.4378,4.4529,4.4529,4.4403,4.5146,4.5698,4.6075,4.6075,4.5984,4.5834,4.5834,4.5834,4.5834,4.5834,4.5834,4.5834,4.5834,4.6035,4.6286,4.6286,4.6286,4.6286,4.6286,4.6451,4.6626,4.6361,4.6451,4.6626,4.6386,4.5608,4.4805,4.464,4.4027,4.3402,4.3251,4.3639,4.4027,4.4027,4.4641,4.5272,4.5456,4.5901,4.6289,4.6492,4.6326,4.615,4.615,4.5899,4.5688,4.5512,4.5512,4.5698,4.6235,4.601,4.5959,4.6261,4.616,4.615,4.6286,4.6286,4.6286,4.6286,4.6286,4.6286,4.6286,4.6286,4.6225,4.6075,4.6075,4.5874,4.5512,4.5664,4.5466,2.7112,2.9555,3.2488,3.3851,3.6821,3.937,3.9106,3.9058,3.9262,3.9918,4.0083,4.0347,4.113,4.177,4.2174,4.2199,4.3076,4.3765,4.379,4.4252,4.4805,4.5412,4.5487,4.5698,4.6225,4.6261,4.6286,4.6286,4.6286,4.6286,4.6286,4.6286,4.6286,4.6286,4.6286,4.605,4.5512,4.5512,4.4934,4.384,4.4353,4.4328,4.3865,4.4985,4.5512,4.5537,4.5537,4.5196,4.464,4.464,4.464,4.464,4.464,4.464,4.464,4.464,4.5357,4.6286,4.6286,4.6286,4.6286,4.6286,4.6301,4.6301,4.6286,4.6301,4.6301,4.6286,4.5899,4.5321,4.4754,4.4579,4.4428,4.389,4.4177,4.4579,4.4579,4.5045,4.5487,4.5487,4.6351,4.7089,4.7074,4.749,4.7832,4.7832,4.6938,4.61,4.5562,4.5512,4.5698,4.6235,4.5307,4.5106,4.621,4.5824,4.5748,4.6261,4.6286,4.6286,4.6286,4.6286,4.6286,4.6286,4.6286,4.605,4.5537,4.5537,4.5512,4.5527,4.6108,4.6185,3.0925,3.2895,3.4892,3.6988,3.83,3.9098,3.9188,3.9509,3.9905,4.0294,4.1003,4.1632,4.1918,4.2707,4.3327,4.3327,4.3896,4.4478,4.4869,4.507,4.5397,4.5974,4.6024,4.5974,4.5773,4.5773,4.5773,4.5773,4.5397,4.5357,4.5748,4.5773,4.5924,4.6286,4.6662,4.6587,4.605,4.6024,4.5648,4.492,4.4342,4.3976,4.3815,4.4192,4.4769,4.5512,4.5874,4.5924,4.5759,4.612,4.6045,4.5733,4.5733,4.5733,4.5733,4.5733,4.5959,4.6185,4.5432,4.5432,4.5773,4.5773,4.6174,4.6596,4.6386,4.6461,4.6551,4.609,4.5844,4.557,4.5022,4.4709,4.4442,4.413,4.4488,4.4872,4.4872,4.576,4.6401,4.5815,4.6278,4.6575,4.6028,4.6538,4.7103,4.7344,4.6763,4.6125,4.5587,4.5512,4.5698,4.6235,4.5648,4.5497,4.625,4.5799,4.5723,4.6261,4.6286,4.6286,4.6286,4.6286,4.6286,4.6286,4.6286,4.621,4.6024,4.6024,4.5849,4.5527,4.5874,4.5959,3.3445,3.4966,3.6277,3.8736,3.9526,3.9712,3.9779,4.026,4.0765,4.1031,4.1351,4.1724,4.2142,4.2815,4.3439,4.3942,4.4833,4.5579,4.5892,4.6086,4.6239,4.627,4.6286,4.61,4.5547,4.5296,4.5171,4.5171,4.483,4.478,4.5171,4.5372,4.5748,4.6286,4.6823,4.6923,4.6587,4.6386,4.5824,4.4884,4.4342,4.4077,4.4077,4.4317,4.492,4.5799,4.615,4.6286,4.6311,4.6687,4.6612,4.6286,4.6286,4.6286,4.6286,4.6286,4.6286,4.6185,4.5457,4.5457,4.5773,4.5773,4.6159,4.6566,4.621,4.6406,4.6602,4.607,4.6041,4.6041,4.5298,4.5098,4.4943,4.4428,4.472,4.5116,4.5116,4.5976,4.6525,4.5765,4.6229,4.6489,4.573,4.6331,4.6923,4.6909,4.6887,4.6627,4.5874,4.5773,4.5999,4.6537,4.6125,4.6075,4.6828,4.6361,4.621,4.6562,4.6587,4.6512,4.6311,4.6286,4.6286,4.6286,4.6286,4.6225,4.6024,4.6104,4.6047,4.584,4.6342,4.6965,3.4396,3.5703,3.6801,3.9098,4.0479,4.1232,4.0972,4.1337,4.1802,4.2056,4.1171,4.068,4.1709,4.2086,4.2629,4.3897,4.5702,4.6903,4.6711,4.7132,4.7164,4.635,4.6286,4.6075,4.5487,4.4905,4.4579,4.4529,4.4529,4.4529,4.4564,4.5095,4.5673,4.6235,4.6772,4.7074,4.7099,4.6612,4.5533,4.394,4.4428,4.4654,4.4665,4.5196,4.5748,4.6286,4.6336,4.6361,4.6386,4.6426,4.6411,4.6386,4.6386,4.6386,4.6386,4.6386,4.6386,4.6386,4.6386,4.6361,4.6336,4.6321,4.6346,4.6295,4.5953,4.6203,4.6563,4.6198,4.6497,4.6669,4.5613,4.5782,4.5921,4.4843,4.4986,4.5361,4.5309,4.5718,4.5914,4.5408,4.6175,4.6748,4.6216,4.6841,4.7234,4.6681,4.7308,4.745,4.6436,4.6336,4.6562,4.7023,4.6612,4.6712,4.7767,4.7365,4.7074,4.7149,4.7124,4.6873,4.6361,4.6311,4.6286,4.6286,4.6326,4.608,4.5567,4.5887,4.6199,4.6498,4.7531,4.9201,3.5945,3.7976,3.9804,4.0414,4.0943,4.1288,4.1222,4.1663,4.1828,4.0952,4.0872,4.0633,3.9478,4.1168,4.267,4.251,4.4743,4.6451,4.6406,4.6514,4.6366,4.5783,4.6075,4.5773,4.4367,4.4453,4.4278,4.3478,4.3402,4.3589,4.3976,4.4141,4.4694,4.5673,4.621,4.6712,4.7099,4.6973,4.6471,4.5673,4.5397,4.5271,4.5246,4.4955,4.5357,4.6311,4.6722,4.7139,4.7531,4.7973,4.7883,4.749,4.749,4.749,4.749,4.749,4.749,4.749,4.749,4.7239,4.6852,4.6607,4.6805,4.7066,4.6723,4.6728,4.6748,4.6416,4.6711,4.6979,4.6297,4.675,4.7109,4.6153,4.6127,4.6195,4.5637,4.5615,4.5704,4.5542,4.5549,4.5737,4.6241,4.6228,4.6258,4.657,4.6783,4.6772,4.6356,4.6988,4.7239,4.6587,4.6386,4.6562,4.7249,4.6813,4.6838,4.7641,4.7324,4.7048,4.6898,4.6512,4.6286,4.6286,4.6566,4.661,4.6458,4.7436,4.7722,4.7438,4.9919,5.1292,3.7996,3.955,4.0774,4.1027,4.1386,4.1537,4.0974,4.1296,4.1196,3.9342,3.9026,3.8664,3.7289,3.9571,4.174,4.1957,4.4777,4.6938,4.6847,4.6836,4.6498,4.5611,4.5788,4.5372,4.394,4.4077,4.3915,4.3051,4.3014,4.3126,4.3427,4.389,4.4568,4.5487,4.6235,4.6813,4.7099,4.7324,4.7064,4.6286,4.6235,4.6075,4.5849,4.5508,4.5959,4.7029,4.7315,4.7917,4.8686,4.9003,4.8953,4.8661,4.8661,4.8661,4.8661,4.8661,4.8661,4.862,4.8478,4.8702,4.8814,4.7399,4.7137,4.7316,4.6842,4.7361,4.7913,4.6826,4.7969,4.9204,4.7959,4.8527,4.9286,4.8518,4.8413,4.8126,4.6769,4.6669,4.6609,4.5873,4.5572,4.5605,4.611,4.5889,4.5857,4.643,4.6642,4.6746,4.6788,4.7448,4.7666,4.7079,4.7456,4.7883,4.8168,4.7917,4.7908,4.8275,4.8288,4.8165,4.7911,4.7886,4.7873,4.7873,4.8079,4.8185,4.817,4.9533,5.0023,4.9774,5.2131,5.3571,3.9961,4.0563,4.0738,4.1277,4.182,4.189,4.0686,4.0573,4.0029,3.7573,3.6572,3.5897,3.516,3.7642,4.0272,4.1596,4.4933,4.7352,4.7354,4.7274,4.6774,4.5534,4.5372,4.4934,4.379,4.3765,4.3578,4.3039,4.3065,4.3115,4.3115,4.3976,4.4805,4.5487,4.6461,4.6998,4.6998,4.7465,4.7265,4.6411,4.6813,4.6772,4.6411,4.6336,4.6888,4.7908,4.7908,4.856,4.959,4.959,4.959,4.959,4.959,4.959,4.959,4.959,4.959,4.9542,4.9218,5.0021,5.0814,4.8545,4.7946,4.8024,4.7394,4.8567,4.9768,4.803,4.9934,5.2085,5.0235,5.0859,5.1821,5.1273,5.1117,5.0581,4.8653,4.8487,4.8182,4.647,4.6279,4.6311,4.6062,4.5938,4.6012,4.6332,4.6595,4.6846,4.7176,4.7711,4.8021,4.7917,4.8862,4.949,4.949,4.949,4.9362,4.9071,4.9418,4.9522,4.9153,4.9705,5.006,5.015,5.0371,5.0461,5.0404,5.1878,5.2559,5.2574,5.4246,5.5809,4.0292,4.0826,4.1302,4.1909,4.2123,4.1991,4.1154,3.9837,3.8204,3.616,3.5205,3.4392,3.3231,3.6039,3.8922,4.0084,4.3027,4.5477,4.6372,4.6134,4.559,4.4834,4.4754,4.4328,4.3226,4.3553,4.3578,4.3039,4.3402,4.3664,4.3664,4.384,4.4418,4.5462,4.6125,4.6436,4.6436,4.6537,4.6712,4.6948,4.6612,4.6637,4.6948,4.6512,4.6888,4.7908,4.7908,0.0,4.959,4.959,4.959,4.959,4.959,4.959,4.959,4.959,4.959,4.9542,4.9218,4.9274,4.9563,4.9863,5.0893,5.1933,5.1507,5.181,5.2257,5.192,5.2463,5.3067,5.2687,5.3263,5.3734,5.3018,5.2831,5.2588,5.1809,5.0907,4.9662,4.7767,4.8267,4.8504,4.6851,4.7069,4.7252,4.6516,4.6072,4.5937,4.6265,4.7843,4.8634,4.7977,4.8526,4.8944,4.8944,4.8944,4.9317,5.0228,4.9457,4.942,5.0449,5.0586,5.0904,5.1448,5.2463,5.2963,5.2963,5.4006,5.4248,5.3852,5.6391,5.7331,4.0837,4.1315,4.1804,4.2116,4.2199,4.1592,3.9192,3.7683,3.595,3.2987,3.2142,3.1707,3.1103,3.4079,3.7057,3.8294,4.1642,4.4397,4.5289,4.5703,4.5598,4.469,4.4589,4.4177,4.3101,4.3226,4.3402,4.3413,4.3639,4.379,4.379,4.4367,4.507,4.5899,4.6175,4.6286,4.6286,4.6587,4.6863,4.7099,4.6823,4.6848,4.7074,4.6537,4.6737,4.7516,4.7767,4.8385,4.9204,4.9464,4.959,4.959,4.959,4.959,4.9574,4.9396,4.987,5.0537,5.0162,5.1179,5.2727,5.313,5.2551,5.1838,5.262,5.3468,5.3992,5.329,5.4437,5.5648,5.4819,5.5479,5.6291,5.5936,5.4983,5.4147,5.4204,5.2847,5.1395,5.0731,5.1134,5.1165,4.9893,4.976,4.9754,4.9552,4.85,4.797,4.861,4.8699,4.8423,4.7758,4.8686,4.9299,4.9211,4.9286,4.9684,5.0547,5.0123,5.0684,5.2598,5.2855,5.3428,5.4399,5.497,5.5253,5.5253,5.6356,5.6634,5.6262,5.7914,5.8363,4.1316,4.1594,4.1934,4.1994,4.1909,4.0871,3.7234,3.5558,3.3815,3.0307,2.9375,2.9315,2.9728,3.2436,3.5228,3.711,4.0486,4.3266,4.4435,4.5377,4.5626,4.4708,4.4503,4.4052,4.3076,4.3101,4.3352,4.3765,4.4041,4.4166,4.4166,4.5121,4.5874,4.6301,4.6286,4.6286,4.6286,4.6737,4.6923,4.6923,4.6923,4.6923,4.6923,4.6486,4.6572,4.7124,4.7541,4.8058,4.8652,4.9204,4.9591,4.9862,5.0098,5.034,5.0499,5.0378,5.1085,5.2055,5.1673,5.3239,5.5486,5.5806,5.4198,5.247,5.4069,5.5365,5.6033,5.511,5.6752,5.8538,5.7253,5.7878,5.8774,5.8571,5.7382,5.625,5.6051,5.4816,5.367,5.3539,5.3755,5.3591,5.2585,5.2287,5.2259,5.2368,5.1092,5.0377,5.1073,4.9986,4.8919,4.8344,4.9369,5.0017,4.9831,5.0468,5.1041,5.1475,5.154,5.2544,5.4754,5.5251,5.6021,5.7146,5.7516,5.7614,5.7484,5.8518,5.878,5.8335,5.8787,5.8814,4.1285,4.1336,4.1385,4.1386,4.1014,3.9906,3.7058,3.4553,3.2243,3.0049,2.8627,2.8327,3.0103,3.1699,3.3932,3.7519,3.9407,4.1411,4.4216,4.4745,4.4785,4.4634,4.4177,4.3639,4.3065,4.3452,4.374,4.379,4.4744,4.5321,4.5321,4.5899,4.6235,4.6286,4.6286,4.6286,4.6286,4.6336,4.6361,4.6361,4.6361,4.6361,4.6361,4.6311,4.6572,4.7099,4.7149,4.749,0.0,4.8626,4.9553,5.0689,5.1736,5.2689,5.3565,5.4094,5.424,5.4074,5.3675,5.3738,5.4229,5.5706,5.6764,5.7628,5.8409,5.8952,5.9365,5.9815,6.0376,6.0799,6.0643,6.0729,6.0621,5.9759,6.0055,5.9848,5.7265,5.721,5.6981,5.4666,5.5197,5.5241,5.2814,5.3363,5.3738,5.2585,5.182,5.1441,5.1458,5.1667,5.1579,5.0851,5.0901,5.0854,5.054,5.2875,5.435,5.4426,5.4204,5.4699,5.6164,5.6736,5.7454,5.8425,5.9869,6.0321,5.9707,6.0176,5.9823,5.868,5.8691,5.8417,4.0786,4.1038,4.1206,4.0896,4.035,3.8979,3.5511,3.2992,3.072,2.8277,2.7057,2.6991,2.8996,3.0133,3.1909,3.5414,3.6982,3.859,4.1003,4.2954,4.3869,4.3076,4.3862,4.415,4.3335,4.3576,4.4091,4.4784,4.5547,4.5974,4.5974,4.6175,4.6286,4.6286,4.6286,4.6286,4.6286,4.6286,4.6481,4.6845,4.6845,4.6845,4.6845,4.6845,4.6972,4.7185,4.7531,4.841,0.0,5.0187,5.1376,5.2846,5.3124,5.3734,5.442,5.4259,5.4787,5.5515,5.5315,5.5922,5.6877,5.7678,5.8583,5.9384,5.9666,5.9981,6.034,6.0776,6.0707,6.0505,6.0505,6.0505,6.0388,6.0022,6.0227,6.0084,5.851,5.8469,5.8433,5.74,5.7608,5.7553,5.6122,5.6022,5.6207,5.6461,5.5019,5.4179,5.4941,5.3887,5.2854,5.2402,5.2834,5.2747,5.1767,5.3122,5.4005,5.3951,5.3555,5.4389,5.6776,5.6916,5.7659,5.9093,5.9771,5.9895,5.9466,5.9629,5.9341,5.8707,5.8321,5.8031,4.0279,4.0709,4.0938,4.0405,3.9736,3.8256,3.4473,3.2042,2.9852,2.7147,2.6063,2.6147,2.7985,2.9009,3.0596,3.3709,3.5216,3.6936,3.9656,4.2099,4.3469,4.3162,4.4358,4.4797,4.3704,4.388,4.4518,4.5648,4.61,4.6286,4.6286,4.6466,4.6586,4.6586,4.6586,4.6661,4.6855,4.7176,4.7387,4.7501,4.8155,4.83,4.7977,4.7977,4.8155,4.8474,4.8556,4.9503,0.0,5.1541,5.268,5.4149,5.4488,5.5069,5.5651,5.552,5.6165,5.7118,5.706,5.7846,5.8841,5.9031,5.9697,6.0386,6.0386,6.0562,6.0839,6.1273,6.0924,6.0459,6.0639,6.0699,6.0639,6.0459,6.0549,6.04,5.9338,5.9249,5.9338,5.9129,5.9099,5.8909,5.8292,5.7849,5.7856,5.8772,5.7395,5.6565,5.7487,5.6189,5.5097,5.4696,5.5364,5.5068,5.3135,5.4386,5.51,5.463,5.4559,5.5497,5.7675,5.7571,5.8121,5.9459,5.9727,5.9592,5.9099,5.9308,5.9047,5.8404,5.7989,5.7795,3.9921,4.0287,4.0389,3.9839,3.9159,3.773,3.4365,3.2042,2.9852,2.7147,2.6063,2.6004,2.7375,2.8686,3.0446,3.3066,3.4636,3.703,4.1451,4.2666,4.3817,4.5736,4.5996,4.5487,4.423,4.4391,4.5066,4.621,4.6286,4.6286,4.6286,4.6874,4.7191,4.7191,4.7191,4.7501,4.8157,4.9222,4.9222,4.8216,5.0408,5.085,4.9778,4.9778,5.0394,5.1398,5.0255,5.0422,0.0,5.2139,5.2985,5.4069,5.5884,5.7012,5.783,5.9007,5.9288,5.9072,5.9072,5.9072,5.9099,5.9099,6.0013,6.109,6.109,6.109,6.1239,6.1912,6.1613,6.1239,6.1912,6.2061,6.1912,6.1239,6.1613,6.1523,5.9548,5.9608,5.9891,5.9219,5.9099,5.8909,5.8292,5.8181,5.8181,5.8225,5.8181,5.8137,5.8095,5.864,5.8776,5.8118,5.8656,5.7749,5.4554,5.746,5.886,5.754,5.8444,5.9042,5.9085,5.9085,5.9207,5.9489,6.0236,6.0101,5.9099,5.9771,5.9302,5.7809,5.7795,5.7795,3.7213,3.799,3.8258,3.7162,3.6379,3.522,3.2794,3.0693,2.8599,2.6374,2.5388,2.5334,2.6674,2.7273,2.9152,3.4083,3.4839,3.6403,4.0968,4.2541,4.3273,4.3396,4.4266,4.4728,4.4472,4.5077,4.5704,4.625,4.6286,4.6286,4.6286,4.6874,4.7563,4.8332,4.8752,4.9466,5.0449,5.0796,5.1016,5.114,5.1847,5.1996,5.1658,5.1658,5.1847,5.2171,5.1807,5.2518,5.398,5.4159,5.5163,5.6579,5.6728,5.7247,5.7975,5.8401,5.8494,5.8427,5.8427,5.8726,5.9026,5.8577,5.9325,6.0505,6.094,6.1419,6.1642,6.0938,6.0565,6.0459,6.0669,6.1074,6.1239,6.0565,6.0924,6.0984,5.9428,5.9279,5.9338,5.9129,5.9099,5.9031,5.8855,5.8456,5.851,5.9368,5.8753,5.849,5.936,5.9249,5.9009,5.883,5.8966,5.8502,5.7026,5.7919,5.8171,5.7271,5.7566,5.7932,5.8397,5.8427,5.8677,5.9221,5.9268,5.9022,5.847,5.8528,5.8152,5.7458,5.7458,5.7458,3.4681,3.6089,3.6592,3.5791,3.4909,3.369,3.167,2.9682,2.7656,2.5633,2.4903,2.4933,2.6028,2.6644,2.844,3.2886,3.3702,3.5364,3.9967,4.1515,4.2441,4.3215,4.4019,4.4664,4.4988,4.5461,4.583,4.5989,4.64,4.656,4.6357,4.7741,4.908,5.0226,5.0226,5.0823,5.2211,5.2623,5.285,5.2855,5.3721,5.3902,5.3486,5.3486,5.3721,5.4109,5.3682,5.4343,0.0,5.5745,5.6303,5.7101,5.6954,5.7066,5.7359,5.7614,5.7709,5.7709,5.7709,5.8158,5.8637,5.8234,5.8996,6.019,6.0595,6.1194,6.1433,6.0086,5.9727,5.9847,6.0356,6.0805,6.106,6.0894,6.0984,6.0791,5.9697,5.9279,5.9099,5.9099,5.9099,5.9099,5.9099,5.8787,5.8796,5.9583,5.9055,5.884,5.9627,5.9368,5.9189,5.9458,5.9249,5.9026,5.889,5.8637,5.8188,5.75,5.7723,5.8052,5.8457,5.8487,5.8613,5.8936,5.8803,5.8472,5.8059,5.7767,5.7486,5.7289,5.7071,5.7086,0.0,3.4176,3.4987,3.4996,3.4056,3.2643,3.0726,2.8808,0.0,2.4987,2.4569,2.4784,2.5579,2.6734,2.8267,3.0552,3.2011,3.444,3.8942,4.0164,4.1688,4.4762,4.4969,4.5106,4.5641,4.5572,4.5502,4.5496,4.6522,4.6953,4.6473,4.921,5.1319,5.2467,5.1592,5.1932,5.3636,5.468,5.468,5.3675,5.5794,5.6256,5.5228,5.5228,5.5807,5.6737,5.5695,5.5831,5.6798,5.6773,5.6482,5.6089,5.6604,5.6531,5.6218,5.6808,5.7047,5.7047,5.7047,5.747,5.8038,5.8085,5.8996,6.01,6.004,6.0505,6.0761,5.9444,5.9099,5.9398,6.0641,6.1,6.118,6.1762,6.1463,6.0864,6.016,5.9548,5.9099,5.9099,5.9099,5.9099,5.9099,5.9099,5.9099,5.9099,5.9099,5.9099,5.9099,5.9099,5.9338,5.9951,5.9458,5.9338,5.998,5.9458,5.8816,5.8205,5.8756,5.9085,5.9072,5.9085,5.895,5.868,5.8666,5.8335,5.7767,5.7444,5.7274,5.7216,5.6665,5.6651,2.718,0.0,3.0444,2.9537,2.9014,2.8468,0.0,2.6625,2.5652,2.4729,2.4147,2.4507,2.6704,2.698,2.865,3.4181,3.5729,3.7674,4.177,4.2846,4.3751,4.5236,4.4965,4.4892,4.5476,4.5527,4.5502,4.5497,4.6185,4.6732,4.7077,4.9449,5.1319,5.2467,5.3525,5.4705,5.598,5.6268,5.6268,5.6004,5.6524,5.6664,5.639,5.639,5.6537,5.6785,5.65,5.6537,5.6785,5.6579,5.6421,5.6274,5.6006,5.5847,5.5812,5.6269,5.6402,5.6402,5.6402,5.6808,5.7423,5.7935,5.8996,6.001,5.9488,5.9787,6.0146,5.9338,5.9099,5.9189,5.9488,5.9937,6.025,5.9907,6.0086,6.0146,5.9488,5.9219,5.9099,5.9099,5.9099,5.9099,5.9099,5.9099,5.9099,5.9099,5.9099,5.9099,5.9099,5.9099,5.9159,5.9308,5.9189,5.9159,5.9308,5.9189,5.9026,5.8876,5.8996,5.9004,5.8787,5.8977,5.8855,5.8335,5.8128,5.7822,5.7416,5.7331,5.7071,5.6607,5.6477,5.6186,2.4258,2.7013,2.9378,2.878,2.8339,2.7922,2.733,2.6031,2.4814,2.4171,2.4041,2.4681,2.677,2.8075,3.0126,3.4023,3.6431,3.918,4.3161,4.4717,4.5635,4.6088,4.6082,4.5794,4.5144,4.5571,4.5777,4.5562,4.6599,4.7612,4.8489,5.0725,5.2509,5.3656,5.511,5.6195,5.6785,5.6798,5.6798,5.6798,5.6798,5.6798,5.6798,5.6798,5.6798,5.6798,5.6798,5.6725,5.6616,5.6458,5.6262,5.6003,5.5706,5.5518,5.5453,5.5674,5.5743,5.5743,5.5743,5.6329,5.7214,5.7889,5.8786,5.9578,5.9219,5.9338,5.9561,5.9189,5.9308,5.9638,5.9923,6.0296,6.0535,6.0505,6.0266,6.001,5.9651,5.9308,5.9099,5.9099,5.9099,5.9099,5.9099,5.9099,5.9099,5.9099,5.9099,5.9099,5.9099,5.9099,5.9099,5.9099,5.9099,5.9099,5.9099,5.9099,5.9099,5.9099,5.8977,5.8841,5.8721,5.8691,5.8486,5.8045,5.7739,5.7472,5.7303,5.7303,5.6984,5.639,5.607,5.5765,2.327,2.6709,2.99,2.9338,2.8945,2.8558,2.7793,2.6057,2.4464,2.3881,2.4382,2.5483,2.732,2.994,3.2265,3.3619,3.6682,4.0149,4.3767,4.5533,4.6583,4.6873,4.7047,4.6524,4.5016,4.5603,4.5967,4.5747,4.7179,4.8687,5.0033,5.2208,5.3964,5.5226,5.6372,5.7013,5.7106,5.689,5.6859,5.6952,5.6952,5.7013,5.7106,5.7106,5.7106,5.7106,0.0,0.0,5.6549,5.6513,5.6144,5.5593,5.5543,5.5393,5.5192,5.5192,5.5192,5.5192,5.5192,5.603,5.7184,5.7769,5.8457,5.9099,5.9099,5.9099,5.9099,5.9099,5.9518,6.0086,6.0641,6.0791,6.094,6.1523,6.0775,5.9951,5.9951,5.9488,5.9099,5.9099,5.9099,5.9115,5.9249,5.9159,5.9115,5.9249,5.9159,5.9099,5.9099,5.9099,5.9099,5.9099,5.9099,5.9099,5.9099,5.9099,5.9099,5.9099,5.8841,5.8694,5.8623,5.8266,5.7974,5.7795,5.7458,5.7303,5.7303,5.7216,5.6868,5.6215,5.5577,5.52,2.5477,2.8393,2.9763,2.5968,2.6088,2.687,2.572,2.5275,2.5059,2.4976,2.5664,2.7566,3.1666,3.2856,3.4681,3.9308,4.0915,4.2311,4.4348,4.4054,4.4475,4.6802,4.5497,4.4827,4.5923,4.5391,4.5346,4.6306,4.7098,4.8449,5.0573,5.2422,5.4169,5.5897,5.7043,5.7925,5.8479,5.7383,5.7075,5.7648,5.7648,5.7956,5.8479,5.8479,5.8479,5.8479,0.0,5.8022,5.7241,5.7016,5.6395,5.5568,5.5343,5.5229,5.5192,5.5192,5.5192,5.5192,5.5192,5.603,5.7124,5.7214,5.8082,5.9099,5.9099,5.9099,5.9099,5.9099,5.9189,5.9279,5.9385,5.9428,5.9428,5.9548,5.9398,5.9249,5.9249,5.9189,5.9099,5.9099,5.9099,5.9279,5.9861,5.9488,5.9279,5.9861,5.9458,5.9099,5.9099,5.9099,5.9099,5.9099,5.9099,5.9099,5.9099,5.9099,5.9099,5.9099,5.8841,5.8568,5.8307,5.7737,5.7542,5.7795,5.7458,5.7303,5.7303,5.6781,5.6186,5.5533,5.4909,5.4329,2.4306,2.6858,2.8736,2.7096,2.9195,3.1523,3.0953,3.0386,2.9688,2.8702,2.9403,3.0955,3.357,3.5415,3.8045,4.2552,4.2971,4.335,4.5154,4.5537,4.6097,4.7268,4.6513,4.5899,4.5884,4.5707,4.5987,4.6927,4.8736,5.0652,5.2648,5.4425,5.608,5.7499,5.8076,5.8479,5.8818,5.8202,5.8048,5.8325,5.8176,5.836,5.8805,5.9036,5.9018,5.8805,0.0,5.8593,5.7687,5.7395,5.6933,5.6389,5.5931,5.5743,5.57,5.5341,5.5431,5.5683,5.5341,5.582,5.6658,5.6974,5.7739,5.8637,5.9009,5.9099,5.9099,5.9099,5.9368,5.9651,5.9651,5.9651,5.9651,5.9651,5.9368,5.9099,5.9099,5.9099,5.9099,5.9099,5.9398,5.9741,6.004,6.0146,6.0296,6.0595,6.0057,5.9651,5.9651,5.9308,5.9099,5.9099,5.9099,5.9099,5.9099,5.9099,5.8964,5.8637,5.8513,5.8195,5.7723,5.7444,5.736,5.7514,5.7374,5.7158,5.6796,5.6549,5.5896,5.4909,5.4619,5.4155,2.4035,2.6093,2.8324,2.9671,3.2318,3.4799,3.5586,3.4607,3.3322,3.2532,3.3299,3.4465,3.5645,3.8456,4.1555,4.4483,4.4096,4.3893,4.5304,4.6328,4.6946,4.6962,4.6965,4.6638,4.5794,4.6125,4.6794,4.7721,5.027,5.2554,5.43,5.6127,5.7682,5.8996,5.9021,5.9113,5.9267,5.9267,5.9175,5.9021,5.8819,5.8924,5.9298,5.9758,5.9775,5.943,5.99,5.9523,5.8546,5.8148,5.7706,5.7274,5.6658,5.6402,5.6342,5.582,5.597,5.6342,5.582,5.609,5.6718,5.7184,5.7799,5.8427,5.8936,5.9099,5.9099,5.9099,5.9458,5.9861,5.9861,5.9861,5.9861,5.9861,5.9458,5.9099,5.9099,5.9099,5.9159,5.9308,5.9608,6.001,6.0489,6.0745,6.091,6.109,6.0655,6.022,5.9921,5.9548,5.9279,5.9129,5.9099,5.9099,5.9099,5.9099,5.8868,5.8321,5.8223,5.796,5.743,5.7331,5.7303,5.7303,5.7303,5.6999,5.639,5.6244,5.5577,5.4503,5.4329,5.3981,2.7475,2.8539,2.9531,3.26,3.2136,3.1804,3.4982,3.3873,3.2789,3.5107,3.6246,3.7451,3.9491,4.2557,4.4828,4.5037,4.4491,4.4016,4.3981,4.4045,4.4287,4.4753,4.4814,4.5207,4.625,4.6365,4.712,4.884,5.0725,5.2554,5.43,5.6127,5.7894,5.966,5.9729,6.0037,6.064,6.064,6.0332,5.9729,5.9704,6.0042,6.0671,6.1322,6.1484,6.1263,6.1879,6.1477,6.0266,5.9637,5.8818,5.7965,5.7304,5.7047,5.7047,5.6974,5.6974,5.7047,5.6974,5.738,5.7979,5.7995,5.8487,5.9039,5.9099,5.9099,5.9099,5.9099,5.9115,5.9189,5.9189,5.9189,5.9189,5.9189,5.9129,5.9099,5.9099,5.9099,5.9279,5.9921,5.9548,5.9757,6.1642,6.0954,6.04,6.1,6.106,6.0581,5.9338,5.9668,5.9801,5.9159,5.9099,5.9099,5.9099,5.9099,5.8923,5.85,5.8307,5.8057,5.7781,5.7458,5.7303,5.7303,5.7303,5.6999,5.639,5.578,5.5142,5.4503,5.3865,5.3545,2.5878,2.7583,2.9371,3.1388,3.2893,3.4678,3.7636,3.8548,3.8846,3.9084,3.9941,4.1026,4.2251,4.388,4.5008,4.499,4.4106,4.351,4.376,4.4116,4.4616,4.5312,4.5587,4.611,4.7114,4.7766,4.8567,4.9573,5.2727,5.489,5.556,5.8008,5.9704,6.0411,6.0424,6.0547,6.0794,6.0794,6.0593,6.0179,5.9997,6.015,6.0564,6.1294,6.1433,6.1139,6.207,6.1712,6.0467,6.0049,5.9433,5.8667,5.7979,5.7709,5.7679,5.7244,5.7363,5.7649,5.7244,5.7274,5.7543,5.7965,5.8264,5.8547,5.8966,5.9099,5.9099,5.9099,5.9099,5.9099,5.9099,5.9099,5.9099,5.9099,5.9099,5.9099,5.9099,5.9099,5.9308,5.998,6.0236,6.0581,6.1343,6.1403,6.1283,6.112,6.0745,6.0296,5.9801,5.9578,5.9368,5.9129,5.9099,5.9099,5.9099,5.9099,5.9031,5.8882,5.8568,5.8128,5.75,5.736,5.7303,5.7303,5.6926,5.6419,5.578,5.5271,5.4633,5.3865,5.3632,5.3487,2.5771,2.7462,2.9651,3.1521,3.3972,3.6729,3.9734,4.1183,4.1985,4.2163,4.2566,4.3191,4.4209,4.4212,4.4216,4.4598,4.3722,4.3196,4.3742,4.4339,4.4962,4.5727,4.6492,4.7295,4.8089,4.9119,5.0135,5.1078,5.4357,5.6465,5.6848,5.9372,6.0794,6.0794,6.0794,6.0794,6.0794,6.0716,6.0586,6.039,6.0238,6.0212,6.0307,6.1308,6.1522,6.1145,6.2085,6.1915,6.0962,6.0588,5.9907,5.9069,5.8607,5.8427,5.8367,5.7902,5.8008,5.8338,5.7902,5.7723,5.7812,5.8278,5.8427,5.8517,5.8966,5.9099,5.9099,5.9099,5.9099,5.9099,5.9099,5.9099,5.9099,5.9099,5.9099,5.9099,5.9099,5.9099,5.9308,5.998,6.0392,6.0697,6.092,6.1237,6.1313,6.0741,6.0426,6.0139,5.9847,5.9608,5.9428,5.9129,5.9099,5.9099,5.9099,5.9099,5.9099,5.9099,5.8486,5.7946,5.7598,5.7402,5.7303,5.7303,5.6883,5.6345,5.562,5.5343,5.4604,5.3487,5.3487,5.3487,2.8014,2.8779,3.0666,3.372,3.532,3.7093,4.0676,4.0633,4.0725,4.3956,4.379,4.3638,4.5385,4.3848,4.2718,4.3901,4.3493,4.3223,4.3817,4.4375,4.4946,4.5543,4.7155,4.8463,4.9154,5.0223,5.1657,5.3444,5.5288,5.6821,5.8022,5.9823,6.0794,6.0794,6.0794,6.0794,6.0794,6.0521,6.039,6.0421,6.0493,6.0341,6.0077,6.1662,6.2082,6.1535,6.2212,6.2345,6.2032,6.1373,6.0282,5.9099,5.9099,5.9099,5.9099,5.9099,5.9099,5.9129,5.9129,5.9129,5.9129,5.9129,5.9129,5.9129,5.9129,5.9129,5.9129,5.9129,5.9129,5.9129,5.9129,5.9129,5.9129,5.9099,5.9099,5.9099,5.9099,5.9099,5.9308,5.998,5.9824,5.981,6.0477,6.037,6.0092,5.9733,6.0223,6.0247,5.9238,5.9833,6.0057,5.9189,5.9099,5.9099,5.9099,5.9099,5.9099,5.9099,5.796,5.757,5.8154,5.7612,5.7303,5.7303,5.7303,5.6897,5.6113,5.6084,5.5184,5.3487,5.3487,5.3516,2.6591,2.9076,3.2055,3.2503,3.7053,4.1489,4.1619,4.1521,4.2005,4.4146,4.4363,4.4459,4.5495,4.4424,4.3517,4.4032,4.3844,4.3834,4.4372,4.5328,4.6258,4.6991,4.8124,4.9,4.9444,5.0731,5.2122,5.3514,5.5508,5.7163,5.8386,5.9764,6.0521,6.0521,6.0521,6.0521,6.0521,6.0263,6.0255,6.0479,6.1203,6.1131,6.0391,6.1609,6.1817,6.126,6.1933,6.1651,6.0639,5.9967,5.9444,5.9099,5.9099,5.9099,5.9099,5.9099,5.9398,5.9801,5.9801,6.0116,6.0521,6.0521,6.0521,6.0521,6.0521,6.0521,6.0521,6.0521,6.0521,6.0402,5.9921,5.9801,5.9668,5.9219,5.9099,5.9099,5.9099,5.9099,5.9308,5.998,6.0018,5.9953,5.9967,6.044,6.0408,5.9181,5.9824,6.0126,5.9235,5.9338,5.9398,5.9129,5.9099,5.9099,5.9099,5.9099,5.9099,5.9099,5.796,5.7374,5.7556,5.7402,5.7303,5.7303,5.7303,5.7187,5.6926,5.5155,5.401,5.3487,5.3487,5.4445,2.9211,3.2192,3.5355,3.594,3.9544,4.2917,4.2861,4.317,4.3742,4.4749,4.4604,4.441,4.4862,4.4131,4.3674,4.4255,4.4472,4.487,4.5665,4.6395,4.7195,4.8141,4.8968,4.9627,5.0066,5.1796,5.3321,5.4431,5.6371,5.8053,5.9255,5.9656,6.001,6.039,6.0054,5.9958,6.025,5.9959,5.9901,6.0119,6.1152,6.1187,6.0377,6.1673,6.1845,6.112,6.1253,6.0848,6.004,5.9368,5.9099,5.9099,5.9099,5.9099,5.9099,5.9099,5.9518,6.01,6.01,6.0535,6.106,6.0805,6.0715,6.0655,6.0372,6.0505,6.0715,6.0715,6.088,6.1,6.0595,6.0505,6.0266,5.9308,5.9099,5.9099,5.9099,5.9099,5.9219,5.9608,6.002,6.0104,5.9402,6.01,6.0265,5.8831,5.9329,5.9684,5.9189,5.9099,5.9099,5.9099,5.9099,5.9099,5.9099,5.9099,5.9099,5.9099,5.796,5.7303,5.7303,5.7303,5.7303,5.7303,5.7303,5.7303,5.7303,5.5765,5.4996,5.4996,5.4996,5.5838,3.369,3.6469,3.9445,4.1816,4.2333,4.2665,4.4374,4.5213,4.5634,4.5525,4.463,4.3889,4.3946,4.3545,4.3597,4.4598,4.532,4.615,4.7246,4.7504,4.7926,4.8977,4.9615,5.0241,5.09,5.3043,5.4828,5.5896,5.7573,5.908,6.0259,5.9449,5.9362,6.0281,5.9436,5.9275,5.9946,5.961,5.9493,5.9553,6.0556,6.0715,6.025,6.1757,6.194,6.097,6.0296,6.001,5.9951,5.9338,5.9099,5.9099,5.9099,5.9099,5.9129,5.9159,5.9578,6.01,6.016,6.0595,6.1,6.0386,6.019,6.007,5.9458,5.9757,6.028,6.028,6.0775,6.1269,6.121,6.118,6.088,5.9608,5.9249,5.9189,5.9129,5.9099,5.9099,5.9099,5.9822,6.0118,5.9105,5.9655,5.9929,5.9031,5.9017,5.9099,5.9099,5.889,5.883,5.9056,5.889,5.883,5.9069,5.9099,5.9099,5.9099,5.796,5.7303,5.7303,5.7303,5.7187,5.6955,5.7187,5.7303,5.7303,5.7303,5.7303,5.7303,5.7303,5.7303,3.0698,3.4714,3.9173,4.0665,4.3243,4.5508,4.585,4.6454,4.6645,4.5706,4.4982,4.4638,4.5057,4.5086,4.5132,4.5366,4.6297,4.7097,4.7355,4.8171,4.8826,4.9073,4.9446,5.0164,5.1418,5.2701,5.4345,5.6357,5.7626,5.8703,5.965,5.9059,5.8985,5.966,5.9059,5.8989,5.9596,5.9328,5.9463,5.9973,6.0218,6.0505,6.091,6.1803,6.1503,6.028,5.9608,5.9308,5.9308,5.9159,5.9099,5.9099,5.9099,5.9099,5.9159,5.9681,5.998,6.019,6.0715,6.097,6.109,6.094,6.088,6.0864,6.0701,6.1134,6.1687,6.1687,6.2165,6.2555,6.2032,6.1882,6.1672,6.0851,6.0372,5.9937,5.9249,5.9099,5.9099,5.9099,5.927,5.9678,6.0468,6.0472,6.0743,6.1948,6.039,5.9099,5.9099,5.7304,5.6825,5.889,5.7274,5.6855,5.8919,5.9099,5.9099,5.9099,5.796,5.7303,5.7303,5.7303,5.6374,5.4358,5.6273,5.7303,5.7303,5.7303,5.7303,5.7303,5.7303,5.7303,3.2686,3.6635,4.0439,4.314,4.5117,4.6536,4.709,4.7025,4.677,4.6429,4.5683,4.5105,4.5109,4.5621,4.6062,4.62,4.7255,4.8124,4.8406,4.8826,4.9155,4.931,4.9366,4.9926,5.1361,5.2642,5.4131,5.5893,5.7186,5.8251,5.9038,5.8313,5.839,5.9473,5.8751,5.8684,5.9315,5.9167,5.9279,5.9621,5.9951,6.028,6.0625,6.0984,6.0759,6.007,5.9398,5.9099,5.9099,5.9099,5.9099,5.9099,5.9099,5.9099,5.9129,5.9488,5.9831,6.016,6.0505,6.0821,6.106,6.0745,6.0835,6.097,6.0342,6.1074,6.2032,6.1702,6.2345,6.3003,6.2674,6.2584,6.2405,6.1732,6.115,6.0551,5.9877,5.9714,5.9608,5.9189,5.9099,5.9325,6.0013,5.9923,6.0086,6.1058,5.9997,5.865,5.7393,5.606,5.573,5.7094,5.7124,5.7633,5.8979,5.9099,5.9099,5.9099,5.796,5.7303,5.7303,5.7303,5.6694,5.5358,5.6636,5.7303,5.7303,5.7303,5.7303,5.7303,5.7303,5.7303,3.4418,3.835,4.1855,4.6098,4.6948,4.694,4.7834,4.734,4.6853,4.7354,4.6489,4.5551,4.5215,4.6059,4.6889,4.724,4.8174,4.9032,4.9531,4.9312,4.9211,4.9471,4.924,4.9698,5.1361,5.273,5.409,5.5469,5.6826,5.7837,5.8384,5.7491,5.7588,5.9044,5.8218,5.8128,5.8906,5.8949,5.9009,5.9129,5.9668,5.9921,5.9921,5.9921,5.9921,5.9891,5.9338,5.9099,5.9099,5.9099,5.9099,5.9099,5.9099,5.9099,5.9129,5.9219,5.9548,5.9951,6.007,6.0386,6.0641,6.01,6.0386,6.0701,5.9488,6.0505,6.1972,6.1299,6.2061,6.3108,6.3108,6.3108,6.2944,6.2405,6.1852,6.1239,6.0551,6.0655,6.0535,5.9338,5.9099,5.9099,5.9099,5.9099,5.9099,5.9099,5.9099,5.8171,5.5551,5.5192,5.5359,5.5807,5.7812,5.9099,5.9099,5.9099,5.9004,5.88,5.7849,5.7303,5.7303,5.7303,5.7303,5.7303,5.7303,5.7303,5.7303,5.7303,5.7303,5.7303,5.7303,5.7303,2.8378,3.4484,4.1591,4.5535,4.7247,4.788,4.7506,4.7682,4.7987,4.8069,4.7174,4.6489,4.6961,4.7555,4.8163,4.8704,4.9199,4.9504,4.9585,4.9312,4.9125,4.9168,4.8909,4.97,5.2108,5.2837,5.4153,5.6511,5.7238,5.7613,5.7652,5.6801,5.6654,5.7399,5.6804,5.7047,5.8205,5.8234,5.8517,5.9099,5.9189,5.9249,5.9249,5.9249,5.9249,5.9219,5.9129,5.9099,5.9099,5.9099,5.9099,5.9099,5.9099,5.9099,5.9189,5.9741,5.9651,5.9308,5.9891,5.9787,5.9368,5.9249,5.9697,6.0086,5.9338,6.0505,6.1972,6.1299,6.2061,6.3108,6.3108,6.3108,6.3078,6.2988,6.2884,6.2375,6.0731,6.1613,6.2016,5.9578,5.9099,5.9099,5.9099,5.9099,5.9099,5.9099,5.9099,5.8171,5.5551,5.5192,5.606,5.8351,5.889,5.9099,5.9099,5.9099,5.8664,5.7612,5.7388,5.7303,5.7303,5.7303,5.7303,5.7303,5.7303,5.7303,5.7303,5.7303,5.7303,5.7303,5.7303,5.7303,3.1189,3.7322,4.3055,4.653,4.8072,4.8616,4.8374,4.8514,4.8612,4.8259,4.7798,4.7487,4.7609,4.7934,4.823,4.8336,4.8923,4.9283,4.9125,4.9371,4.9673,5.0012,5.0378,5.1401,5.347,5.3693,5.4524,5.6473,5.6677,5.6847,5.7142,5.6701,5.671,5.7303,5.6903,5.6987,5.753,5.753,5.7872,5.8547,5.8906,5.9099,5.9099,5.9099,5.9099,5.9099,5.9099,5.9099,5.9099,5.9099,5.9099,5.9099,5.9099,5.9099,5.9129,5.9428,5.9338,5.9129,5.9428,5.9578,5.9668,5.9668,6.0116,6.0535,5.9847,6.0805,6.1972,6.1299,6.2061,6.3108,6.3108,6.3108,6.3108,6.3108,6.3108,6.2884,6.2076,6.2525,6.2734,6.1567,6.0116,5.9099,5.9099,5.9099,5.9099,5.9099,5.9099,5.868,5.7543,5.7393,5.7274,5.6944,5.6915,5.7513,5.8979,5.9099,5.8596,5.7374,5.7303,5.7303,5.7303,5.7303,5.7303,5.7303,5.7303,5.7303,5.7303,5.7303,5.7303,5.7303,5.7303,5.7303,3.2945,3.784,4.1412,4.5693,4.7308,4.8029,4.8721,4.8759,4.8609,4.8449,4.8259,4.8095,4.8024,4.8067,4.8229,4.8622,4.9117,4.9485,4.9643,5.0125,5.0657,5.1168,5.1809,5.2799,5.4365,5.4314,5.4802,5.6299,5.6151,5.6241,5.6746,5.6506,5.6558,5.7002,5.6758,5.6718,5.6868,5.7184,5.7603,5.8115,5.8786,5.9099,5.9099,5.9099,5.9099,5.9099,5.9099,5.9099,5.9099,5.9099,5.9099,5.9099,5.9099,5.9099,5.9099,5.9099,5.9099,5.9099,5.9099,5.9428,5.9861,6.004,6.0565,6.1,6.0505,6.1297,6.2181,6.1449,6.2151,6.3108,6.3108,6.3108,6.3108,6.3108,6.3108,6.3108,6.3108,6.3108,6.3108,6.3108,6.1477,5.9907,5.9219,5.9099,5.9099,5.9099,5.9099,5.9099,5.9099,5.9099,5.8351,5.6419,5.5611,5.5987,5.7932,5.844,5.825,5.736,5.7303,5.7303,5.7303,5.7303,5.7303,5.7303,5.7303,5.7303,5.7303,5.7303,5.7303,5.7303,5.7303,5.7303,2.9282,3.162,3.3633,4.104,4.3678,4.5111,4.7662,4.7848,4.7802,4.884,4.8419,4.7996,4.8534,4.8199,4.853,5.0768,5.067,5.0782,5.2121,5.212,5.2106,5.2387,5.2454,5.2945,5.4109,5.4199,5.4802,5.6299,5.6151,5.6114,5.6403,5.594,5.5654,5.5714,5.545,5.5611,5.6252,5.7453,5.8055,5.8115,5.8786,5.9099,5.9099,5.9099,5.9099,5.9099,5.9099,5.9099,5.9099,5.9099,5.9099,5.9099,5.9099,5.9099,5.9099,5.9099,5.9099,5.9099,5.9099,5.9129,5.9249,5.9891,6.0565,6.109,6.106,6.1972,6.2854,6.1928,6.2361,6.3108,6.3108,6.3108,6.3108,6.3108,6.3108,6.3108,6.3108,6.3108,6.3108,6.3108,6.2988,6.2076,5.9548,5.9099,5.9099,5.9099,5.9099,5.9099,5.9099,5.9099,5.9069,5.8919,5.6675,5.5251,5.5401,5.6648,5.736,5.7303,5.7303,5.7303,5.7303,5.7303,5.7303,5.7303,5.7303,5.7303,5.7303,5.7303,5.7303,5.7303,5.7303,5.7303,2.7339,3.0228,3.2981,3.7738,4.1221,4.381,4.4979,4.6485,4.7807,4.8408,4.8002,4.8069,4.976,4.8941,4.8708,5.0657,5.0962,5.1333,5.2375,5.3066,5.3564,5.3821,5.4548,5.5223,5.5801,5.5863,5.609,5.6628,5.6567,5.6555,5.6652,5.6151,5.5855,5.5855,5.5431,5.5311,5.5564,5.6825,5.7453,5.7483,5.8577,5.9099,5.9099,5.9099,5.9099,5.9099,5.9099,5.9099,5.9099,5.9099,5.9099,5.9099,5.9099,5.9099,5.9099,5.9099,5.9099,5.9159,5.9578,6.0027,6.0492,6.1164,6.1553,6.1732,6.1732,6.1972,6.2121,6.1778,6.2361,6.3108,6.3108,6.3108,6.3108,6.3108,6.3108,6.3108,6.3108,6.3108,6.3108,6.3108,6.1716,6.0236,5.9279,5.9099,5.9099,5.9099,5.9099,5.9099,5.9099,5.9099,5.9099,5.9099,5.6765,5.5192,5.5192,5.4978,5.4851,5.4851,5.4851,5.4851,5.4851,5.4851,5.4851,5.4851,5.6461,5.7303,5.7303,5.7303,5.7303,5.7303,5.7303,5.8203,2.4673,2.7457,3.0666,3.4957,3.769,4.0244,4.3665,4.5052,4.618,4.8231,4.8013,4.8224,5.0586,5.0025,4.9698,5.1274,5.1946,5.2497,5.3145,5.4228,5.5047,5.5323,5.6054,5.6604,5.6785,5.6798,5.6798,5.6798,5.6798,5.6761,5.6677,5.6237,5.5917,5.5743,5.5381,5.5311,5.5521,5.6568,5.7214,5.7453,5.856,5.9099,5.9099,5.9099,5.9099,5.9099,5.9099,5.9099,5.9099,5.9099,5.9099,5.9099,5.9099,5.9099,5.9099,5.9099,5.9249,5.9488,5.9951,6.0535,6.121,6.1882,6.2091,6.2121,6.2375,6.2301,6.2181,6.2181,6.2614,6.3108,6.3108,6.3108,6.3108,6.3108,6.3108,6.3108,6.3108,6.3108,6.3108,6.3108,6.1657,6.0446,6.0446,6.0446,6.0146,5.9249,5.9099,5.9099,5.9099,5.9099,5.8756,5.7872,5.6226,5.5192,5.5192,5.4169,5.3487,5.3487,5.3487,5.3487,5.3487,5.4329,5.4764,5.4764,5.6432,5.7303,5.7303,5.7303,5.7303,5.7332,5.8203,5.9539,0.0,0.0,0.0,3.2396,3.2894,3.425,4.3567,4.3332,4.2694,4.8252,4.8419,4.8409,5.1068,5.1349,5.1574,5.283,5.3698,5.4356,5.4709,5.5695,5.6519,5.6773,5.6798,5.6798,5.6798,5.6798,5.6798,5.6798,5.6798,5.6677,5.6421,5.6127,5.5743,5.5204,5.5179,5.5508,5.6162,5.6778,5.7423,5.8085,5.8756,5.9099,5.9099,5.9099,5.9099,5.9099,5.9099,5.9099,5.9099,5.9099,5.9099,5.9099,5.9099,5.9099,5.9099,5.9099,5.9518,6.01,6.013,6.0565,6.1239,6.1912,6.2121,6.2241,6.2884,6.3108,6.3108,6.3108,6.3108,6.3108,6.3108,6.3108,6.3108,6.3108,6.3108,6.3108,6.3108,6.3108,6.3108,6.3108,6.3108,6.3063,6.2988,6.3048,6.2195,5.9488,5.9099,5.9099,5.9099,5.9099,5.8141,5.5581,5.5251,5.5192,5.5192,5.4169,5.3545,5.3603,5.3603,5.3603,5.3603,5.5997,5.7303,5.7303,5.7303,5.7303,5.7303,5.7303,5.7303,5.7361,6.0061,6.128,2.0955,0.0,0.0,0.0,0.0,0.0,3.5132,3.6677,3.9023,4.5499,4.5821,4.6553,5.1842,5.2935,5.3154,5.3457,5.4256,5.519,5.6109,5.6476,5.6725,5.6785,5.6798,5.6798,5.6798,5.6798,5.6798,5.6798,5.6798,5.6677,5.6421,5.578,5.5343,5.5192,5.5019,5.5108,5.5461,5.6568,5.7184,5.7393,5.856,5.9099,5.9099,5.9099,5.9099,5.9099,5.9099,5.9099,5.9099,5.9099,5.9099,5.9099,5.9099,5.9099,5.9099,5.9099,5.9518,6.016,6.0655,6.1253,6.1942,6.2614,6.2824,6.2854,6.3033,6.3108,6.3108,6.3108,6.3108,6.3108,6.3108,6.3108,6.3108,6.3108,6.3108,6.3108,6.3108,6.3108,6.3108,6.3108,6.3108,6.2465,6.0535,6.1806,6.2195,5.9488,5.9099,5.9099,5.9099,5.9099,5.8816,5.8112,5.6316,5.5192,5.5192,5.4169,5.4271,5.6128,5.6258,5.6258,5.6258,5.6926,5.7303,5.7303,5.7303,5.7303,5.7303,5.7303,5.7303,5.7419,6.1861,6.2964,0.0,0.0,0.0,0.0,0.0,0.0,3.4828,3.6388,3.8782,4.6747,4.7719,4.8429,5.2795,5.3656,5.3743,5.3816,5.4276,5.4974,5.5956,5.6488,5.6761,5.6652,5.6628,5.6592,5.6482,5.647,5.647,5.647,5.647,5.636,5.6077,5.5275,5.4951,5.5179,5.4943,5.5181,5.5987,5.6735,5.7363,5.7932,5.874,5.9099,5.9099,5.9099,5.9099,5.9099,5.9099,5.9099,5.9099,5.9099,5.9099,5.9099,5.9099,5.9099,5.9115,5.9398,5.9937,6.0625,6.1283,6.1942,6.2584,6.2974,6.3108,6.3108,6.3108,6.3108,6.3108,6.3108,6.3108,6.3108,6.3108,6.3108,6.3108,6.3108,6.3108,6.3108,6.3108,6.3108,6.3108,6.3108,6.3108,6.2584,6.1058,6.2076,6.2195,5.9488,6.0057,6.0356,5.9249,5.9099,5.9099,5.9099,5.7752,5.6825,5.6825,5.5755,5.5722,5.7216,5.7303,5.7303,5.7303,5.7779,5.8043,5.8043,5.7556,5.7303,5.7303,5.7303,5.7855,5.9016,6.308,6.3632,0.0,0.0,0.0,0.0,0.0,0.0,3.7661,3.8341,3.9412,4.8336,4.9974,5.0445,5.2426,5.2708,5.268,5.2824,5.3307,5.3971,5.4863,5.5901,5.6505,5.6262,5.6299,5.6262,5.6028,5.6003,5.6003,5.6003,5.6002,5.5866,5.5568,5.4803,5.4598,5.5158,5.4964,5.5542,5.6974,5.7124,5.7812,5.9009,5.9069,5.9099,5.9099,5.9099,5.9099,5.9099,5.9099,5.9099,5.9099,5.9099,5.9099,5.9129,5.9189,5.9219,5.9279,5.9967,6.0625,6.1299,6.1882,6.2555,6.3108,6.3108,6.3108,6.3108,6.3108,6.3108,6.3108,6.3108,6.3108,6.3108,6.3108,6.3108,6.3108,6.3108,6.3108,6.3108,6.3108,6.3108,6.3108,6.3108,6.3108,6.3108,6.3108,6.3108,6.2285,5.9907,6.1567,6.2135,5.9458,5.9099,5.9099,5.9099,5.9099,5.9099,5.9099,5.8112,5.75,5.75,5.75,5.75,5.75,5.8511,5.9099,5.9099,5.8198,5.7594,5.7303,5.7303,5.8639,6.1251,6.3516,6.3341,0.0,0.0,0.0,0.0,2.7895,0.0,2.8736,3.0026,3.2621,3.7687,3.868,4.0014,4.4538,4.5964,4.628,4.5787,4.9022,5.2214,5.3977,5.4861,5.5347,5.5299,5.5743,5.6065,5.6016,5.6003,5.6003,5.6003,5.6033,5.5858,5.5297,5.4951,5.4802,5.4866,5.5084,5.5573,5.6372,5.738,5.8038,5.8308,5.8846,5.9099,5.9099,5.9099,5.9099,5.9099,5.9099,5.9099,5.9099,5.9099,5.9099,5.9159,5.9697,5.9891,5.998,6.0655,6.1343,6.1912,6.2061,6.2555,6.3108,6.3108,6.3108,6.3108,6.3108,6.3108,6.3108,6.3108,6.3108,6.3108,6.3108,6.3108,6.3108,6.3108,6.3108,6.3108,6.3108,6.3108,6.3108,6.3108,6.3108,6.3108,6.3108,6.3108,6.2928,6.2405,6.2764,6.2135,5.9458,5.9099,5.9099,5.9099,5.9099,5.9099,5.9099,5.8882,5.876,5.876,5.876,5.876,5.876,5.8977,5.9099,5.9099,5.9973,5.9393,5.7303,5.7303,5.8639,6.1222,6.1716,6.1687,0.0,0.0,0.0,2.9139,2.9079,0.0,0.0,3.1061,3.2961,3.793,3.8401,3.896,4.2252,4.2688,4.2665,4.2996,4.6487,4.8933,4.8291,5.2413,5.5468,5.5333,5.5896,5.6239,5.6101,5.6377,5.6438,5.6119,5.5696,5.5398,5.5209,5.4825,5.4726,5.4994,5.5319,5.5859,5.6628,5.762,5.8278,5.8607,5.8949,5.9099,5.9099,5.9099,5.9099,5.9099,5.9099,5.9099,5.9129,5.9458,5.9608,5.9638,5.998,6.01,6.022,6.1224,6.1822,6.2151,6.2495,6.2824,6.3108,6.3108,6.3108,6.3108,6.3108,6.3108,6.3108,6.3108,6.3108,6.3108,6.3108,6.3108,6.3108,6.3108,6.3108,6.3108,6.3108,6.3108,6.3108,6.3108,6.3108,6.3108,6.3108,6.3108,6.3108,6.3108,6.3108,6.2614,6.1268,6.1074,6.0086,5.7423,5.8321,5.9099,5.9099,5.9099,5.9099,5.9099,5.9099,5.9697,6.1058,6.1074,6.0794,6.0156,6.0837,6.1164,6.1135,5.9858,6.0555,6.308,6.308,6.308,0.0,0.0,0.0,0.0,3.0807,3.0761,0.0,0.0,0.0,3.8637,3.8799,3.852,3.9856,3.9209,3.8841,3.9915,4.307,4.4447,4.1652,4.825,5.3342,5.3236,5.5079,5.5984,5.5127,5.5251,5.5671,5.6312,5.467,5.4118,5.524,5.478,5.4683,5.512,5.55,5.6151,5.7094,5.7769,5.8457,5.9099,5.9099,5.9099,5.9099,5.9099,5.9039,5.8906,5.8906,5.8816,5.877,5.9578,5.9921,5.9951,6.034,6.0489,6.0639,6.1866,6.2285,6.2375,6.2914,6.3108,6.3108,6.3108,6.3108,6.3108,6.3108,6.3108,6.3108,6.3108,6.3108,6.3108,6.3108,6.3108,6.3108,6.3108,6.3108,6.3108,6.3108,6.3108,6.3108,6.3108,6.3108,6.3108,6.3108,6.3108,6.3108,6.3108,6.3108,6.3108,6.3108,6.3108,6.1268,5.6479,5.7842,5.9099,5.9099,5.9099,5.9308,5.9847,5.9877,6.0835,6.3003,6.3108,6.2629,6.1597,6.1823,6.2935,6.5012,6.2935,6.3008,6.5012,6.5012,6.5012,3.5318,3.5318,3.5802,3.2348,3.3567,3.4188,2.8823,0.0,3.0522,2.9502,0.0,3.0342,3.1629,0.0,0.0,3.1846,3.5601,3.8212,3.7302,4.107,4.4118,4.4647,5.0995,5.4169,5.1176,4.9901,5.145,5.6598,5.2322,5.1262,5.5422,5.5345,5.5082,5.4841,5.541,5.6151,5.7094,5.7769,5.8457,5.9099,5.9099,5.9099,5.9099,5.9099,5.8786,5.8205,5.8205,5.7889,5.7423,5.868,5.9219,5.9398,6.1164,6.1882,6.1942,6.2704,6.2988,6.3003,6.3063,6.3108,6.3108,6.3108,6.3108,6.3108,6.3108,6.3108,6.3108,6.3108,6.3108,6.3108,6.3108,6.3108,6.3108,6.3108,6.3108,6.3108,6.3108,6.3108,6.3108,6.3108,6.3108,6.3108,6.3108,6.3108,6.3108,6.3108,6.3108,6.3108,6.3108,6.3108,6.1956,5.8979,5.8919,5.9099,5.9099,5.9099,6.0116,6.2509,6.2644,6.2764,6.3108,6.3108,6.3036,6.2891,6.3988,6.4722,6.5012,6.4722,6.4722,6.5012,6.5012,6.5012,3.5427,3.6096,0.0,0.0,0.0,0.0,2.9447,0.0,2.8806,2.8776,0.0,0.0,0.0,0.0,0.0,0.0,3.2953,3.4839,3.2265,3.7302,4.1743,4.315,4.6281,4.8985,5.0637,4.9625,5.1163,5.6688,5.2121,5.1244,5.6268,5.6074,5.5764,5.5624,5.5863,5.6183,5.6568,5.759,5.8234,5.8517,5.8517,5.8517,5.8517,5.8112,5.7782,5.75,5.75,5.756,5.7739,5.871,5.9338,5.9847,6.1463,6.2091,6.2195,6.2854,6.3108,6.3108,6.3108,6.3108,6.3108,6.3108,6.3108,6.3108,6.3108,6.3108,6.3108,6.3108,6.3108,6.3108,6.3108,6.3108,6.3108,6.3108,6.3108,6.3108,6.3108,6.3108,6.3108,6.3108,6.3108,6.3108,6.3108,6.3108,6.3108,6.3108,6.3108,6.3108,6.3108,6.3108,6.2689,6.1537,6.0027,5.9099,5.9099,5.9099,6.0236,6.2928,6.3108,6.3108,6.3108,6.3108,6.276,6.2013,6.5206,6.6239,6.5012,6.5012,6.5012,6.5028,6.579,6.5352,3.6545,0.0,0.0,0.0,0.0,0.0,0.0,0.0,0.0,0.0,0.0,0.0,0.0,0.0,0.0,0.0,0.0,3.195,2.8524,3.3013,3.7396,3.9541,4.1115,4.3958,0.0,4.7021,4.8278,5.497,5.0474,5.0269,5.6895,5.674,5.6398,5.6308,5.6231,5.6192,5.6192,5.7124,5.7649,5.7829,5.7995,5.8085,5.8085,5.759,5.7274,5.7094,5.7094,5.7274,5.7649,5.868,5.9398,5.9951,6.1313,6.1822,6.1942,6.2794,6.2974,6.2854,6.3048,6.3108,6.3108,6.3108,6.3108,6.3108,6.3108,6.3108,6.3108,6.3108,6.3108,6.3108,6.3108,6.3108,6.3108,6.3108,6.3108,6.3108,6.3108,6.3108,6.3108,6.3108,6.3108,6.3108,6.3108,6.3108,6.3108,6.3108,6.3108,6.2824,6.2106,6.2016,6.2016,6.2016,6.0938,6.0206,6.0206,6.0206,6.1028,6.2988,6.3108,6.3108,6.3108,6.4281,6.3928,6.1776,6.5063,6.6022,6.4482,6.4482,6.4482,6.4513,6.5482,6.4919,0.0,0.0,0.0,3.312,0.0,0.0,0.0,0.0,3.1039,0.0,0.0,0.0,0.0,0.0,0.0,0.0,0.0,0.0,0.0,2.6877,2.8008,3.0605,3.5429,4.0127,0.0,3.9311,4.0238,0.0,4.5943,4.6991,5.7041,5.7264,5.6925,5.6618,5.6333,5.6192,5.6192,5.6252,5.6539,5.7124,5.7799,5.8085,5.8085,5.8085,5.7709,5.7094,5.7094,5.6778,5.6402,5.8334,5.9129,5.9279,6.0611,6.112,6.1299,6.2614,6.2674,6.2211,6.2854,6.3108,6.3108,6.3108,6.3108,6.3108,6.3108,6.3108,6.3108,6.3108,6.3108,6.3108,6.3108,6.3108,6.3108,6.3108,6.3108,6.3108,6.3108,6.3108,6.3108,6.3108,6.3108,6.3108,6.3108,6.3108,6.3108,6.3108,6.3108,6.2165,5.9548,5.9249,5.9249,5.9249,6.1477,6.2988,6.2988,6.2988,6.3018,6.3093,6.3108,6.3108,6.3108,6.726,6.7535,6.3107,6.3194,6.3224,6.3155,6.3155,6.3155,6.3155,6.3199,6.3197,0.0,0.0,4.231,3.6155,0.0,0.0,0.0,0.0,0.0,0.0,0.0,0.0,0.0,0.0,0.0,0.0,0.0,0.0,0.0,0.0,2.5441,2.7656,3.2983,3.6836,0.0,0.0,0.0,0.0,4.8112,0.0,5.7798,5.7491,5.7253,5.7584,5.7056,5.6598,5.6192,5.7034,5.7124,5.6521,5.759,5.7649,5.6868,5.7244,5.7094,5.6521,5.6928,5.7244,5.75,5.8158,5.8697,5.9189,6.0086,6.0459,6.0595,6.1942,6.2301,6.2181,6.2868,6.3108,6.3108,6.3108,6.3108,6.3108,6.3108,6.3108,6.3108,6.3108,6.3108,6.3108,6.3108,6.3108,6.3108,6.3108,6.3108,6.3108,6.3108,6.3108,6.3108,6.3108,6.3108,6.3108,6.3108,6.3108,6.3108,6.3108,6.3108,6.2764,6.1866,6.0206,5.9787,6.1567,6.2569,6.3108,6.3108,6.5804,6.6256,6.3279,6.5902,6.619,6.3207,6.7401,6.7701,6.3194,6.3108,6.3108,6.3108,6.3108,6.3108,6.3108,6.3108,6.3108,4.247,4.3506,0.0,3.8466,3.7678,0.0,3.2285,0.0,3.352,0.0,0.0,0.0,0.0,0.0,0.0,0.0,0.0,0.0,0.0,2.346,0.0,2.5381,2.9564,0.0,0.0,0.0,0.0,0.0,0.0,0.0,0.0,5.7539,5.7808,5.8244,5.7732,5.7154,5.6521,5.7334,5.7334,5.6521,5.7363,5.7453,5.6898,5.7274,5.7363,5.7257,5.7646,5.8052,5.8457,5.8457,5.8697,5.9159,5.9831,6.01,6.025,6.1627,6.2241,6.2525,6.2944,6.3108,6.3108,6.3108,6.3108,6.3108,6.3108,6.3108,6.3108,6.3108,6.3108,6.3108,6.3108,6.3108,6.3108,6.3108,6.3108,6.3108,6.3108,6.3108,6.3108,6.3108,6.3108,6.3108,6.3108,6.3108,6.3108,6.3108,6.3108,6.3108,6.3108,6.0745,6.0116,6.2808,6.3108,6.3108,6.3108,6.5768,6.6177,6.3265,6.733,6.851,6.5607,6.8254,6.8448,6.5553,6.3918,6.3108,6.3108,6.3108,6.3108,6.3108,6.3108,6.3975]}]]